[[{"header":{"parameterUnit":"m.s-1","parameterCategory":1,"la1":30.6,"la2":28.766,"lo1":-90.7593,"lo2":-88.6598,"dy":0.0162,"dx":0.0183,"nx":116,"ny":114,"refTime":"2024-03-27T06:00:00:Z","depth":0,"parameterNumber":2,"parameterNumberName":"U-component_of_WINDS"},"data":[0.0,0.0,0.0,0.0,0.0,0.0,0.0,0.0,0.0,0.0,0.0,0.0,0.0,0.0,0.0,0.0,0.0,0.0,0.0,0.0,0.0,0.0,0.0,0.0,0.0,0.0,0.0,0.0,0.0,0.0,0.0,0.0,0.0,0.0,0.0,0.0,0.0,0.0,0.0,0.0,0.0,0.0,0.0,0.0,0.0,0.0,0.0,0.0,0.0,0.0,0.0,0.0,0.0,0.0,0.0,0.0,0.0,0.0,0.0,0.0,0.0,0.0,0.0,0.0,0.0,0.0,0.0,0.0,0.0,0.0,0.0,0.0,0.0,0.0,0.0,0.0,0.0,0.0,0.0,0.0,0.0,0.0,0.0,0.0,0.0,0.0,0.0,0.0,0.0,0.0,0.0,0.0,0.0,0.0,0.0,0.0,0.0,0.0,0.0,0.0,0.0,0.0,0.0,0.0,0.0,0.0,0.0,0.0,0.0,0.0,0.0,0.0,0.0,0.0,0.0,0.0,0.0,0.0,0.0,0.0,0.0,0.0,0.0,0.0,0.0,0.0,0.0,0.0,0.0,0.0,0.0,0.0,0.0,0.0,0.0,0.0,0.0,0.0,0.0,0.0,0.0,0.0,0.0,0.0,0.0,0.0,0.0,0.0,0.0,0.0,0.0,0.0,0.0,0.0,0.0,0.0,0.0,0.0,0.0,0.0,0.0,0.0,0.0,0.0,0.0,0.0,0.0,0.0,0.0,0.0,0.0,0.0,0.0,0.0,0.0,0.0,0.0,0.0,0.0,0.0,0.0,0.0,0.0,0.0,0.0,0.0,0.0,0.0,0.0,0.0,0.0,0.0,0.0,0.0,0.0,0.0,0.0,0.0,0.0,0.0,0.0,0.0,0.0,0.0,0.0,0.0,0.0,0.0,0.0,0.0,0.0,0.0,0.0,0.0,0.0,0.0,0.0,0.0,0.0,0.0,0.0,0.0,0.0,0.0,0.0,0.0,0.0,0.0,0.0,0.0,0.0,0.0,0.0,0.0,0.0,0.0,0.0,0.0,0.0,0.0,0.0,0.0,0.0,0.0,0.0,0.0,0.0,0.0,0.0,0.0,0.0,0.0,0.0,0.0,0.0,0.0,0.0,0.0,0.0,0.0,0.0,0.0,0.0,0.0,0.0,0.0,0.0,0.0,0.0,0.0,0.0,0.0,0.0,0.0,0.0,0.0,0.0,0.0,0.0,0.0,0.0,0.0,0.0,0.0,0.0,0.0,0.0,0.0,0.0,0.0,0.0,0.0,0.0,0.0,0.0,0.0,0.0,0.0,0.0,0.0,0.0,0.0,0.0,0.0,0.0,0.0,0.0,0.0,0.0,0.0,0.0,0.0,0.0,0.0,0.0,0.0,0.0,0.0,0.0,0.0,0.0,0.0,0.0,0.0,0.0,0.0,0.0,0.0,0.0,0.0,0.0,0.0,0.0,0.0,0.0,0.0,0.0,0.0,0.0,0.0,0.0,0.0,0.0,0.0,0.0,0.0,0.0,0.0,0.0,0.0,0.0,0.0,0.0,0.0,0.0,0.0,0.0,0.0,0.0,0.0,0.0,0.0,0.0,0.0,0.0,0.0,0.0,0.0,0.0,0.0,0.0,0.0,0.0,0.0,0.0,0.0,0.0,0.0,0.0,0.0,0.0,0.0,0.0,0.0,0.0,0.0,0.0,0.0,0.0,0.0,0.0,0.0,0.0,0.0,0.0,0.0,0.0,0.0,0.0,0.0,0.0,0.0,0.0,0.0,0.0,0.0,0.0,0.0,0.0,0.0,0.0,0.0,0.0,0.0,0.0,0.0,0.0,0.0,0.0,0.0,0.0,0.0,0.0,0.0,0.0,0.0,0.0,0.0,0.0,0.0,0.0,0.0,0.0,0.0,0.0,0.0,0.0,0.0,0.0,0.0,0.0,0.0,0.0,0.0,0.0,0.0,0.0,0.0,0.0,0.0,0.0,0.0,0.0,0.0,0.0,0.0,0.0,0.0,0.0,0.0,0.0,0.0,0.0,0.0,0.0,0.0,0.0,0.0,0.0,0.0,0.0,0.0,0.0,0.0,0.0,0.0,0.0,0.0,0.0,0.0,0.0,0.0,0.0,0.0,0.0,0.0,0.0,0.0,0.0,0.0,0.0,0.0,0.0,0.0,0.0,0.0,0.0,0.0,0.0,0.0,0.0,0.0,0.0,0.0,0.0,0.0,0.0,0.0,0.0,0.0,0.0,0.0,0.0,0.0,0.0,0.0,0.0,0.0,0.0,0.0,0.0,0.0,0.0,0.0,0.0,0.0,0.0,0.0,0.0,0.0,0.0,0.0,0.0,0.0,0.0,0.0,0.0,0.0,0.0,0.0,0.0,0.0,0.0,0.0,0.0,0.0,0.0,0.0,0.0,0.0,0.0,0.0,0.0,0.0,0.0,0.0,0.0,0.0,0.0,0.0,0.0,0.0,0.0,0.0,0.0,0.0,0.0,0.0,0.0,0.0,0.0,0.0,0.0,0.0,0.0,0.0,0.0,0.0,0.0,0.0,0.0,0.0,0.0,0.0,0.0,0.0,0.0,0.0,0.0,0.0,0.0,0.0,0.0,0.0,0.0,0.0,0.0,0.0,0.0,0.0,0.0,0.0,0.0,0.0,0.0,0.0,0.0,0.0,0.0,0.0,0.0,0.0,0.0,0.0,0.0,0.0,0.0,0.0,0.0,0.0,0.0,0.0,0.0,0.0,0.0,0.0,0.0,0.0,0.0,0.0,0.0,0.0,0.0,0.0,0.0,0.0,0.0,0.0,0.0,0.0,0.0,0.0,0.0,0.0,0.0,0.0,0.0,0.0,0.0,0.0,0.0,0.0,0.0,0.0,0.0,0.0,0.0,0.0,0.0,0.0,0.0,0.0,0.0,0.0,0.0,0.0,0.0,0.0,0.0,0.0,0.0,0.0,0.0,0.0,0.0,0.0,0.0,0.0,0.0,0.0,0.0,0.0,0.0,0.0,0.0,0.0,0.0,0.0,0.0,0.0,0.0,0.0,0.0,0.0,0.0,0.0,0.0,0.0,0.0,0.0,0.0,0.0,0.0,0.0,0.0,0.0,0.0,0.0,0.0,0.0,0.0,0.0,0.0,0.0,0.0,0.0,0.0,0.0,0.0,0.0,0.0,0.0,0.0,0.0,0.0,0.0,0.0,0.0,0.0,0.0,0.0,0.0,0.0,0.0,0.0,0.0,0.0,0.0,0.0,0.0,0.0,0.0,0.0,0.0,0.0,0.0,0.0,0.0,0.0,0.0,0.0,0.0,0.0,0.0,0.0,0.0,0.0,0.0,0.0,0.0,0.0,0.0,0.0,0.0,0.0,0.0,0.0,0.0,0.0,0.0,0.0,0.0,0.0,0.0,0.0,0.0,0.0,0.0,0.0,0.0,0.0,0.0,0.0,0.0,0.0,0.0,0.0,0.0,0.0,0.0,0.0,0.0,0.0,0.0,0.0,0.0,0.0,0.0,0.0,0.0,0.0,0.0,0.0,0.0,0.0,0.0,0.0,0.0,0.0,0.0,0.0,0.0,0.0,0.0,0.0,0.0,0.0,0.0,0.0,0.0,0.0,0.0,0.0,0.0,0.0,0.0,0.0,0.0,0.0,0.0,0.0,0.0,0.0,0.0,0.0,0.0,0.0,0.0,0.0,0.0,0.0,0.0,0.0,0.0,0.0,0.0,0.0,0.0,0.0,0.0,0.0,0.0,0.0,0.0,0.0,0.0,0.0,0.0,0.0,0.0,0.0,0.0,0.0,0.0,0.0,0.0,0.0,0.0,0.0,0.0,0.0,0.0,0.0,0.0,0.0,0.0,0.0,0.0,0.0,0.0,0.0,0.0,0.0,0.0,0.0,0.0,0.0,0.0,0.0,0.0,0.0,0.0,0.0,0.0,0.0,0.0,0.0,0.0,0.0,0.0,0.0,0.0,0.0,0.0,0.0,0.0,0.0,0.0,0.0,0.0,0.0,0.0,0.0,0.0,0.0,0.0,0.0,0.0,0.0,0.0,0.0,0.0,0.0,0.0,0.0,0.0,0.0,0.0,0.0,0.0,0.0,0.0,0.0,0.0,0.0,0.0,0.0,0.0,0.0,0.0,0.0,0.0,0.0,0.0,0.0,0.0,0.0,0.0,0.0,0.0,0.0,0.0,0.0,0.0,0.0,0.0,0.0,0.0,0.0,0.0,0.0,0.0,0.0,0.0,0.0,0.0,0.0,0.0,0.0,0.0,0.0,0.0,0.0,0.0,0.0,0.0,0.0,0.0,0.0,0.0,0.0,0.0,0.0,0.0,0.0,0.0,0.0,0.0,0.0,0.0,0.0,0.0,0.0,0.0,0.0,0.0,0.0,0.0,0.0,0.0,0.0,0.0,0.0,0.0,0.0,0.0,0.0,0.0,0.0,0.0,0.0,0.0,0.0,0.0,0.0,0.0,0.0,0.0,0.0,0.0,0.0,0.0,0.0,0.0,0.0,0.0,0.0,0.0,0.0,0.0,0.0,0.0,0.0,0.0,0.0,0.0,0.0,0.0,0.0,0.0,0.0,0.0,0.0,0.0,0.0,0.0,0.0,0.0,0.0,0.0,0.0,0.0,0.0,0.0,0.0,0.0,0.0,0.0,0.0,0.0,0.0,0.0,0.0,0.0,0.0,0.0,0.0,0.0,0.0,0.0,0.0,0.0,0.0,0.0,0.0,0.0,0.0,0.0,0.0,0.0,0.0,0.0,0.0,0.0,0.0,0.0,0.0,0.0,0.0,0.0,0.0,0.0,0.0,0.0,0.0,0.0,0.0,0.0,0.0,0.0,0.0,0.0,0.0,0.0,0.0,0.0,0.0,0.0,0.0,0.0,0.0,0.0,0.0,0.0,0.0,0.0,0.0,0.0,0.0,0.0,0.0,0.0,0.0,0.0,0.0,0.0,0.0,0.0,0.0,0.0,0.0,0.0,0.0,0.0,0.0,0.0,0.0,0.0,0.0,0.0,0.0,0.0,0.0,0.0,0.0,0.0,0.0,0.0,0.0,0.0,0.0,0.0,0.0,0.0,0.0,0.0,0.0,0.0,0.0,0.0,0.0,0.0,0.0,0.0,0.0,0.0,0.0,0.0,0.0,0.0,0.0,0.0,0.0,0.0,0.0,0.0,0.0,0.0,0.0,0.0,0.0,0.0,0.0,0.0,0.0,0.0,0.0,0.0,0.0,0.0,0.0,0.0,0.0,0.0,0.0,0.0,0.0,0.0,0.0,0.0,0.0,0.0,0.0,0.0,0.0,0.0,0.0,0.0,0.0,0.0,0.0,0.0,0.0,0.0,0.0,0.0,0.0,0.0,0.0,0.0,0.0,0.0,0.0,0.0,0.0,0.0,0.0,0.0,0.0,0.0,0.0,0.0,0.0,0.0,0.0,0.0,0.0,0.0,0.0,0.0,0.0,0.0,0.0,0.0,0.0,0.0,0.0,0.0,0.0,0.0,0.0,0.0,0.0,0.0,0.0,0.0,0.0,0.0,0.0,0.0,0.0,0.0,0.0,0.0,0.0,0.0,0.0,0.0,0.0,0.0,0.0,0.0,0.0,0.0,0.0,0.0,0.0,0.0,0.0,0.0,0.0,0.0,0.0,0.0,0.0,0.0,0.0,0.0,0.0,0.0,0.0,0.0,0.0,0.0,0.0,0.0,0.0,0.0,0.0,0.0,0.0,0.0,0.0,0.0,0.0,0.0,0.0,0.0,0.0,0.0,0.0,0.0,0.0,0.0,0.0,0.0,0.0,0.0,0.0,0.0,0.0,0.0,0.0,0.0,0.0,0.0,0.0,0.0,0.0,0.0,0.0,0.0,0.0,0.0,0.0,0.0,0.0,0.0,0.0,0.0,0.0,0.0,0.0,0.0,0.0,0.0,0.0,0.0,0.0,0.0,0.0,0.0,0.0,0.0,0.0,0.0,0.0,0.0,0.0,0.0,0.0,0.0,0.0,0.0,0.0,0.0,0.0,0.0,0.0,0.0,0.0,0.0,0.0,0.0,0.0,0.0,0.0,0.0,0.0,0.0,4.3435,0.0,0.0,0.0,0.0,0.0,0.0,0.0,0.0,0.0,0.0,0.0,0.0,0.0,0.0,0.0,0.0,0.0,0.0,0.0,0.0,0.0,0.0,0.0,0.0,2.0866,2.1109,2.103,2.1778,2.2643,2.348,0.0,0.0,0.0,0.0,0.0,2.5476,2.5924,2.6346,2.6767,2.8462,3.0545,3.2926,3.2502,3.1926,3.1193,0.0,0.0,0.0,0.0,0.0,0.0,0.0,0.0,0.0,0.0,0.0,0.0,0.0,0.0,0.0,0.0,0.0,0.0,0.0,0.0,0.0,0.0,0.0,0.0,0.0,0.0,0.0,0.0,0.0,0.0,0.0,0.0,0.0,0.0,0.0,0.0,0.0,0.0,0.0,0.0,0.0,0.0,0.0,0.0,0.0,0.0,0.0,0.0,0.0,0.0,0.0,0.0,0.0,0.0,0.0,0.0,0.0,0.0,0.0,0.0,0.0,0.0,0.0,0.0,0.0,0.0,0.0,0.0,0.0,0.0,0.0,4.8102,0.0,0.0,0.0,0.0,0.0,0.0,0.0,0.0,0.0,0.0,0.0,0.0,0.0,0.0,0.0,0.0,0.0,0.0,0.0,0.0,0.0,2.064,2.0703,2.1488,2.2187,2.2577,2.3269,2.4064,2.5035,2.4145,0.0,0.0,2.4888,2.4864,2.573,2.6631,2.766,2.8748,3.1481,3.4885,3.8912,4.0076,3.9525,3.7458,3.5243,0.0,0.0,0.0,0.0,0.0,0.0,0.0,0.0,0.0,0.0,0.0,0.0,0.0,0.0,0.0,0.0,0.0,0.0,0.0,0.0,0.0,0.0,0.0,0.0,0.0,0.0,0.0,0.0,0.0,0.0,0.0,0.0,0.0,0.0,0.0,0.0,0.0,0.0,0.0,0.0,0.0,0.0,0.0,0.0,0.0,0.0,0.0,0.0,0.0,0.0,0.0,0.0,0.0,0.0,0.0,0.0,0.0,0.0,0.0,0.0,0.0,0.0,0.0,5.9701,6.2016,6.4283,6.4641,6.4359,6.3281,5.8665,5.4434,5.0664,0.0,0.0,0.0,0.0,0.0,0.0,0.0,0.0,0.0,0.0,0.0,0.0,0.0,0.0,0.0,0.0,0.0,0.0,0.0,0.0,2.0856,2.1544,2.2353,2.3752,2.6001,2.6269,2.696,2.8521,2.7161,2.6385,2.6607,2.5822,2.581,2.6701,2.7589,2.913,3.1398,3.8129,4.3279,4.6761,4.9148,5.0085,4.9436,4.1241,3.8041,3.8747,0.0,0.0,0.0,0.0,0.0,0.0,0.0,0.0,0.0,0.0,0.0,0.0,0.0,0.0,0.0,0.0,0.0,0.0,0.0,0.0,0.0,0.0,0.0,0.0,0.0,0.0,0.0,0.0,0.0,0.0,0.0,0.0,0.0,0.0,0.0,0.0,0.0,0.0,0.0,0.0,0.0,3.6725,3.9418,0.0,0.0,0.0,0.0,0.0,0.0,0.0,0.0,0.0,0.0,0.0,0.0,0.0,0.0,5.3958,6.0482,6.2567,6.0296,6.4218,6.5166,6.3488,6.5051,6.5243,6.4474,6.5128,0.0,5.5665,5.1241,0.0,0.0,0.0,0.0,0.0,0.0,0.0,0.0,0.0,0.0,0.0,0.0,0.0,0.0,0.0,0.0,0.0,0.0,0.0,0.0,0.0,2.6106,2.8435,2.9574,3.3548,3.5126,3.3018,3.2675,3.1475,2.9102,2.7768,2.7257,2.7612,2.9852,3.3837,3.9661,4.5326,4.9602,5.2451,5.3609,5.4381,5.467,5.019,4.6629,4.3791,4.1117,0.0,0.0,0.0,0.0,0.0,0.0,0.0,0.0,0.0,0.0,0.0,0.0,0.0,0.0,0.0,0.0,0.0,0.0,0.0,0.0,0.0,0.0,0.0,0.0,0.0,0.0,0.0,0.0,0.0,0.0,0.0,0.0,0.0,0.0,0.0,0.0,0.0,0.0,0.0,3.8361,4.1813,4.0614,4.3401,4.5035,0.0,0.0,0.0,0.0,0.0,0.0,0.0,0.0,0.0,5.4216,5.9537,6.1838,6.0608,6.5538,6.7718,6.7244,6.959,7.036,6.9744,7.0514,7.0398,6.9629,7.0398,6.8205,6.3743,5.8633,5.5827,5.4361,0.0,0.0,0.0,0.0,4.7549,4.8797,0.0,0.0,0.0,0.0,0.0,0.0,0.0,0.0,0.0,0.0,0.0,0.0,2.6373,3.0953,3.4388,3.5886,4.0797,4.228,3.8546,3.7707,3.5665,3.1888,3.0302,2.9445,2.9201,3.3745,4.0014,4.7989,5.2183,5.5514,5.7973,5.8219,5.8649,5.9226,5.8346,5.4841,4.9356,4.5948,4.3122,4.065,0.0,0.0,0.0,0.0,0.0,0.0,0.0,0.0,0.0,0.0,0.0,0.0,0.0,0.0,0.0,0.0,0.0,0.0,0.0,0.0,0.0,0.0,0.0,0.0,0.0,0.0,0.0,0.0,0.0,0.0,0.0,0.0,0.0,0.0,0.0,0.0,0.0,4.2326,4.5956,4.2239,4.7414,5.0181,0.0,0.0,0.0,0.0,0.0,0.0,5.553,5.8821,6.1006,6.1914,6.6101,6.796,6.7205,7.0167,7.2283,7.3514,7.4591,7.5322,7.5668,7.5899,7.5553,7.4784,7.4784,7.3476,7.0898,6.5576,6.1511,5.8317,5.5147,5.4177,5.4331,5.2871,5.3635,5.557,0.0,0.0,0.0,0.0,0.0,0.0,0.0,0.0,0.0,0.0,0.0,2.7298,3.2221,3.6509,4.1309,4.697,4.6321,4.5539,4.5376,4.0888,3.7131,3.4605,3.3618,3.2756,3.1909,3.9849,4.7347,5.4168,5.8308,6.1666,6.4166,6.4999,6.5408,6.537,6.3883,6.0426,5.5537,5.2236,4.9391,4.6758,4.2493,0.0,0.0,0.0,0.0,0.0,0.0,0.0,0.0,0.0,0.0,0.0,0.0,0.0,0.0,0.0,0.0,0.0,0.0,0.0,0.0,0.0,0.0,0.0,0.0,0.0,0.0,0.0,0.0,0.0,0.0,0.0,0.0,0.0,0.0,0.0,0.0,0.0,0.0,4.5663,5.201,0.0,0.0,0.0,0.0,5.5164,5.8258,6.1219,6.3872,6.6449,6.8256,6.9167,7.0975,7.2668,7.4168,7.6015,7.6938,7.7053,7.8707,7.9054,7.8323,7.9169,7.9054,7.8246,7.8246,7.7284,7.5207,6.9283,6.5307,6.2983,6.2743,6.2204,6.1458,6.055,6.0849,6.1338,0.0,0.0,0.0,0.0,0.0,2.0494,2.0509,2.1262,2.2248,2.3348,2.7084,3.1594,3.6754,4.3424,4.9006,5.28,5.5036,5.5133,5.2503,4.708,4.2643,3.9643,3.6123,3.6323,4.0805,4.7029,5.3242,5.9427,6.3767,6.664,6.8103,6.9066,6.9515,6.9477,6.9078,6.7292,6.4155,5.8007,5.3973,5.1328,4.703,4.25,0.0,0.0,0.0,0.0,0.0,0.0,0.0,0.0,0.0,0.0,0.0,0.0,0.0,0.0,0.0,0.0,0.0,0.0,0.0,0.0,0.0,0.0,0.0,0.0,0.0,0.0,0.0,0.0,0.0,0.0,0.0,0.0,0.0,0.0,0.0,0.0,0.0,5.3241,5.9165,0.0,5.905,5.8858,6.005,6.282,6.3705,6.5667,6.9283,7.0898,7.2591,7.4514,7.5668,7.7092,7.8784,7.9939,8.0516,8.0516,8.1131,8.0977,8.0169,8.0477,8.0477,8.0169,8.0169,7.9515,7.8284,7.6169,7.2178,6.7307,6.6192,6.5231,6.4501,6.4205,6.4628,6.5103,0.0,0.0,0.0,0.0,2.1195,2.1288,2.0984,2.1977,2.3434,2.539,3.0535,3.6527,4.3066,5.0735,5.6827,6.0294,6.2074,6.1266,5.7174,5.1354,4.6329,4.243,3.9558,4.1302,4.8164,5.3293,5.8796,6.477,6.8565,7.1029,7.2242,7.2919,7.3201,7.3201,7.3125,7.2277,7.0541,6.4903,6.0222,5.6211,5.1914,4.7617,4.332,0.0,0.0,0.0,0.0,0.0,0.0,0.0,0.0,0.0,0.0,0.0,0.0,0.0,0.0,0.0,0.0,0.0,0.0,0.0,0.0,0.0,0.0,0.0,0.0,0.0,0.0,0.0,0.0,0.0,0.0,0.0,0.0,0.0,0.0,0.0,6.1296,5.9358,6.5359,6.8552,6.5705,6.5205,6.609,6.8629,6.8859,7.0475,7.413,7.5168,7.6669,7.89,7.9477,8.0477,8.1939,8.2477,8.2593,8.2324,8.2324,8.2016,8.1516,8.1208,8.1246,8.1477,8.1208,8.0785,8.0208,7.9939,7.7177,7.2957,7.1189,6.969,6.846,6.8448,6.859,6.8809,0.0,0.0,0.0,2.1666,2.2536,2.2818,2.1969,2.3311,2.5311,2.7848,3.4127,4.1888,5.1099,5.8192,6.4422,6.9669,6.6859,6.3142,5.9319,5.3243,4.7621,4.2747,4.4067,4.7636,5.3474,5.8564,6.4084,7.0117,7.2661,7.485,7.6636,7.6698,7.67,7.6661,7.6005,7.5258,7.434,7.286,6.832,6.1758,5.7305,5.3008,4.8906,0.0,0.0,0.0,0.0,0.0,0.0,0.0,0.0,0.0,0.0,0.0,0.0,0.0,0.0,0.0,0.0,0.0,0.0,0.0,0.0,0.0,0.0,0.0,0.0,0.0,0.0,0.0,0.0,0.0,0.0,0.0,0.0,0.0,5.1299,5.9011,6.4589,6.3782,7.0321,7.2899,6.7936,6.9706,7.1514,7.236,7.3976,7.6015,7.8515,7.9477,8.0669,8.2324,8.2362,8.2785,8.3664,8.367,8.3247,8.2369,8.2369,8.2401,8.2324,8.1516,8.1593,8.2247,8.1477,8.1131,8.1016,8.0177,7.9831,7.9669,7.7977,7.5822,7.3668,7.363,7.3053,7.2399,0.0,0.0,2.0966,2.2481,2.2958,2.301,2.2795,2.37,2.5742,2.9472,3.745,4.5819,5.3858,6.1874,6.8282,7.2415,6.7871,6.4089,6.248,5.3399,4.7189,4.511,4.8355,5.3288,5.9824,6.4431,6.8796,7.297,7.5682,7.7254,7.7775,7.8507,7.8831,7.8831,7.8643,7.8136,7.7323,7.6909,7.4883,7.1367,6.3867,5.8672,5.4922,0.0,0.0,0.0,0.0,0.0,0.0,0.0,0.0,0.0,0.0,0.0,0.0,0.0,0.0,0.0,0.0,0.0,0.0,0.0,0.0,0.0,0.0,0.0,0.0,0.0,0.0,0.0,0.0,0.0,0.0,0.0,5.3338,5.8055,5.8834,6.5947,7.1398,7.2388,7.6005,7.7592,7.5582,7.6592,7.7438,7.7718,7.9276,8.0816,8.2155,8.2432,8.3054,8.4132,8.417,8.4593,8.5401,8.5401,8.5016,8.4209,8.4209,8.3862,8.3208,8.3016,8.267,8.2285,8.2054,8.1631,8.1093,8.0862,8.0746,8.0554,7.8861,7.7746,7.7053,7.6476,7.5284,7.4053,0.0,2.0811,2.1601,2.3352,2.3949,2.4074,2.3695,2.4362,2.6836,3.2071,4.0246,4.8745,5.6983,6.4894,7.0475,7.264,6.8058,6.3765,6.0859,5.2692,4.8697,5.0292,5.4754,5.9881,6.563,6.9983,7.3569,7.6381,7.8293,7.9478,7.9913,8.0514,8.0781,8.0781,8.0781,8.0312,7.9531,7.9531,7.875,7.6992,7.125,6.6445,6.2265,5.8203,5.5038,5.2419,4.9723,4.9287,4.917,4.3857,0.0,0.0,0.0,0.0,0.0,0.0,0.0,0.0,0.0,0.0,0.0,0.0,0.0,0.0,0.0,0.0,0.0,0.0,0.0,0.0,0.0,0.0,0.0,0.0,5.8466,6.3653,6.7879,7.2302,7.5861,7.7891,8.0085,8.1354,8.1201,8.1323,8.167,8.2386,8.3009,8.374,8.4619,8.4626,8.5049,8.5928,8.5973,8.6357,8.7166,8.7171,8.6594,8.5401,8.5401,8.4978,8.4132,8.3785,8.3516,0.0,8.3016,8.2593,8.2131,8.1747,8.1593,0.0,0.0,0.0,0.0,0.0,7.7169,7.6284,0.0,2.1496,2.2604,2.4269,2.5178,2.5455,2.467,2.5182,2.8083,3.4753,4.2228,5.039,5.9373,6.659,7.0975,7.1475,6.7327,6.2278,5.6597,5.2278,5.2185,5.7177,6.2206,6.6822,7.0965,7.4911,7.7855,7.9687,8.047,8.1381,8.2304,8.2383,8.2461,8.2461,8.2539,8.2226,8.1562,8.1484,8.1054,8.0273,7.8594,7.4805,6.9844,6.7305,6.4765,6.2344,6.0547,5.8515,5.5976,5.1396,0.0,0.0,0.0,0.0,0.0,0.0,0.0,0.0,0.0,0.0,0.0,0.0,0.0,0.0,0.0,0.0,0.0,0.0,0.0,0.0,0.0,0.0,0.0,0.0,6.4128,6.9533,7.6698,7.8034,7.9092,8.1285,8.2939,8.4202,8.4966,8.4433,8.467,8.6132,8.5665,8.5658,8.6357,0.0,0.0,0.0,0.0,8.8089,8.8969,8.8859,8.8055,8.6517,8.644,8.6017,8.5291,8.4407,8.4445,8.5132,8.4247,8.3824,8.367,8.2824,8.2324,8.2093,8.1362,8.0631,7.9862,7.8977,7.8631,7.8631,0.0,2.3306,2.4216,2.5254,2.5581,2.5623,2.5455,2.5581,2.808,3.4792,4.1724,4.9034,5.6874,6.3949,6.9037,7.1278,6.5129,5.9212,5.4684,5.6004,5.8942,6.3395,6.788,7.1963,7.5568,7.7918,7.9645,8.0703,8.1582,8.209,8.2304,8.3008,8.3359,8.3398,8.4062,8.4687,8.5156,8.4453,8.4453,8.4804,8.3047,7.9258,7.4375,7.1758,6.9609,6.7656,6.5234,6.5273,6.55,5.9087,5.6823,5.6011,5.2026,4.828,0.0,0.0,0.0,0.0,0.0,0.0,0.0,0.0,0.0,0.0,0.0,0.0,0.0,0.0,0.0,0.0,0.0,0.0,0.0,6.383,6.9964,7.5533,7.9759,8.2701,8.433,8.4181,8.5022,8.567,8.5824,8.6329,8.6829,8.7098,8.7671,8.8017,8.8179,8.8209,0.0,8.9402,8.944,8.9825,9.071,9.0017,8.9517,8.9171,0.0,0.0,8.7944,8.7055,8.6748,8.6863,8.5978,8.5247,8.4593,8.3708,8.2554,8.1323,8.117,8.1016,8.0746,7.9862,7.9554,7.9438,0.0,2.3816,2.4651,2.5533,2.5697,2.5699,2.5699,2.5699,2.7812,3.3662,3.9257,4.507,5.137,5.7505,6.1384,6.1907,5.8098,5.5543,5.5201,5.8796,6.346,6.9058,7.3437,7.6953,7.9531,8.1367,8.2539,8.2969,8.3398,8.3828,8.4258,8.4687,8.5117,8.5586,8.6015,8.6445,8.6836,8.6406,8.6445,8.6758,8.5898,8.375,8.0664,7.7187,7.5078,7.3711,7.1523,7.0586,6.9716,6.5389,6.2976,6.1233,5.8242,5.5093,5.1748,0.0,0.0,0.0,0.0,0.0,0.0,0.0,0.0,0.0,0.0,0.0,0.0,0.0,0.0,5.1949,5.6214,0.0,6.5678,7.0786,7.4784,7.8762,8.3022,8.5445,8.6757,8.6795,8.7483,8.8325,8.921,8.9325,8.9636,9.0482,9.0594,9.0787,9.1175,9.121,9.1402,9.179,9.1402,9.1595,9.2441,9.121,9.0556,9.0556,8.971,8.9094,8.8709,8.8248,8.8055,8.8017,8.7594,8.694,8.6017,8.4324,8.2593,8.1093,8.1093,8.1093,8.1054,8.0592,8.0439,8.04,0.0,2.3933,2.4888,2.5574,2.5691,2.5693,2.5703,2.5697,2.7409,3.2103,3.629,4.0665,4.5346,5.0292,5.2631,5.1066,5.1952,5.3876,5.7015,6.1939,6.7771,7.4492,7.8594,8.1523,8.3281,8.4844,8.5703,8.5898,8.5898,8.625,8.6953,8.7109,8.7578,8.8242,8.8437,8.8594,8.8711,8.8554,8.8594,8.8711,8.8203,8.7578,8.6484,8.2304,8.0117,7.8984,7.7109,7.4219,7.1119,6.9949,6.7044,6.3745,6.2882,6.106,5.8187,5.3206,5.1445,0.0,0.0,0.0,0.0,0.0,0.0,0.0,0.0,4.7509,5.0527,5.2516,5.6137,6.0473,6.5474,6.9001,7.2608,7.6919,7.8985,8.1574,8.5873,8.7372,8.8371,8.9363,9.0017,9.1018,9.2592,9.2095,9.2249,9.3597,9.3095,9.3015,9.3669,9.3672,9.371,9.371,9.3092,9.313,9.3941,9.2441,9.171,9.1672,9.0825,8.9979,8.9171,8.9017,8.9017,8.9171,8.8825,8.8094,8.6978,8.4593,8.2708,8.1323,8.117,8.1093,8.1093,8.1093,8.1093,8.1093,0.0,2.4443,2.5587,2.5679,2.5685,2.5691,2.57,2.5694,2.6978,3.0535,3.4042,3.7534,4.103,4.478,4.6668,4.5819,5.2676,5.7892,5.9758,6.6865,7.3749,7.9883,8.2812,8.5117,8.6875,8.7812,8.8633,8.9414,8.9414,8.9492,8.9609,9.0351,9.0781,9.0898,9.1679,9.2461,9.3125,9.2344,9.2461,9.2969,9.0664,8.9648,8.9179,8.5664,8.3281,8.1562,7.9101,7.4922,7.0689,7.1286,6.856,6.5317,6.7437,6.6478,6.3663,5.9188,5.6379,5.3569,4.8226,4.637,4.6229,4.7612,4.7935,4.9258,0.0,5.5861,5.7013,6.0181,6.3589,6.6397,6.7859,7.2668,7.6929,7.8479,8.2609,8.6126,8.7666,8.9244,9.0744,9.2168,9.2249,9.2595,9.348,9.348,9.348,9.3672,9.3633,9.3595,9.371,9.371,9.371,9.371,9.3595,9.398,9.4826,9.3903,9.3403,9.3403,9.2595,9.1748,9.0902,9.0133,9.021,9.0825,8.9363,8.7786,8.6094,8.4324,8.3016,8.2093,8.1362,8.1093,8.1093,8.1093,8.1093,8.1093,0.0,0.0,2.5691,2.5707,2.572,2.5691,2.5699,2.5698,2.6397,2.8307,3.0624,3.2849,3.4721,3.8045,4.0196,4.0354,4.831,5.5108,5.9329,6.8314,7.6211,8.2265,8.5469,8.7695,8.8945,8.9765,9.0625,9.1523,9.1523,9.1758,9.2265,9.2656,9.3086,9.3594,9.3945,9.4336,9.4648,9.4258,9.4336,9.457,9.3476,9.2109,9.0508,8.8047,8.4492,8.0469,7.789,7.4492,0.0,6.9908,6.793,6.6166,6.725,6.5949,6.3436,6.06,5.7309,5.3617,4.9436,4.8382,4.8847,5.0499,5.2745,5.5574,5.9485,6.1771,6.377,6.6205,6.9244,7.2091,7.3937,7.713,8.0354,0.0,8.5081,8.7202,8.9266,8.929,8.9562,9.0623,9.0582,9.1518,9.421,9.4441,9.4672,9.5172,9.5211,9.5211,9.5211,9.5211,9.5211,9.5211,9.4711,9.4864,9.5749,9.4403,9.3941,9.4441,9.3133,9.2326,9.1941,9.1056,9.0594,9.0402,8.921,8.7709,8.5978,8.4286,8.3093,8.2208,8.14,8.1093,8.1093,8.1093,8.1093,8.1093,0.0,0.0,0.0,2.5697,2.5715,2.5689,2.5697,2.5504,2.5659,2.6548,2.7906,2.9221,3.0338,3.2867,3.5009,3.6285,4.3683,5.1273,5.8275,6.7572,7.6055,8.3281,8.6875,8.9453,9.1054,9.2187,9.3164,9.4023,9.4023,9.4453,9.5312,9.5312,9.5781,9.6601,9.6601,9.6601,9.6601,9.6367,9.625,9.6172,9.5469,9.3789,9.1328,8.8125,8.3789,7.8984,7.6172,7.25,6.8711,6.7108,6.5506,6.4356,6.5291,6.4403,6.2599,6.0652,5.6864,5.2758,5.025,5.0377,5.1687,5.3822,5.7567,6.1459,6.445,6.7405,7.004,7.203,7.4399,7.6746,7.8823,8.0631,8.2747,8.5735,8.6847,8.804,9.0145,8.9402,8.8623,8.8623,8.8312,8.9367,9.2595,9.3941,9.498,9.5865,9.6172,9.6288,9.6288,9.6288,9.6288,9.6288,9.5672,9.5672,9.6288,9.5057,9.4595,9.498,9.3518,9.2826,9.2787,9.1941,9.0825,8.9556,8.894,8.7709,8.5978,8.4555,8.3439,8.2593,8.1747,8.1285,8.1093,8.1093,8.1093,8.1093,0.0,0.0,0.0,0.0,2.5715,2.5687,2.5687,2.4993,2.476,2.5611,2.6535,2.769,2.9342,3.0314,3.1884,3.4471,4.0205,4.7704,5.7221,6.4408,7.289,8.3164,8.6875,9.0273,9.3711,9.5469,9.6758,9.7539,9.7539,9.8008,9.8867,9.8867,9.9297,10.0117,10.0117,10.0117,10.0117,9.9258,9.8867,9.8672,9.6172,9.414,9.1836,8.5078,8.0859,7.8086,7.4609,6.8476,6.2109,6.2876,6.0913,5.8726,6.2055,6.3076,6.249,5.9979,5.5552,5.1479,5.134,5.2563,5.4718,5.815,6.2106,6.6289,7.0468,7.3144,7.5467,7.8006,7.9131,7.9939,8.0862,8.2401,8.3971,8.5312,8.7662,8.9482,8.9955,8.9965,8.9185,8.7113,8.63,8.6372,0.0,9.1325,9.4095,9.498,9.5826,9.6288,9.6288,9.6288,9.6288,9.6288,9.6288,9.6288,9.6288,9.6249,9.5826,9.498,9.4095,9.3672,9.3633,9.2826,9.1095,8.8748,8.8709,8.7709,8.6055,8.5209,8.4362,8.3478,8.2593,8.1785,8.1093,8.1093,8.1093,8.1093,0.0,0.0,0.0,0.0,0.0,2.5024,2.5609,2.5461,2.5386,2.565,2.6913,0.0,0.0,0.0,0.0,0.0,3.8696,4.4651,5.1349,6.1472,7.0078,7.6484,8.3906,8.8984,9.125,9.3594,9.5469,9.6914,9.7422,9.7851,9.8125,9.8125,9.8281,9.8594,9.9179,9.9101,9.8594,9.8867,9.8008,9.6367,9.4922,9.1601,8.7031,8.2969,7.7381,7.1275,0.0,6.4918,6.1328,5.8733,5.7122,5.638,5.7519,5.748,5.6504,5.392,5.3552,5.3972,5.3994,5.7348,6.1525,6.4447,6.8788,7.3047,7.5625,7.7524,7.9021,7.9891,7.9191,7.8507,7.8767,7.8332,7.9394,8.4055,8.6025,8.8053,9.1285,9.1239,8.954,8.5974,8.5691,0.0,0.0,0.0,0.0,9.3941,9.4941,9.5672,9.6288,9.6288,9.6288,9.6288,9.6288,9.6288,9.6288,9.6288,9.6134,9.5865,9.4403,9.3403,9.2864,9.2018,9.0556,8.8709,8.8709,8.7709,8.5978,8.4593,8.3862,8.3439,8.2054,8.1323,8.1093,8.1093,8.1093,8.1093,0.0,0.0,0.0,0.0,0.0,0.0,0.0,0.0,0.0,0.0,0.0,0.0,0.0,0.0,0.0,0.0,0.0,4.0836,4.6948,5.5509,6.2998,6.8905,7.6208,8.0897,8.2617,8.5193,8.718,8.8622,9.1015,9.25,9.3164,9.4687,9.5742,9.6367,9.7265,9.75,9.7265,9.7187,9.5702,9.3199,9.1406,8.7421,8.2146,7.8317,7.3077,0.0,6.3056,6.0998,5.9799,5.6422,5.5088,5.4771,5.4463,5.3994,5.3327,5.2277,5.4411,5.7372,5.8644,6.292,6.7676,7.031,7.414,7.7617,7.9062,8.0312,8.0797,7.9544,7.8185,7.6838,7.5619,7.518,7.6726,8.1813,8.3862,8.6442,9.1012,9.0156,8.8078,8.5574,8.5113,8.4291,0.0,0.0,0.0,9.221,9.3749,9.4903,9.5788,9.6134,9.6288,9.6288,9.6288,9.6288,9.6288,9.6288,9.6134,9.5826,9.5018,9.3864,9.2479,9.221,9.0864,8.8709,8.8709,8.7709,8.6017,8.4939,8.4132,8.3478,8.2401,8.1631,8.1093,8.1093,8.1093,8.1093,0.0,0.0,0.0,0.0,0.0,0.0,0.0,0.0,0.0,0.0,0.0,0.0,0.0,0.0,0.0,0.0,0.0,0.0,4.3962,4.7097,5.237,6.0682,6.4575,6.7321,6.9023,7.1616,7.3367,7.4234,7.9246,8.2578,8.4414,8.8476,9.1289,9.2969,9.3867,9.4726,9.5351,9.3789,9.1598,8.8919,8.5622,8.1718,7.7178,7.1343,6.8027,6.5576,5.8961,5.7035,5.7348,5.5786,5.4728,5.3908,5.2975,5.278,5.3249,5.5049,5.7968,6.1437,6.4974,6.9054,7.2951,7.5584,7.8047,8.0039,8.0898,8.1445,8.0854,7.744,7.6352,7.502,7.1634,7.3071,7.5692,7.8757,8.1563,8.4974,8.9567,8.7461,8.5664,0.0,0.0,0.0,0.0,0.0,0.0,9.0086,0.0,9.4018,9.5018,9.5865,9.6288,9.6288,9.6288,9.6288,9.6288,9.6288,9.5865,9.5057,9.5865,9.4941,9.2595,9.3287,9.1825,8.8709,8.8709,8.7709,8.6094,8.6017,8.5016,8.3593,8.3516,8.2477,8.1093,8.1093,8.1093,8.1093,0.0,0.0,0.0,0.0,0.0,0.0,0.0,0.0,0.0,0.0,0.0,0.0,0.0,0.0,0.0,0.0,0.0,0.0,3.7923,4.3643,4.8425,5.1954,5.9059,6.3475,6.4619,6.7766,6.9818,7.0697,7.3275,7.511,7.6277,7.7321,7.8386,7.9492,8.1053,8.1477,8.112,8.1987,8.0852,7.8386,7.6857,7.3665,6.953,6.6696,6.3325,5.9816,5.7372,5.5772,5.4767,5.4429,5.4619,5.4708,5.3182,5.405,5.608,5.8414,6.1573,6.5173,6.9254,7.3552,7.7456,8.0039,8.1172,8.1719,8.1914,8.0582,7.8687,7.6534,7.3348,7.0516,6.9007,6.911,7.1436,7.757,8.1738,8.6222,9.2069,9.3281,0.0,9.0195,0.0,8.9506,8.7454,8.79,0.0,0.0,9.1814,9.3056,9.5826,9.6172,9.6288,9.6288,9.6288,9.6288,9.6288,9.6288,9.6172,9.5942,9.5518,9.4634,9.3364,9.2979,9.1287,8.8709,8.8709,8.7709,8.6017,8.4747,8.3978,8.3478,8.2208,8.1477,8.1093,8.1093,8.1093,8.1093,0.0,0.0,0.0,0.0,0.0,0.0,0.0,0.0,0.0,0.0,0.0,0.0,0.0,0.0,0.0,0.0,0.0,0.0,0.0,3.8778,4.2064,4.4202,4.9613,5.2964,5.39,5.6901,5.8905,5.9801,6.3007,6.5215,6.6511,6.8027,6.9399,7.0665,7.1997,7.2553,7.2518,7.3462,7.2408,0.0,0.0,6.6898,6.3828,6.1694,5.9592,5.7557,5.5561,5.4429,5.4078,5.5691,5.6308,5.6497,5.7031,5.9006,6.1638,6.4172,6.764,7.1389,7.453,7.8555,8.2148,8.3164,8.3437,8.2929,8.1039,7.9442,7.7229,7.3183,7.0308,6.7681,6.4908,6.5863,6.8791,7.3984,7.9411,8.5239,9.1836,9.3281,9.3359,9.2539,9.2539,0.0,9.0008,9.0195,9.1229,0.0,9.2357,9.2979,9.5749,9.6172,9.6288,9.6288,9.6288,9.6288,9.6288,9.6288,9.6288,9.6288,9.5403,9.4518,9.3672,9.2864,9.1095,8.8709,0.0,8.7709,8.6017,8.5093,8.4247,8.3516,8.2554,8.1747,8.1093,8.1093,8.1093,8.1093,0.0,0.0,0.0,0.0,0.0,0.0,0.0,0.0,0.0,0.0,2.6359,0.0,0.0,0.0,0.0,0.0,0.0,0.0,0.0,0.0,3.566,3.8054,3.9767,4.103,4.1792,4.4184,4.5779,4.6487,5.12,5.4336,5.5989,5.8999,6.1353,6.3075,6.3865,6.4704,6.5446,6.5638,6.4427,6.2354,6.1725,6.0532,5.8945,0.0,5.6205,5.6386,5.3397,5.2727,5.3852,5.7875,5.8987,5.9212,6.2479,6.5403,6.8086,7.0781,7.4409,7.7954,7.9882,8.332,8.6172,8.5429,8.4883,8.3434,7.9174,7.7845,7.5648,6.9072,6.7602,6.5957,6.1009,6.3735,6.7596,7.0264,7.6558,8.3543,9.0575,9.1015,9.1562,9.4062,9.3711,9.2969,9.2226,9.2312,9.3186,9.5045,9.3746,9.3672,9.5441,9.6057,9.6326,9.6288,9.6288,9.6288,9.6288,9.6288,9.6288,9.6288,9.5518,9.4672,9.3672,9.2979,9.1248,8.8863,0.0,0.0,8.6247,8.6017,8.5093,8.3747,8.3632,8.2708,8.14,8.1285,8.1246,8.1246,0.0,0.0,0.0,0.0,0.0,0.0,0.0,0.0,0.0,0.0,2.6233,2.5925,0.0,0.0,0.0,0.0,0.0,0.0,0.0,0.0,0.0,3.6284,3.8026,3.9,3.9156,4.0942,4.1656,4.1128,4.3428,4.5066,4.6086,4.6676,4.7876,4.9598,5.047,5.0927,5.1162,5.262,5.2975,5.262,5.3166,5.3232,5.2926,5.2445,0.0,0.0,5.0626,5.0073,5.075,5.7679,6.1417,6.3527,6.5576,6.8476,7.1758,7.5117,7.7578,7.996,8.3125,8.5586,8.7226,8.7109,8.4883,8.1794,7.8129,7.5034,7.1797,6.7749,6.6242,6.4691,6.164,6.4532,6.8524,7.1758,7.7464,8.4159,9.1786,9.3504,9.4687,9.6562,9.6797,9.6758,9.6601,9.5639,0.0,0.0,0.0,9.5326,9.6326,9.648,9.648,9.6326,9.6288,9.6288,9.6288,9.6288,9.6288,9.6288,9.6134,9.5249,9.371,9.3557,9.2095,8.9671,8.8979,0.0,8.7055,8.567,8.4939,8.4593,8.3862,8.3401,8.3093,8.2362,8.2093,8.2016,0.0,0.0,0.0,0.0,0.0,0.0,0.0,2.5031,2.5531,2.6736,2.6591,2.6396,2.6381,2.7549,2.8307,0.0,0.0,0.0,0.0,0.0,0.0,3.4545,3.6255,3.7386,3.782,3.9491,4.0209,3.9802,0.0,4.1691,4.2967,4.2031,4.2559,4.4253,4.4663,4.4832,4.4943,4.6709,4.7467,4.7562,4.8861,4.9648,4.9992,4.9541,0.0,0.0,4.9644,5.0299,5.1678,5.7625,6.1412,6.4559,6.9919,7.3945,7.6835,7.759,8.0654,8.3828,8.414,8.7461,9.0508,8.914,8.5859,8.1834,7.7419,7.3349,6.9655,6.6581,6.5542,6.4536,6.2338,6.4743,6.7903,7.0416,7.3974,7.9826,8.9436,9.0491,9.2152,9.7401,9.7752,9.7732,9.8122,9.7082,9.6916,0.0,0.0,9.7037,9.6821,9.6608,9.6403,9.6288,9.6288,9.6288,9.6288,9.6288,9.6288,9.6288,9.5826,9.4941,9.3672,9.3249,9.1672,8.9286,8.9325,0.0,8.7363,8.7017,8.6324,8.5478,8.5055,8.4362,8.3555,8.3131,8.2978,8.2862,0.0,0.0,0.0,0.0,0.0,0.0,0.0,2.4966,2.5853,2.7016,2.741,2.7491,2.7289,2.8064,2.8433,0.0,0.0,0.0,0.0,0.0,0.0,0.0,0.0,0.0,3.6664,0.0,0.0,3.9008,3.9173,0.0,0.0,0.0,0.0,0.0,4.1557,4.1563,4.1671,4.3426,4.4149,0.0,0.0,4.7093,4.7637,0.0,0.0,0.0,0.0,5.019,5.2255,5.718,6.045,6.3867,7.1942,7.6598,7.9019,7.8767,8.2584,8.6674,8.5546,8.9609,9.3554,9.0937,8.664,8.1717,7.6688,7.1993,6.8047,6.5531,6.527,6.4846,6.2881,6.4737,6.7121,6.8739,7.0651,7.5721,8.6647,8.7198,8.9436,9.7404,9.7981,9.8018,9.8632,9.8018,0.0,0.0,0.0,0.0,9.7332,9.6668,9.6326,9.6288,9.6288,9.6288,9.6288,9.6288,9.6288,9.6288,9.5595,9.4826,9.3941,9.3133,9.1556,8.9517,8.9787,0.0,0.0,8.8479,8.7786,8.6401,8.6594,8.5747,8.4401,8.4209,8.4132,8.3978,0.0,0.0,0.0,0.0,0.0,0.0,0.0,2.4479,2.5379,2.7775,2.8817,2.9062,2.8281,2.8971,2.8828,0.0,0.0,0.0,0.0,0.0,0.0,0.0,0.0,0.0,0.0,0.0,0.0,3.636,3.7155,0.0,0.0,0.0,0.0,0.0,0.0,3.8857,3.8957,4.0714,0.0,0.0,0.0,0.0,0.0,0.0,0.0,0.0,0.0,4.715,4.8982,5.5662,5.9139,6.172,6.8024,7.1267,7.3646,7.8239,8.2193,8.5863,8.9567,9.2773,9.4453,9.1836,8.6172,8.0076,7.5651,7.063,6.6387,6.452,6.5334,6.56,6.3075,6.4753,6.6988,6.847,7.0891,7.594,8.5545,8.7569,9.0423,9.6743,9.8289,9.8865,9.8979,9.9364,9.9479,0.0,0.0,0.0,9.8233,9.7169,9.648,9.6326,9.6288,9.6288,9.6288,9.6288,9.6288,9.6288,9.6211,9.5711,9.4826,9.398,9.3056,9.2056,9.0556,0.0,0.0,8.8979,8.8132,8.7363,8.8132,8.7863,8.694,8.617,8.5863,8.5632,0.0,0.0,0.0,0.0,0.0,0.0,2.2679,2.3274,2.4368,2.6428,2.7471,2.8103,2.8281,2.909,2.8906,2.7147,0.0,0.0,0.0,0.0,0.0,0.0,0.0,0.0,0.0,0.0,3.4703,3.5215,3.5564,0.0,0.0,0.0,0.0,0.0,0.0,3.7765,3.7854,3.9092,0.0,0.0,0.0,0.0,0.0,0.0,0.0,0.0,0.0,0.0,4.8857,5.2606,5.5381,5.7953,6.1898,6.3982,6.6034,7.1774,7.8835,8.4941,8.5651,9.1168,9.5976,9.2851,8.6094,7.9334,7.6041,7.0013,6.5076,6.4817,6.5722,6.6182,6.5157,6.5794,6.7208,6.9367,6.8846,7.0986,7.8998,7.957,8.252,9.1637,9.3543,9.5752,0.0,0.0,10.0095,0.0,0.0,0.0,10.0094,9.8518,9.7287,9.648,9.648,9.6403,9.6288,9.6288,9.6288,9.6288,9.6288,9.5826,9.498,9.4095,9.2979,9.1672,9.0979,0.0,0.0,9.0133,8.9402,8.8248,8.9094,8.8286,8.6632,8.6824,8.6555,8.594,0.0,0.0,0.0,0.0,0.0,2.1503,2.1747,2.2533,2.3748,2.5467,2.6466,2.7216,2.783,2.8463,2.8239,2.6757,2.6836,0.0,0.0,0.0,0.0,0.0,0.0,0.0,0.0,0.0,3.3431,3.4335,3.4331,3.5075,0.0,0.0,3.581,3.6823,0.0,0.0,0.0,0.0,0.0,0.0,0.0,0.0,0.0,0.0,0.0,0.0,0.0,0.0,0.0,0.0,0.0,5.5217,5.7507,5.9007,6.1128,6.7442,7.5006,8.1625,8.2992,8.9059,9.4531,9.2383,8.5696,7.8991,7.6379,6.969,6.4279,6.5086,6.5708,6.612,6.6105,6.6338,6.7277,6.9642,6.8189,6.8953,7.5269,7.5078,7.7809,8.7362,8.9119,9.2072,0.0,9.988,0.0,0.0,0.0,0.0,0.0,9.9723,9.8331,9.7027,9.6743,9.648,9.6288,9.6288,9.6288,9.6288,9.6288,9.5826,9.498,9.4095,9.3056,9.1902,0.0,0.0,0.0,9.1056,9.0364,8.9133,8.9979,8.9017,8.7286,8.7902,8.7786,8.7248,0.0,0.0,0.0,0.0,0.0,0.0,2.1662,2.2533,2.3715,2.5476,2.6472,2.6984,2.701,2.7008,2.6667,2.5781,2.6484,0.0,0.0,0.0,0.0,0.0,0.0,0.0,0.0,0.0,3.2539,3.3394,3.3394,3.3864,3.4724,3.3827,3.4336,3.5976,0.0,0.0,0.0,0.0,0.0,0.0,0.0,0.0,3.9818,0.0,0.0,0.0,0.0,0.0,0.0,0.0,0.0,0.0,0.0,5.7575,6.0277,6.7256,7.1147,7.5094,8.3706,8.7383,8.8984,8.9804,8.4771,7.8922,7.6301,6.9652,6.424,6.5025,6.5196,6.5211,6.5219,6.5934,6.7121,6.8903,6.985,7.1887,7.6365,7.7043,7.9266,8.5231,8.612,8.8472,9.4134,9.8604,0.0,0.0,0.0,0.0,0.0,10.0604,9.9541,9.7921,9.706,9.648,9.6288,9.6288,9.6288,9.6288,9.6288,9.5826,9.498,9.4095,9.3672,0.0,0.0,0.0,0.0,9.1556,9.0671,8.9979,9.0864,9.0633,8.9863,8.9863,9.0017,9.0129,0.0,0.0,0.0,0.0,0.0,0.0,0.0,2.1165,2.1803,2.2878,2.3778,2.48,2.5976,2.6127,2.6236,2.656,2.6285,0.0,0.0,0.0,0.0,0.0,0.0,0.0,0.0,3.1286,3.1986,3.3409,3.342,3.4161,3.5564,3.5306,3.5154,3.5115,3.4804,3.4531,0.0,0.0,0.0,0.0,0.0,3.7851,3.8163,0.0,0.0,0.0,0.0,0.0,0.0,0.0,0.0,0.0,0.0,0.0,0.0,6.3625,6.8319,7.3068,7.7053,8.0641,8.3213,8.2974,7.8558,7.3748,7.1704,6.7489,6.3891,6.3511,6.3899,6.431,6.4239,6.5009,6.6182,6.7942,6.9473,7.0694,7.1612,7.4801,7.9091,8.4553,9.2534,9.8332,0.0,0.0,0.0,0.0,0.0,0.0,0.0,10.1111,9.972,9.8494,9.7418,9.6749,9.6519,9.6365,9.6288,9.6288,9.5711,9.5249,9.4941,9.3518,0.0,0.0,0.0,0.0,0.0,9.1325,9.0364,8.921,9.0633,9.0056,8.8551,8.971,8.9975,8.9667,0.0,0.0,0.0,0.0,0.0,0.0,0.0,2.0539,2.0984,2.2146,2.2496,2.3435,2.5468,2.5429,2.5545,2.6442,2.6007,0.0,0.0,0.0,0.0,0.0,0.0,0.0,3.0841,3.0574,3.1077,3.242,3.2748,3.3646,3.5002,3.5025,3.507,3.5146,3.4487,3.4099,0.0,0.0,0.0,0.0,3.6365,3.7026,3.7338,0.0,0.0,0.0,0.0,0.0,0.0,0.0,0.0,0.0,0.0,0.0,0.0,0.0,6.4881,6.9172,7.2871,7.5585,7.7531,7.7989,7.4928,7.1299,6.9561,6.6454,6.3783,6.32,6.3293,6.341,6.3379,6.4648,6.6063,6.715,6.9046,7.0236,6.9733,7.2754,7.7221,8.317,0.0,0.0,0.0,0.0,0.0,0.0,0.0,0.0,0.0,10.1094,9.9844,9.8828,9.7635,9.6867,9.6596,9.6403,9.6134,9.5788,9.5249,9.4672,9.4018,9.2979,0.0,0.0,0.0,0.0,0.0,9.1556,9.0787,8.9863,9.1014,9.0514,8.9277,9.0479,9.0698,9.0475,0.0,0.0,0.0,0.0,0.0,0.0,0.0,2.0539,2.1182,2.2812,2.2344,2.2851,2.5341,2.4843,2.4682,2.5623,2.5694,0.0,0.0,0.0,0.0,0.0,0.0,0.0,3.076,3.0013,3.0049,3.0986,3.1814,3.2673,3.3562,3.3571,3.4432,3.5837,3.4234,3.3893,0.0,0.0,0.0,0.0,3.5964,3.6477,0.0,0.0,0.0,0.0,0.0,0.0,0.0,0.0,0.0,0.0,0.0,0.0,0.0,0.0,0.0,0.0,0.0,7.1807,7.1835,7.4403,7.3129,7.0775,6.9118,6.6157,0.0,6.372,6.3104,6.2574,6.257,6.4715,6.6486,6.6397,6.86,7.0328,7.0377,7.1883,0.0,0.0,9.0774,0.0,0.0,0.0,0.0,0.0,0.0,0.0,0.0,10.0781,9.9883,9.9023,9.7717,9.6897,9.6596,9.6403,9.5903,9.5095,9.498,9.4095,9.2595,9.2479,9.2441,0.0,0.0,0.0,0.0,9.2091,9.1668,9.1467,9.1775,9.1741,9.1467,9.1789,9.2043,9.2222,0.0,0.0,0.0,0.0,0.0,0.0,0.0,0.0,0.0,0.0,2.1992,2.2613,2.4492,2.3938,2.4014,0.0,0.0,0.0,0.0,0.0,0.0,0.0,0.0,0.0,3.0833,3.0057,3.0638,3.281,3.2979,3.3877,3.5385,3.5399,3.5252,3.4979,3.4585,3.4131,0.0,0.0,0.0,0.0,3.5739,3.6132,0.0,0.0,0.0,0.0,4.124,4.324,0.0,0.0,0.0,0.0,0.0,0.0,0.0,0.0,6.0875,6.2352,6.5319,0.0,6.6221,6.8124,6.7626,6.6389,0.0,6.4416,6.343,6.2095,6.1668,6.1746,6.2352,6.4143,6.5465,6.5364,6.7602,6.9823,7.1174,7.9071,0.0,8.761,0.0,0.0,0.0,0.0,0.0,0.0,0.0,0.0,0.0,10.0781,9.9883,9.9023,9.7882,9.7184,9.6902,9.6634,9.6365,9.598,9.4634,9.3903,9.3672,9.2172,9.171,0.0,0.0,0.0,9.2083,9.174,9.1291,9.0857,9.1624,9.1587,9.1193,9.1863,9.2304,9.2498,0.0,0.0,0.0,0.0,0.0,0.0,0.0,0.0,0.0,0.0,2.2065,2.2656,2.4761,2.4207,0.0,0.0,0.0,0.0,0.0,0.0,0.0,0.0,0.0,2.8623,3.0838,3.0018,3.044,3.2221,3.3012,3.3871,3.4835,3.6024,3.615,3.5252,3.4468,3.3857,0.0,0.0,0.0,3.4798,3.5664,0.0,0.0,0.0,0.0,0.0,4.0208,4.2159,0.0,4.6319,4.801,4.9865,0.0,0.0,0.0,0.0,5.9813,6.108,6.24,6.306,6.355,6.4427,6.4278,6.3779,6.3335,6.3184,6.2913,6.1978,6.1475,6.1475,6.2293,6.3962,6.5306,6.5576,6.7217,6.9511,7.251,0.0,8.7425,9.0609,9.6195,0.0,0.0,0.0,0.0,0.0,0.0,0.0,0.0,9.9961,9.9297,9.8437,9.7851,9.7415,9.7188,9.6506,9.5942,9.5405,9.4097,9.3328,9.3018,9.2016,9.1677,0.0,0.0,0.0,9.2018,9.1488,9.1295,9.1369,9.1559,9.1592,9.1611,9.2177,9.2479,9.2617,0.0,0.0,0.0,0.0,0.0,0.0,0.0,0.0,0.0,0.0,0.0,0.0,0.0,0.0,0.0,0.0,0.0,0.0,0.0,0.0,0.0,0.0,2.8164,2.8903,3.0648,2.9899,3.0007,3.1016,3.2619,3.3477,3.3629,3.6144,3.6891,3.6113,3.4666,3.3857,3.3593,3.375,3.414,3.4766,3.5664,0.0,0.0,0.0,0.0,0.0,0.0,0.0,0.0,4.4647,4.6035,4.7861,5.1163,0.0,0.0,0.0,0.0,0.0,6.0856,6.1764,6.2556,6.289,6.2936,6.2848,6.2736,6.2662,6.2528,6.2322,6.1834,6.1601,6.2012,6.3896,6.5553,6.5959,6.7693,7.0502,7.4781,8.0581,8.6394,9.1703,0.0,0.0,0.0,0.0,0.0,0.0,0.0,0.0,0.0,9.8984,9.8594,9.7734,9.7695,9.7617,9.7461,9.6331,9.5368,9.4617,9.3658,9.2819,9.213,9.1983,9.1872,9.1793,0.0,0.0,9.1809,9.1119,9.1317,9.1992,9.1484,9.1703,9.2274,9.2514,9.2617,9.2617,0.0,0.0,0.0,0.0,0.0,0.0,0.0,0.0,0.0,0.0,0.0,0.0,0.0,0.0,0.0,0.0,0.0,0.0,0.0,0.0,0.0,2.8278,2.7578,2.8001,2.9745,2.9584,3.0284,3.188,3.2895,3.3793,3.4537,3.642,3.7212,3.7102,3.6829,3.589,3.456,3.5308,3.5267,3.4766,3.5664,0.0,0.0,0.0,0.0,0.0,0.0,0.0,0.0,4.5376,4.6522,4.7772,5.0428,0.0,0.0,0.0,0.0,0.0,5.9832,6.0848,6.1978,6.4225,6.4769,6.4488,6.3751,6.3596,6.3136,6.1637,6.1813,6.1833,6.0442,6.3609,6.592,6.4441,0.0,7.5746,0.0,0.0,8.9532,0.0,0.0,0.0,0.0,0.0,0.0,0.0,0.0,0.0,0.0,9.8984,9.8594,9.7734,9.7695,9.7695,9.7656,9.6587,9.5845,9.5472,9.3935,9.3219,9.3213,9.2309,9.1717,9.1363,0.0,9.0624,9.0325,9.0011,9.0517,9.1445,9.1328,9.1791,9.2551,9.2576,9.2617,9.2617,0.0,0.0,0.0,0.0,0.0,0.0,0.0,0.0,0.0,0.0,0.0,0.0,0.0,0.0,0.0,0.0,0.0,0.0,0.0,0.0,2.718,2.7577,2.8124,2.9207,3.0902,3.0908,3.1532,3.281,3.3679,3.4306,3.4732,3.5988,3.6855,3.7253,3.6325,3.5463,3.4747,3.5116,3.5077,3.4837,0.0,0.0,0.0,0.0,0.0,0.0,0.0,0.0,0.0,0.0,4.5209,4.6352,4.889,0.0,0.0,0.0,0.0,0.0,5.8939,6.0222,6.1462,6.2827,6.3449,6.3783,6.3891,6.392,6.3648,6.2859,6.3379,6.3589,6.2305,6.5669,6.9172,7.07,0.0,8.0156,0.0,0.0,0.0,0.0,0.0,0.0,0.0,0.0,0.0,0.0,0.0,0.0,9.832,9.8281,9.8125,9.7695,9.7265,9.7031,9.7031,9.5625,9.5109,9.5387,9.324,9.2234,9.2299,9.1309,9.075,9.0586,0.0,9.005,8.9969,8.9793,9.034,9.1289,9.1289,9.1836,9.2617,9.2617,9.2617,9.2617,0.0,0.0,0.0,0.0,0.0,0.0,0.0,0.0,0.0,0.0,0.0,0.0,0.0,0.0,0.0,0.0,0.0,0.0,0.0,2.6322,2.6874,2.7299,2.8587,2.9984,3.1476,3.1884,3.243,3.3115,3.4189,3.4895,3.5311,3.5985,3.6654,3.7246,3.5893,3.5071,3.4703,3.4901,3.4998,3.5149,0.0,0.0,0.0,0.0,0.0,0.0,0.0,0.0,0.0,0.0,0.0,0.0,0.0,0.0,0.0,5.2492,5.4901,5.7052,5.8255,5.9821,6.1191,6.1555,6.1701,6.2104,6.3456,6.3592,6.3603,6.417,6.4857,6.4986,6.3909,6.7223,0.0,7.6825,8.0776,0.0,0.0,0.0,0.0,0.0,0.0,0.0,0.0,0.0,0.0,0.0,0.0,0.0,9.7734,9.7695,9.7617,9.7422,9.6836,9.6406,9.6211,9.4687,9.4258,9.4883,9.2656,9.1484,9.1289,9.0625,9.0078,8.9687,8.9531,8.9531,8.9685,8.9508,9.0197,9.1289,9.1289,9.1836,9.2617,9.2617,9.2617,9.2617,0.0,0.0,0.0,0.0,0.0,0.0,0.0,0.0,0.0,0.0,0.0,0.0,0.0,0.0,0.0,0.0,0.0,0.0,0.0,2.5777,2.6537,2.813,2.8324,2.8842,2.977,3.1298,3.2118,3.2196,3.3886,3.5519,3.7102,3.7187,3.724,3.7297,3.717,3.6228,3.4742,3.5561,3.5918,3.6007,3.6908,0.0,0.0,0.0,0.0,0.0,0.0,0.0,0.0,0.0,0.0,0.0,0.0,0.0,4.8991,5.1639,5.3591,5.5457,5.7928,5.9874,6.1391,6.2206,6.0763,5.9828,6.2414,6.2349,6.2418,6.4733,6.5271,6.4804,6.3106,6.6384,7.1606,7.8383,8.3125,0.0,0.0,0.0,0.0,0.0,0.0,0.0,0.0,0.0,0.0,0.0,0.0,0.0,9.7695,9.7695,9.7344,9.6601,9.6523,9.6094,9.5312,9.4375,9.3945,9.3984,9.2969,9.207,9.1289,9.125,9.0312,8.8789,8.8789,8.8789,8.8789,8.8785,8.9762,9.1289,9.1289,9.1836,9.2617,9.2617,9.2617,9.2617,0.0,0.0,0.0,0.0,0.0,0.0,0.0,0.0,0.0,0.0,0.0,2.4961,2.5184,0.0,0.0,0.0,0.0,0.0,0.0,2.6207,2.7049,2.8246,2.8803,2.9508,3.0323,3.2043,3.3448,3.4527,3.5179,3.5843,3.6481,3.6477,3.6489,3.6509,3.7063,3.6637,3.5583,3.7028,3.6983,3.6116,3.7539,3.8514,0.0,0.0,0.0,0.0,0.0,0.0,0.0,0.0,4.3129,4.4047,4.5208,4.6858,4.8677,5.014,5.2503,5.4996,5.6464,5.8587,6.0244,5.9551,5.918,6.0367,6.5663,6.6234,6.6507,6.9639,7.1156,7.1696,7.1043,7.1819,7.4702,8.1092,8.6211,0.0,0.0,0.0,0.0,0.0,0.0,0.0,0.0,0.0,0.0,0.0,0.0,0.0,0.0,9.7226,9.6797,9.6523,9.5469,9.4726,9.4375,9.3008,9.2265,9.2265,9.1953,9.1054,8.9687,8.9687,8.9062,8.7969,8.7969,8.8242,8.875,8.9297,9.0234,9.1367,9.1914,9.2304,9.2656,9.3203,9.3086,9.2773,0.0,0.0,0.0,0.0,0.0,0.0,0.0,0.0,2.5662,0.0,0.0,0.0,0.0,2.5155,0.0,0.0,0.0,0.0,2.5697,2.6248,2.698,2.7835,2.8732,2.9706,3.0794,3.2517,3.4114,3.5584,3.6152,3.627,3.5981,3.6013,3.6137,3.647,3.7296,3.7374,3.6903,3.8085,3.7889,3.6944,3.8124,3.8747,0.0,0.0,0.0,0.0,0.0,0.0,0.0,0.0,4.2627,4.3428,4.433,4.6327,4.8516,4.9302,5.2,5.4877,5.5596,5.7466,5.8978,5.8056,5.8479,6.0945,6.8063,6.8474,6.8622,7.3199,7.4839,7.5579,7.5841,7.5408,0.0,0.0,0.0,0.0,0.0,0.0,0.0,0.0,0.0,0.0,0.0,0.0,0.0,0.0,0.0,0.0,0.0,9.6797,9.625,9.5703,9.4258,9.3359,9.3086,9.1601,9.0742,9.0469,9.0742,9.0117,8.8711,8.8984,8.8537,8.7526,8.7682,8.8117,8.875,8.957,9.0625,9.1758,9.2383,9.2617,9.2695,9.3594,9.3515,9.3203,0.0,0.0,0.0,0.0,0.0,0.0,0.0,0.0,2.5701,2.5712,2.5693,0.0,0.0,0.0,0.0,0.0,0.0,0.0,2.5687,2.5703,2.6087,2.6978,2.7835,2.9081,3.0755,3.2519,3.3849,3.4705,3.6453,3.6843,3.5991,3.5981,3.6462,3.7338,3.8159,3.8544,3.8572,3.8545,3.8555,3.8594,3.8594,3.9064,3.9858,0.0,0.0,0.0,0.0,0.0,0.0,0.0,4.2615,4.344,4.433,4.6312,4.8485,4.9335,5.2043,5.4901,5.5577,5.6629,5.7728,5.8433,5.8908,6.1229,6.8846,6.8037,6.7609,7.4492,7.5273,7.4922,7.5742,7.5937,0.0,0.0,0.0,0.0,0.0,0.0,0.0,0.0,0.0,0.0,0.0,0.0,0.0,0.0,0.0,0.0,0.0,9.6484,9.5664,9.3945,9.3047,9.2187,9.1328,9.0429,8.9531,8.8711,8.957,8.9531,8.8711,8.9609,8.9079,8.7512,8.8122,8.8515,8.875,8.9414,9.0859,9.2617,9.2617,9.2617,9.2695,9.3594,9.3906,9.4023,0.0,0.0,0.0,0.0,0.0,0.0,0.0,0.0,2.564,2.5707,2.5707,0.0,0.0,0.0,0.0,0.0,0.0,0.0,2.5703,2.5701,2.6086,2.6966,2.7825,2.8803,2.994,3.2207,3.412,3.5603,3.6147,3.6264,3.5991,3.5988,3.6144,3.6456,3.8497,3.8721,3.7724,3.9569,3.9315,3.7734,3.8359,3.8713,3.8986,0.0,0.0,0.0,0.0,0.0,0.0,0.0,0.0,0.0,4.3595,4.5866,4.8474,4.8623,5.0333,5.2198,5.2262,5.3148,5.4496,5.6536,5.9937,6.4001,6.8678,6.9471,7.0987,7.7295,7.8866,7.8633,7.7109,7.8281,0.0,0.0,0.0,0.0,0.0,0.0,0.0,0.0,0.0,0.0,0.0,0.0,0.0,0.0,0.0,0.0,0.0,9.5351,9.4414,9.3906,9.2461,9.1562,9.1289,8.9844,8.8945,8.8711,8.8398,8.8125,8.789,8.8717,8.8389,8.7242,8.7396,8.7871,8.8606,9.0186,9.1523,9.2656,9.3281,9.3125,9.2773,9.4258,9.4414,9.4101,0.0,0.0,0.0,0.0,0.0,0.0,2.5628,2.5628,2.5632,2.5701,2.5694,2.5694,0.0,0.0,0.0,2.5691,2.5697,0.0,2.5689,2.5689,2.6074,2.6955,2.7816,2.9032,3.0565,3.2087,3.3729,3.5486,3.5837,3.5837,3.5486,3.5837,3.6375,3.7097,3.8956,3.9422,3.8844,4.0439,4.0003,3.8341,3.8876,3.9051,3.9082,0.0,0.0,0.0,0.0,0.0,0.0,0.0,0.0,0.0,4.3208,4.5195,4.7439,4.7719,4.9119,5.0612,5.0798,5.1696,5.3452,5.7022,6.1142,6.5826,7.1655,7.4701,7.7575,8.1851,8.2917,8.2612,8.1054,8.1445,0.0,0.0,0.0,0.0,0.0,0.0,0.0,0.0,0.0,0.0,0.0,0.0,0.0,0.0,0.0,0.0,0.0,9.3945,9.3086,9.2383,9.1015,9.0273,9.0273,8.8906,8.8047,8.7695,8.7226,8.6797,8.6523,8.8013,8.8171,8.7242,8.7242,8.7666,8.8521,9.0139,9.1289,9.2187,9.3047,9.3047,9.2812,9.457,9.4883,9.4646,0.0,0.0,2.559,2.5619,0.0,0.0,2.5679,2.5679,2.5683,2.5691,2.5691,2.5694,0.0,0.0,0.0,2.571,2.5712,2.5712,2.5712,2.5704,2.6087,2.6945,2.7927,2.9533,3.1923,3.197,3.2753,3.4354,3.5369,3.5561,3.4937,3.5757,3.6992,3.8639,3.9524,4.0357,4.1093,4.1085,4.0595,3.9812,3.9816,3.9751,3.9816,4.0684,0.0,0.0,0.0,0.0,0.0,0.0,0.0,0.0,4.3015,4.439,4.5873,4.6744,4.8207,4.9737,5.0678,5.1797,5.3975,5.9254,6.3166,6.8047,7.7066,8.225,8.5517,8.6801,8.684,8.6537,8.6131,8.4961,0.0,0.0,0.0,0.0,0.0,0.0,0.0,0.0,0.0,0.0,0.0,0.0,0.0,0.0,0.0,0.0,0.0,9.2461,9.1601,8.9922,8.9023,8.8554,8.8476,8.7656,8.6875,8.6094,8.6094,8.5664,8.4961,8.7383,8.81,8.7464,8.7385,8.7743,8.8482,8.9554,9.0508,9.1406,9.2344,9.2656,9.2812,9.4453,9.5076,9.5268,0.0,0.0,2.559,2.561,0.0,0.0,2.5675,2.5671,2.5636,2.5691,2.564,2.5636,2.5687,2.5694,0.0,2.5697,2.5704,2.5707,2.5697,2.5704,2.6094,2.6942,2.8431,2.9803,3.1055,3.1064,3.1265,3.1621,3.3886,3.5558,3.6672,3.6868,3.7825,3.9494,4.0351,4.085,4.103,4.102,4.0559,3.9812,3.9809,3.9746,3.9816,4.0684,4.0946,0.0,0.0,0.0,0.0,0.0,0.0,0.0,4.2974,4.4432,4.5993,4.6706,4.731,4.8255,5.0467,5.1824,5.437,6.1612,6.9953,7.7812,8.3281,8.578,8.6442,8.4753,8.7492,8.9174,8.58,8.6518,0.0,0.0,0.0,0.0,0.0,0.0,0.0,0.0,0.0,0.0,0.0,0.0,0.0,0.0,0.0,0.0,9.2578,9.1289,9.0078,8.9023,8.8203,8.7422,8.6758,8.5898,8.5351,0.0,8.5195,8.5078,8.4922,8.6172,8.6906,8.7143,8.6468,8.7012,8.8482,8.9554,9.0508,9.1445,9.3008,9.3203,9.2734,9.3789,9.4067,9.4026,0.0,0.0,0.0,0.0,0.0,0.0,0.0,0.0,2.6727,2.6307,2.6611,2.6567,2.5796,2.6034,0.0,0.0,2.5691,2.5691,2.564,2.5691,2.6275,2.7511,2.9203,3.0338,3.0802,3.0813,3.1016,3.1409,3.3161,3.5104,3.7196,3.762,3.8916,4.089,4.096,4.1006,4.0999,4.1011,4.0822,4.0403,4.0376,4.0361,4.0354,4.0835,4.0974,4.0926,4.0878,0.0,0.0,0.0,0.0,0.0,0.0,0.0,4.4766,4.5472,4.5819,4.6577,4.9625,5.2402,5.6914,6.7265,7.5742,8.2265,8.4961,8.6875,8.7578,8.5818,8.8241,8.9882,8.7219,0.0,0.0,0.0,0.0,0.0,0.0,0.0,0.0,0.0,0.0,0.0,0.0,0.0,0.0,0.0,0.0,9.0234,9.0703,8.9101,8.7969,8.7539,8.6679,8.6054,8.5586,8.5117,8.4687,8.4297,8.4297,8.4297,8.4297,8.5195,8.5976,8.664,8.6182,8.6744,8.804,8.8998,8.9883,9.082,9.2148,9.2617,9.2693,9.3419,9.3619,9.3666,0.0,0.0,0.0,0.0,0.0,0.0,0.0,0.0,0.0,2.7238,2.7745,2.7662,2.626,2.6572,2.6606,0.0,0.0,0.0,2.5585,2.5948,2.6766,2.8121,2.9849,3.0789,3.0779,3.0789,3.1144,3.185,3.281,3.4865,3.7858,3.8598,4.0361,4.283,4.2152,4.1707,4.1434,4.1524,4.1373,4.1104,4.1052,4.1006,4.1006,4.0984,4.0999,4.0982,4.0907,4.0868,4.0787,4.0792,0.0,0.0,0.0,0.0,4.3351,4.416,4.4559,4.547,4.9024,5.4216,6.1367,7.2812,7.9687,8.3828,8.4687,8.6523,8.789,8.7383,8.8594,8.9453,8.8437,0.0,0.0,0.0,0.0,0.0,0.0,0.0,0.0,0.0,0.0,0.0,0.0,0.0,0.0,0.0,0.0,8.8125,8.8242,8.6797,8.5898,8.5742,8.5039,8.4609,8.4453,8.4453,8.4101,8.3398,8.3398,8.3398,8.3398,8.4101,8.5,8.5976,8.582,8.6328,8.7344,8.8164,8.8984,8.9883,9.0898,9.1758,9.2455,9.3098,9.3283,9.3435,0.0,0.0,0.0,0.0,0.0,0.0,0.0,0.0,0.0,0.0,2.8134,2.813,2.7887,2.7303,2.687,2.6744,2.6043,2.5615,2.5585,0.0,0.0,2.8208,2.9824,3.0714,3.073,3.072,3.0787,3.0909,3.2499,3.5741,4.0402,4.0563,4.2391,4.5502,4.5444,4.4625,4.3257,4.3272,4.2422,4.111,4.1013,4.1006,4.1006,4.1007,4.0991,4.0982,4.0927,4.0848,4.0787,4.0792,4.0796,0.0,0.0,0.0,4.3351,4.4168,4.4889,4.6219,4.9795,5.8987,6.875,7.3555,7.9219,8.3828,8.4687,8.5156,8.5586,8.625,8.7695,8.8398,0.0,0.0,0.0,0.0,0.0,0.0,0.0,0.0,0.0,0.0,0.0,0.0,0.0,0.0,0.0,0.0,8.6719,8.5742,8.6484,8.5625,8.4726,8.3984,8.3828,8.3398,8.2656,8.2656,8.2578,8.2461,8.2461,8.2461,8.2461,8.2578,8.3515,8.5039,8.4297,8.4883,8.6445,8.7304,8.8125,8.9023,9.0664,9.1367,9.1562,9.2408,9.2459,9.2245,0.0,0.0,0.0,0.0,0.0,0.0,0.0,0.0,0.0,0.0,0.0,2.9299,2.8316,2.7878,2.7444,2.6928,2.6539,2.6549,2.7035,2.7307,2.7882,2.8835,2.9569,3.0218,3.0672,3.0704,3.0704,3.0717,3.24,3.5607,4.0199,4.2208,4.4667,4.7434,4.7028,4.5896,4.4355,4.4837,4.3792,4.1812,4.2273,4.187,4.1006,4.1038,4.1023,4.1194,4.2567,4.2413,4.174,4.3203,4.3039,4.228,4.2667,0.0,0.0,0.0,4.4983,4.6698,5.1702,5.926,6.6953,7.2383,7.7617,8.1914,8.375,8.4531,8.4883,8.4765,8.5312,8.5781,0.0,0.0,0.0,0.0,0.0,0.0,0.0,0.0,0.0,0.0,0.0,0.0,0.0,0.0,0.0,0.0,8.5078,8.4531,8.5429,8.4179,8.3476,8.3594,8.3125,8.2696,8.2314,8.218,8.2128,8.2148,8.2265,8.2304,8.2304,8.2304,8.2969,8.414,8.3789,8.4609,8.6211,8.6601,8.7812,8.9453,8.9726,9.0742,9.1992,9.1797,9.1788,9.2006,0.0,0.0,0.0,0.0,0.0,0.0,0.0,0.0,0.0,0.0,0.0,3.0307,2.9012,0.0,0.0,0.0,2.6817,2.686,2.7502,2.7337,2.7668,2.8728,2.9383,2.9906,3.0343,3.0576,3.0653,3.0661,3.2399,3.5309,3.9335,4.2588,4.5638,4.831,4.8798,4.7743,4.5601,4.6941,4.5748,4.3104,4.4618,4.3792,4.1805,4.3169,4.2999,4.2346,4.5092,4.4939,4.3673,4.542,4.5079,4.3879,4.3518,4.3877,0.0,0.0,0.0,4.7083,5.2375,5.7519,6.2978,6.9491,7.4609,7.8828,8.1914,8.3281,8.3867,0.0,8.3437,8.3476,0.0,0.0,0.0,0.0,0.0,0.0,0.0,0.0,0.0,0.0,0.0,0.0,0.0,0.0,0.0,0.0,8.375,8.3554,8.4219,8.3008,8.2617,8.3242,8.2656,8.2312,8.2282,8.2179,8.2065,8.207,8.2226,8.2304,8.2304,8.2304,8.2656,8.3281,8.3281,8.4258,8.5859,8.5859,8.7265,8.9336,8.9101,9.0234,9.1914,9.1523,9.1616,9.1957,0.0,0.0,0.0,0.0,0.0,0.0,0.0,0.0,0.0,0.0,0.0,3.0764,3.0686,2.9206,2.8194,2.8155,2.6627,2.5688,2.5727,2.719,2.7723,2.7062,2.9264,0.0,2.9389,3.0164,3.0604,3.0607,3.2399,3.5055,3.8443,4.1072,4.4189,4.763,5.1677,5.1152,4.7431,4.9963,4.8624,4.5033,4.8327,4.7164,4.4019,4.8896,4.8257,4.5126,4.8438,4.8515,4.6929,4.6236,4.5917,4.5506,4.3879,4.3877,4.4392,0.0,0.0,0.0,5.0334,5.4283,5.8909,6.4438,6.9648,7.457,7.8906,8.0586,8.164,8.3281,8.2929,8.2383,0.0,0.0,0.0,0.0,0.0,0.0,0.0,0.0,0.0,0.0,0.0,0.0,0.0,0.0,0.0,0.0,8.2851,8.2383,8.2422,8.2344,8.2304,8.2383,8.2304,8.2304,8.2301,8.2277,8.2259,8.2265,8.2304,8.2304,8.2304,8.2304,8.2304,8.2383,8.2383,8.3359,8.4961,8.4961,8.6015,8.7773,8.9336,9.0039,9.0312,9.1914,9.2241,9.188,0.0,0.0,0.0,0.0,0.0,0.0,0.0,0.0,0.0,0.0,0.0,0.0,0.0,2.8895,2.796,2.741,2.6792,2.7138,2.8779,2.8384,2.8443,2.9225,2.9574,2.9859,3.0122,3.0432,3.0866,3.1418,3.2645,3.4999,3.8403,4.0994,4.3743,4.6717,5.052,5.1014,4.9247,5.1857,5.0509,4.6787,4.912,4.8451,4.6229,4.7554,4.7377,4.6653,0.0,0.0,4.5823,4.6639,4.7559,4.8023,4.579,4.6288,4.7323,4.5654,4.562,4.6509,4.8546,5.151,5.5266,6.0483,6.4488,6.8258,7.2611,7.5216,7.7187,7.8945,8.0,8.0781,8.1367,0.0,0.0,0.0,0.0,0.0,0.0,0.0,0.0,0.0,0.0,0.0,0.0,0.0,0.0,0.0,0.0,8.2304,8.2304,8.2304,8.2304,8.2304,8.2304,8.2226,8.2109,8.2104,8.2119,8.2106,8.2098,8.2187,8.2304,8.2304,8.2304,8.2304,8.2304,8.3281,8.4883,8.4883,8.6211,8.832,8.8945,8.9844,9.0898,9.1523,9.1812,9.1957,0.0,0.0,0.0,2.8189,0.0,3.0798,3.0793,3.0784,3.0774,3.0769,0.0,0.0,0.0,0.0,2.8272,2.7405,2.7333,2.8018,2.9726,2.9013,2.8876,2.9683,2.9743,2.9881,3.0172,3.0452,3.1012,3.1882,3.2744,3.4817,3.7967,4.0276,4.2704,4.5366,4.8564,5.0002,5.019,5.2753,5.1725,4.8632,5.1505,5.1108,4.9042,5.103,5.0899,0.0,0.0,0.0,0.0,4.7398,4.8848,5.0145,4.6991,4.7008,4.7863,4.6121,4.5586,4.597,4.7625,4.9394,5.1991,5.7148,6.021,6.3098,6.7432,7.0797,7.3576,7.5623,7.7539,7.9219,8.0351,8.1054,8.1445,8.1445,8.1914,8.2187,8.1914,0.0,0.0,0.0,0.0,0.0,0.0,0.0,0.0,0.0,0.0,0.0,8.2304,8.2304,8.2304,8.2304,8.2304,8.2226,8.2109,8.2104,8.2095,8.2117,8.2094,8.2187,8.2304,8.2304,8.2304,8.2304,8.2304,8.3125,8.4492,8.4765,8.6054,8.7969,8.8789,8.9844,9.0937,9.1523,9.1812,9.1957,2.5601,2.7001,2.8194,2.8184,2.9649,3.0793,3.0808,3.0808,3.0759,3.0703,0.0,0.0,0.0,0.0,0.0,2.8329,2.8196,2.8133,2.817,2.8908,2.8969,2.8117,2.9717,3.0211,2.936,3.0161,3.1012,3.1835,3.2735,3.4536,3.7073,3.8753,4.0966,4.3598,4.6183,4.8301,5.0073,5.2658,5.2387,5.0611,5.5553,5.5124,5.2344,5.9754,0.0,0.0,5.5732,5.4684,0.0,4.8554,4.9659,5.1792,4.7558,4.6012,4.5742,4.5659,4.5624,4.6009,0.0,0.0,0.0,5.438,5.6898,5.9226,6.3553,6.7422,7.0835,7.3455,7.5586,7.7539,7.9219,7.957,7.957,7.9531,8.1054,8.1914,8.1094,8.1679,8.2226,8.2226,8.2226,8.2226,8.2226,8.2226,8.2226,0.0,8.2265,8.2265,8.2265,8.2265,8.2265,8.2304,8.2265,8.2265,8.2304,8.2304,8.2289,8.2293,8.2289,8.2304,8.2304,8.2304,8.2304,8.2304,8.2304,8.2773,8.3633,8.4531,8.539,8.6445,8.9023,9.0,9.0195,9.1953,9.2326,9.1899,2.5613,2.7006,2.8199,2.8208,2.9624,3.0798,3.0793,3.0784,3.0774,0.0,0.0,0.0,2.993,2.9074,2.8679,2.9045,2.9045,2.9292,2.9862,3.0117,3.0139,2.9872,3.0327,3.0482,3.025,3.0491,3.1322,3.2821,3.3054,3.4865,3.8006,3.8471,4.0383,4.3549,4.4919,4.6484,4.8335,5.1568,5.2559,5.2037,5.3486,5.45,0.0,0.0,0.0,0.0,0.0,5.181,5.1291,0.0,5.0984,5.4849,5.2225,4.9235,4.6645,4.6579,4.6527,4.6876,4.8529,0.0,0.0,0.0,0.0,0.0,5.5913,5.9511,6.3315,6.6281,6.9787,7.3047,7.5547,7.6523,7.6758,7.6094,7.8476,8.0351,8.0078,8.0273,8.0429,8.0429,8.0429,8.0429,8.0429,8.0429,8.0429,0.0,8.1015,8.1367,8.1367,8.1367,8.164,8.2265,8.1679,8.164,8.2304,8.2148,8.2178,8.2288,8.2162,8.2153,8.2304,8.2304,8.2304,8.2304,8.2304,8.2422,8.2773,8.4297,8.539,8.6445,8.9023,9.0,9.0195,9.1953,9.2416,9.2194,2.6042,2.72,2.8235,2.8646,2.9824,3.0764,3.0774,3.0764,3.0753,0.0,0.0,0.0,3.0041,2.9536,2.9446,2.9913,2.992,3.0132,3.0582,3.0582,3.0613,3.0586,3.0586,3.0586,3.0586,3.0964,3.1835,3.3188,3.3548,3.5311,3.8355,3.8297,4.0131,4.349,4.4005,4.5211,4.7056,4.978,5.1178,5.17,5.3518,0.0,0.0,5.6257,5.6704,0.0,0.0,0.0,5.4103,5.042,5.0984,0.0,0.0,0.0,4.8105,4.8022,4.8218,4.8528,4.876,4.8966,4.9433,5.0718,0.0,0.0,5.2627,5.5399,5.8572,6.1219,6.4595,6.7826,7.0279,7.1308,7.2037,7.2734,7.4492,7.6445,7.8398,7.9258,7.9687,7.9687,7.9687,7.9687,7.9687,7.9687,7.9687,7.9687,8.0156,8.0469,8.0469,8.1133,8.1445,8.1211,8.1445,8.1601,8.1758,8.1992,8.2187,8.2304,8.2182,8.2206,8.2304,8.2304,8.2304,8.2304,8.2304,8.2304,8.2422,8.3789,8.4883,8.5937,8.8867,9.0,9.0195,9.1953,9.2422,9.2258,0.0,2.7326,2.817,2.9091,2.9998,3.0594,3.0697,3.0691,3.0685,0.0,3.0775,3.0853,3.0853,3.0853,3.0834,3.0824,3.0839,3.0824,3.0768,3.0845,3.0892,3.0892,3.0892,3.0892,3.0892,3.165,3.2463,3.3343,3.4032,3.5746,3.8316,3.8306,4.0149,4.3402,4.3461,4.4463,4.6192,4.7903,4.9184,5.0438,5.4484,5.634,0.0,0.0,6.1403,6.005,5.8474,5.8476,5.8514,5.4033,5.1053,0.0,0.0,0.0,0.0,0.0,5.0085,0.0,0.0,0.0,0.0,0.0,5.0672,0.0,5.1934,5.3689,5.5654,5.7555,5.9997,6.2393,6.433,6.5139,6.6361,6.8952,6.964,7.1483,7.625,7.8203,7.914,7.914,7.914,7.918,7.9258,7.9297,7.9336,7.9414,7.9492,7.9609,7.9687,8.1094,8.1211,7.9765,8.1133,8.1601,8.1015,8.1758,8.2187,8.2304,8.2304,8.2304,8.2304,8.2304,8.2304,8.2304,8.2304,8.2304,8.2383,8.3359,8.4219,8.5234,8.8554,8.9922,9.0195,9.1953,9.2461,9.2224,2.5708,2.6442,2.7291,2.8204,2.9123,2.9958,3.0586,3.0697,3.0691,3.0678,3.1307,3.1728,3.1746,3.1767,3.1767,3.1732,3.1685,3.1678,3.1662,3.2288,3.2696,3.2696,3.2696,3.2696,3.2696,3.2851,3.3373,3.427,3.4352,3.5766,3.8373,3.8326,4.016,4.3461,4.351,4.4463,4.6192,4.7883,4.9148,5.0295,5.3202,0.0,5.7546,5.777,5.8504,5.9295,5.8281,5.8476,5.9256,5.9508,5.6142,5.2399,0.0,0.0,0.0,5.0079,0.0,0.0,0.0,0.0,0.0,0.0,0.0,0.0,4.9765,5.099,5.2624,5.4111,5.6368,5.8604,6.052,6.1505,6.2243,6.2737,6.518,6.889,7.4334,7.539,7.5586,7.5586,7.5586,7.5859,7.6562,7.664,7.6914,7.7656,7.8359,7.9023,7.9687,7.9414,7.9375,7.9687,7.9414,7.9805,8.0976,8.1172,8.1601,8.2304,8.2304,8.2304,8.2304,8.2304,8.2304,8.2304,8.2304,8.2304,8.2422,8.3984,8.4765,8.5156,8.789,8.9375,9.0195,9.1953,9.2578,9.25,2.6009,2.6412,2.7141,2.8519,2.9108,2.9705,3.0555,3.0711,3.0859,3.128,3.211,3.2661,3.2661,3.2636,3.2629,3.2601,3.4148,3.4567,3.3269,3.4822,3.5249,3.3968,3.3502,3.3269,3.3269,3.3653,3.405,3.4481,3.5291,3.657,3.8364,3.9159,4.0942,4.3469,4.3906,4.5792,4.8561,4.8172,4.9515,5.2113,5.4281,0.0,5.8518,5.9425,6.0332,6.1022,6.0583,6.0156,5.9961,6.1196,5.8156,0.0,0.0,5.5126,5.2884,0.0,5.1761,5.1047,0.0,0.0,0.0,4.9328,0.0,0.0,0.0,4.986,5.0837,5.1179,5.2532,5.3909,5.4906,5.5694,5.6687,5.8061,6.0104,6.2954,6.7282,7.0938,7.3242,7.3281,7.3672,7.4101,7.457,7.5,7.5625,7.6484,7.7344,7.8047,7.8437,7.8867,7.8906,7.8476,7.8867,7.9297,7.9765,8.0586,8.1211,8.164,8.2109,8.2304,8.2304,8.2304,8.2304,8.2304,8.2304,8.2304,8.2383,8.3711,8.4492,8.5195,8.8164,8.9609,9.0195,9.1953,9.2617,9.2578,2.6303,2.6419,2.6987,2.8822,2.9093,2.945,3.0528,3.0683,3.1025,3.1902,3.305,3.392,3.4244,3.4867,3.5055,3.4528,3.8058,3.9138,3.619,3.8119,3.8447,3.6394,3.4839,3.4022,3.4015,3.4659,3.4999,3.5002,3.6464,3.7732,3.884,4.0184,4.1811,4.3707,4.4533,4.7078,5.0518,4.8654,0.0,5.4295,0.0,5.7631,5.9288,6.179,6.307,6.3436,6.3119,6.1992,6.0781,6.1562,5.9222,5.6173,5.7449,5.6275,0.0,0.0,0.0,0.0,0.0,0.0,0.0,0.0,0.0,5.0047,0.0,0.0,0.0,4.915,4.9403,0.0,0.0,0.0,0.0,0.0,0.0,0.0,0.0,6.4947,0.0,7.0064,7.0887,7.1636,7.2187,7.3047,7.4101,7.5312,7.5898,7.6406,7.6914,7.8398,7.8594,7.7226,7.8515,7.8984,7.8515,7.9844,8.0664,8.1015,8.1719,8.2148,8.2304,8.2304,8.2304,8.2304,8.2304,8.2304,8.2383,8.3437,8.4258,8.5195,8.832,8.9726,9.0195,9.1758,9.2461,9.2578,2.5523,2.5597,2.6141,2.7868,2.8218,2.8798,3.0457,3.0704,3.1028,3.1903,3.4101,3.6171,3.7721,4.0548,4.1443,3.9254,4.4171,0.0,4.1596,4.2325,4.2782,4.251,3.8758,3.6658,3.6673,3.6751,3.6781,3.6789,3.7686,3.8993,4.0586,4.0726,4.2133,4.4583,4.5413,4.6962,4.901,4.9419,5.1716,0.0,5.6923,5.8204,0.0,6.1151,6.324,6.5038,6.3515,6.2383,6.168,0.0,6.0976,5.8733,0.0,5.8039,5.6552,5.3475,0.0,0.0,0.0,0.0,0.0,0.0,5.2232,0.0,0.0,0.0,4.8871,4.8846,0.0,0.0,0.0,0.0,0.0,0.0,0.0,0.0,5.2703,5.6587,6.0457,6.3079,6.4169,6.5667,6.8085,6.9336,7.0976,7.3398,7.2969,7.3594,7.5937,7.6953,7.7383,7.7226,7.7383,7.7812,7.8476,7.8672,7.9531,8.1015,8.1094,8.1562,8.2304,8.2304,8.2304,8.2304,8.2304,8.2304,8.2422,8.4062,8.4804,8.5078,8.7031,8.8672,9.0117,9.1094,9.1953,9.2617,2.6244,2.6163,2.6746,2.8512,2.8853,2.9264,3.0451,3.1515,3.2672,3.4082,3.6093,3.8838,4.2559,0.0,0.0,0.0,0.0,4.8615,0.0,0.0,4.4916,4.4846,4.0848,3.8821,3.9305,3.8352,3.7864,3.7855,3.8656,3.9674,4.0876,4.1862,4.3129,4.4666,4.5595,4.8102,5.1541,0.0,5.3452,0.0,0.0,0.0,0.0,6.3647,6.4314,6.4648,6.3437,6.2422,6.1523,0.0,5.9961,0.0,0.0,0.0,0.0,0.0,0.0,0.0,0.0,0.0,0.0,0.0,0.0,0.0,5.0316,0.0,4.8479,0.0,0.0,0.0,0.0,0.0,0.0,0.0,4.817,0.0,0.0,0.0,5.4206,0.0,0.0,0.0,6.5098,6.5293,6.633,6.899,6.9397,7.043,7.2539,7.4101,7.5156,7.5664,7.6172,7.6601,7.6992,7.8008,7.9101,8.0234,8.0742,8.1445,8.2304,8.2304,8.2304,8.2304,8.2304,8.2304,8.2422,8.4179,8.4883,8.5078,8.6836,8.8515,9.0156,9.1562,9.2304,9.2617,2.7533,2.7232,2.7558,2.9109,2.9404,2.9761,3.0831,3.2679,3.4824,3.7325,3.9377,4.2948,4.9067,5.0361,0.0,0.0,5.4452,5.3596,0.0,0.0,4.7389,4.6563,4.2821,0.0,4.2276,4.0412,3.9652,4.0157,4.0005,4.047,4.1524,4.2792,4.393,4.5015,4.619,4.9213,5.3324,0.0,5.55,6.1873,6.1264,6.309,6.6166,6.6262,6.5601,6.4531,6.3672,6.2969,6.2109,6.0,6.0273,0.0,5.9453,0.0,0.0,0.0,0.0,0.0,5.6544,0.0,0.0,0.0,0.0,0.0,0.0,0.0,0.0,0.0,0.0,0.0,0.0,0.0,0.0,0.0,0.0,4.6776,0.0,4.7537,0.0,0.0,0.0,0.0,0.0,6.0838,6.1637,6.4578,6.5244,6.6694,6.9433,7.1442,7.3008,7.414,7.5312,7.5898,7.5898,7.7383,7.8621,7.9635,8.0303,8.1211,8.2226,8.2265,8.2304,8.2304,8.2304,8.2304,8.2422,8.4179,8.4883,8.5117,8.707,8.8711,9.0156,9.1406,9.2187,9.2617,2.9156,2.8581,2.8255,2.9171,2.9381,2.9994,3.1676,3.4134,3.7313,4.1551,4.4345,0.0,0.0,0.0,0.0,0.0,0.0,6.2817,5.5253,0.0,5.1011,4.841,4.5131,4.4161,0.0,4.3285,4.283,4.4598,4.2073,4.1704,4.3303,4.3323,4.4214,4.5944,4.7583,4.9932,5.2752,5.4273,5.802,6.2936,6.292,6.4997,6.8083,0.0,6.7006,6.543,6.457,0.0,0.0,6.3164,6.3437,0.0,0.0,0.0,0.0,0.0,0.0,0.0,0.0,0.0,0.0,5.8542,0.0,0.0,0.0,0.0,4.8359,0.0,0.0,0.0,0.0,0.0,0.0,0.0,0.0,0.0,0.0,0.0,0.0,0.0,0.0,0.0,0.0,5.5913,5.7456,6.0939,6.0453,6.2282,6.7399,6.9464,7.1328,7.3086,7.4922,7.5898,7.5898,7.6797,7.7989,7.9422,7.9647,8.0547,8.2031,8.2226,8.2304,8.2304,8.2304,8.2304,8.2422,8.4179,8.4883,8.5156,8.7695,8.9219,9.0,9.0078,9.1133,9.2617,3.2757,3.1158,2.9838,3.0172,3.0684,3.1833,3.4171,3.7693,4.1646,0.0,0.0,0.0,0.0,6.6349,6.7732,0.0,0.0,6.5652,6.1795,5.7773,0.0,0.0,0.0,4.9885,0.0,0.0,4.7378,4.908,4.5326,4.4646,4.6805,4.5071,4.482,4.5958,4.7132,4.9485,0.0,0.0,0.0,0.0,0.0,6.907,7.0336,0.0,0.0,6.6289,6.4805,6.4297,0.0,6.3281,6.3594,6.4101,6.289,6.2851,6.2928,6.1169,6.1559,0.0,0.0,0.0,6.4415,6.1296,0.0,0.0,0.0,0.0,0.0,0.0,0.0,0.0,0.0,0.0,0.0,0.0,0.0,0.0,0.0,0.0,0.0,0.0,0.0,0.0,0.0,0.0,5.3213,5.6152,5.7351,5.9204,6.2073,6.5857,6.8744,7.0468,7.3476,7.5039,7.5039,7.6484,7.794,7.9408,7.9478,8.0331,8.1821,8.2019,8.2109,8.2109,8.2226,8.2304,8.2422,8.4179,8.4883,8.5117,8.7109,8.8398,8.9297,9.0429,9.1601,9.2773,3.5514,3.3138,3.1002,3.0746,3.2889,3.536,3.7343,4.2883,0.0,0.0,5.5801,0.0,6.9913,0.0,7.3022,0.0,7.2422,6.8955,6.5307,6.2182,0.0,5.761,5.573,0.0,0.0,0.0,0.0,0.0,4.8349,4.7319,4.8564,4.6219,4.5568,4.6423,4.7636,4.9921,5.3141,5.6998,6.111,0.0,0.0,7.137,0.0,0.0,6.7832,6.7109,0.0,6.4961,6.5078,6.4219,6.4492,6.5078,6.4219,6.4258,6.4414,6.3281,6.3852,6.4911,6.501,6.6422,0.0,6.38,6.3798,0.0,5.8066,0.0,0.0,0.0,0.0,0.0,0.0,0.0,0.0,4.7782,4.571,4.4197,0.0,4.3882,0.0,0.0,0.0,0.0,0.0,4.9467,5.0101,5.2501,5.3874,5.5785,5.84,6.249,6.5818,6.8127,7.2066,7.4297,7.4609,7.6328,7.7909,7.9301,7.9374,8.0172,8.16,8.1817,8.1929,8.1992,8.2148,8.2226,8.2422,8.4179,8.4893,8.5064,8.6701,8.7843,8.8763,9.0263,9.1601,9.2771,3.7209,3.4411,3.1831,3.1086,3.5873,0.0,0.0,0.0,5.5996,0.0,6.4336,7.0028,7.536,7.6794,7.8019,7.9687,7.7383,0.0,6.6473,6.6654,0.0,0.0,5.8513,5.8557,5.6728,0.0,0.0,0.0,0.0,4.978,4.905,4.6985,4.6487,4.734,4.8963,5.1154,5.3871,5.8276,6.1797,6.4878,6.9963,7.1899,7.1719,7.096,6.9616,6.7929,6.6211,6.6172,6.6758,6.5898,6.6172,6.6758,6.5859,6.5586,6.5273,6.3555,6.3672,6.4375,6.4453,6.6211,6.7617,6.6133,0.0,0.0,0.0,0.0,5.6843,0.0,0.0,0.0,0.0,0.0,0.0,5.0063,4.6391,4.3322,0.0,0.0,0.0,0.0,0.0,0.0,4.7362,4.7452,4.8224,5.0054,5.0245,5.215,0.0,5.9494,6.2759,6.6128,7.0821,7.3671,7.4569,7.6288,7.7804,7.9104,7.9288,8.0061,8.1362,8.1593,8.1775,8.1989,8.199,8.2108,8.2421,8.414,8.4858,8.501,8.6505,8.7622,8.8583,8.9632,9.1093,9.2638,3.7313,3.4931,3.3373,0.0,3.8486,4.2144,0.0,0.0,0.0,0.0,6.4821,6.9186,7.6872,7.968,8.1167,8.1601,8.0273,0.0,0.0,0.0,0.0,6.681,6.5973,6.4498,6.2091,6.0066,0.0,6.0176,0.0,5.2738,5.4334,4.9897,4.796,4.8218,4.9234,5.1154,5.384,5.7591,6.2597,6.8287,7.1607,7.252,7.1861,0.0,7.0587,6.8756,6.6432,6.6172,6.6758,6.5898,6.6172,6.6758,6.5859,6.5586,6.539,6.4297,6.457,6.5547,6.6836,6.8086,6.8906,6.8515,6.8902,6.8726,0.0,0.0,0.0,0.0,0.0,0.0,0.0,0.0,0.0,0.0,0.0,0.0,0.0,0.0,0.0,4.2525,0.0,4.4106,4.5597,4.6351,4.7258,4.8417,4.9754,5.1275,5.2982,0.0,6.212,6.4233,6.9915,7.3308,7.4166,7.5892,7.7454,7.8849,7.8921,7.9715,8.117,8.1362,8.1523,8.1569,8.171,8.1816,8.1972,8.3687,8.4381,8.4531,8.6221,8.7784,8.9183,9.0128,9.1132,9.221,3.8795,3.6562,0.0,3.5811,0.0,0.0,4.8475,0.0,0.0,6.5166,6.8344,0.0,7.6214,8.0034,8.2304,8.2304,8.1758,0.0,7.793,0.0,0.0,7.1721,7.0715,6.8327,6.4223,6.2041,0.0,6.0047,0.0,5.3836,5.519,5.0996,4.9059,4.9123,4.9921,5.1502,5.3823,5.7749,6.3221,6.9392,7.1342,7.2236,0.0,7.2481,7.1215,6.9157,6.7399,6.6797,6.6836,6.6328,6.6484,6.6797,6.6328,6.6172,6.6055,6.5586,6.5781,6.6562,6.8281,6.9062,6.957,7.0351,7.0859,7.0625,6.8515,6.7676,6.6564,0.0,0.0,0.0,0.0,0.0,0.0,0.0,0.0,0.0,0.0,0.0,0.0,0.0,4.2235,4.3077,4.4034,4.4954,4.599,4.7294,4.8356,0.0,0.0,0.0,5.9241,6.2472,6.8122,7.2055,7.4111,7.6108,7.793,7.9442,7.9007,7.9631,8.1093,8.1208,8.1323,8.1393,8.1504,8.163,8.1824,8.3506,8.4204,8.4413,8.6413,8.7958,8.9123,9.0002,9.1218,9.2458,4.1254,3.9243,0.0,0.0,0.0,0.0,0.0,6.1529,0.0,6.8873,0.0,7.564,7.5385,7.9504,8.2344,8.2461,0.0,8.1054,7.8047,7.9922,7.9023,7.418,7.375,7.0937,6.5078,6.293,0.0,0.0,0.0,5.4191,5.4547,5.1552,5.0093,5.0015,5.0671,5.1982,5.3962,5.8484,6.3536,6.8704,7.0069,7.1542,7.2966,7.3142,7.1698,6.9474,6.8773,6.7812,6.6914,6.6914,6.6914,6.6914,6.6914,6.6914,6.6914,6.6914,6.6992,6.7422,6.9062,6.9531,6.9961,7.1601,7.1914,7.125,6.9023,6.7773,6.6562,6.4841,6.3514,6.2638,0.0,0.0,0.0,0.0,0.0,0.0,0.0,0.0,0.0,0.0,0.0,0.0,4.3118,4.379,4.4901,4.6455,4.6742,0.0,0.0,0.0,5.6,6.1164,6.6269,7.0706,7.4524,7.6569,7.843,8.0018,7.9152,7.9515,8.0939,8.1054,8.1208,8.1362,8.1362,8.1439,8.1778,8.3433,8.4247,8.4643,8.6945,8.8171,8.8786,8.9748,9.1364,9.2979,4.4366,0.0,0.0,0.0,0.0,5.9308,6.2044,6.3149,6.6249,7.3515,7.4686,7.6113,7.95,8.1305,8.2578,8.332,8.2695,0.0,0.0,0.0,0.0,7.7734,7.6211,7.3281,6.8594,6.4726,6.3461,0.0,0.0,5.6278,5.8869,5.4103,5.1502,5.0868,5.0913,5.2314,5.4946,5.9374,0.0,6.632,6.9411,7.1285,7.2266,7.2998,7.2133,7.0458,7.0312,6.8828,6.6914,6.6914,6.6914,6.6914,6.6914,6.6914,6.6914,6.6914,6.7422,6.8164,6.914,6.9922,7.0703,7.1758,7.1445,7.082,7.0351,6.9062,6.7689,6.665,6.4888,6.3376,6.2712,0.0,0.0,0.0,0.0,0.0,0.0,0.0,0.0,0.0,0.0,4.6359,0.0,4.4766,4.5417,0.0,0.0,0.0,0.0,0.0,5.6831,0.0,6.6491,0.0,0.0,0.0,7.7302,7.8806,7.8661,7.9054,8.0054,8.0785,8.1131,8.1131,8.1131,8.117,8.1323,8.3016,8.4516,8.5978,8.7786,8.8594,8.8863,9.0402,9.1672,9.2595,0.0,0.0,0.0,0.0,0.0,0.0,0.0,6.9639,0.0,7.5496,7.5501,7.6238,7.8757,8.0972,8.2461,8.289,8.2539,8.2304,8.2304,8.2304,8.1367,7.9219,7.793,0.0,7.0859,6.6094,6.4445,6.6096,0.0,0.0,5.8739,5.5747,5.3402,5.1721,5.1657,5.3597,5.6979,0.0,0.0,6.564,6.8318,7.0469,7.203,7.2477,7.1836,7.0625,7.0195,6.9258,6.8242,6.8242,6.7656,6.6992,6.7422,6.7265,6.6914,6.6914,6.7187,6.7812,6.9101,6.9765,7.0273,7.1133,7.1015,7.0586,7.0156,6.9101,6.7961,6.7063,6.5244,6.3337,6.1918,5.8081,0.0,0.0,0.0,0.0,0.0,0.0,0.0,0.0,0.0,0.0,0.0,0.0,0.0,0.0,0.0,0.0,0.0,0.0,5.4108,0.0,0.0,0.0,0.0,0.0,0.0,7.8034,7.8344,7.9169,8.0477,8.09,8.1093,8.1093,8.1093,8.1093,8.1246,8.2901,8.4593,8.6286,8.8017,8.8709,8.8902,9.0594,9.1748,9.2479,0.0,4.8317,0.0,0.0,5.8554,0.0,6.9607,7.5623,7.9092,7.746,7.7265,7.7578,7.8476,8.0781,8.2383,8.2578,8.2422,8.2304,8.2304,8.2304,8.1601,8.0039,7.918,7.6914,7.293,6.7773,6.5348,0.0,0.0,0.0,0.0,5.6925,5.5059,5.2094,0.0,0.0,0.0,0.0,6.1026,6.5634,6.7672,6.9883,7.1992,7.1992,7.1562,7.0898,7.0195,6.9883,6.9765,6.9961,6.8867,6.7539,6.8242,6.7851,6.7187,6.7187,6.7305,6.7734,6.9101,6.9765,7.0156,7.0586,7.0586,7.0234,6.9414,6.8555,6.7687,6.679,6.4999,6.2859,6.068,5.7405,0.0,0.0,0.0,0.0,0.0,0.0,0.0,0.0,0.0,0.0,4.5665,0.0,0.0,0.0,0.0,0.0,4.8205,0.0,0.0,0.0,0.0,6.6537,7.1313,0.0,7.6784,7.7807,7.8257,7.9323,8.0823,8.1016,8.1093,8.1093,8.1093,8.1285,8.1747,8.3054,8.4593,8.6286,8.8017,8.8709,8.8902,9.0594,9.1633,9.2249,0.0,0.0,0.0,0.0,0.0,0.0,0.0,7.6795,8.0194,8.1523,8.1719,8.2031,8.289,8.2578,8.2617,8.3398,8.2773,8.2304,8.2304,8.2304,8.1875,8.0937,8.0039,7.832,7.5586,7.0469,6.7461,0.0,0.0,0.0,0.0,5.7906,5.5938,0.0,0.0,0.0,0.0,5.8441,6.2207,6.5816,6.8359,7.043,7.1992,7.1992,7.1953,7.1875,7.1797,7.125,7.0703,7.1484,7.0625,6.918,6.9258,6.8711,6.8086,6.8086,6.8594,6.9219,6.9453,7.0625,7.1601,7.0898,7.0156,6.9375,6.8515,6.7656,6.6789,6.5894,6.411,6.1858,5.9072,5.9511,5.9027,0.0,0.0,0.0,0.0,0.0,0.0,0.0,0.0,0.0,0.0,5.0689,0.0,0.0,4.7157,0.0,0.0,0.0,0.0,6.1867,0.0,6.7051,7.574,7.3947,7.4857,7.843,7.8468,7.9015,7.9939,8.0746,8.1093,8.1093,8.1093,8.1939,8.3362,8.3516,8.4593,8.6286,8.8017,8.8709,8.8902,9.0594,9.1248,9.1441,0.0,0.0,0.0,0.0,0.0,0.0,0.0,7.949,8.1523,8.2226,8.2304,8.2617,8.3515,8.2812,8.2656,8.3515,8.2812,8.2304,8.2304,8.2304,8.1914,8.1054,8.0664,7.9531,7.75,7.3906,7.1324,0.0,0.0,0.0,0.0,0.0,0.0,0.0,0.0,5.6518,5.8642,6.0409,6.3174,6.664,6.9765,7.1719,7.2851,7.3359,7.3555,7.3476,7.2969,7.2578,7.2226,7.207,7.0859,6.9531,7.0039,6.9609,6.8945,6.8984,6.918,6.9484,6.9967,7.0637,7.0976,7.0039,6.9609,6.9091,6.771,6.7068,6.6322,6.4966,6.3085,6.1266,6.0012,5.9681,5.9518,0.0,0.0,0.0,0.0,0.0,0.0,0.0,0.0,5.0935,0.0,0.0,0.0,0.0,0.0,0.0,0.0,0.0,0.0,5.8355,0.0,6.6196,7.0821,7.3459,7.5501,7.7073,7.8045,7.9208,8.0592,8.0939,8.1093,8.1093,8.1093,8.2054,8.3593,8.3593,8.4901,8.7017,8.8209,8.8979,8.9556,9.0748,9.121,9.1402,6.7789,0.0,6.7967,0.0,7.4139,7.6914,7.9343,8.1165,8.2304,8.2304,8.2304,8.2617,8.3515,8.3047,8.3047,8.3906,8.2969,8.2422,8.2656,8.2422,8.2031,8.1406,8.1367,0.0,7.9258,7.6953,7.4527,7.1982,7.1282,0.0,0.0,0.0,0.0,0.0,5.6578,5.8424,6.168,6.251,6.4844,6.8281,7.1211,7.289,7.375,7.4375,7.4609,7.4531,7.3906,7.3672,7.3594,7.2969,7.1932,7.091,7.0996,7.0411,6.9717,6.9689,6.9663,6.9731,7.0273,7.0681,7.0675,6.9489,6.9258,6.889,6.7262,6.6797,6.6178,6.4378,6.2637,6.132,6.0935,6.0104,6.0008,6.163,0.0,0.0,0.0,0.0,0.0,0.0,5.1327,5.0526,5.0345,5.099,0.0,0.0,0.0,0.0,0.0,0.0,0.0,0.0,0.0,0.0,0.0,7.3086,7.5644,7.6833,7.7968,7.94,8.1093,8.1093,8.1246,8.1439,8.1208,8.2208,8.3939,8.3708,8.5093,8.7478,8.8363,8.9171,9.0017,9.0902,9.121,9.1364,7.3046,7.3203,7.4023,7.664,7.8503,7.965,7.9689,8.1165,8.2304,8.2304,8.2304,8.2617,8.3515,8.3594,8.3945,8.4804,8.3281,8.2656,8.3515,8.2773,8.2304,0.0,0.0,8.1875,8.0976,7.9336,7.6328,7.1992,0.0,0.0,6.0406,0.0,6.0183,5.7923,6.1215,6.2341,6.1875,6.4453,6.7539,7.082,7.2578,7.3828,7.4609,7.4609,7.4609,7.4609,7.4609,7.457,7.457,7.457,7.4418,7.3909,7.2234,7.1118,7.0478,7.0238,7.0187,7.0187,7.0187,7.0834,7.1131,6.9577,6.9219,6.8789,6.7265,6.6905,6.6332,6.4224,6.3113,6.218,6.1166,6.1151,6.1186,6.1026,0.0,0.0,0.0,0.0,0.0,0.0,5.4873,5.4907,5.2414,5.2221,0.0,0.0,0.0,0.0,0.0,0.0,0.0,6.0997,6.4558,0.0,7.3572,7.2828,7.4461,7.8477,7.8477,7.94,8.1093,8.1093,8.1516,8.2247,8.1439,8.2554,8.4824,8.3939,8.5093,8.7478,8.8363,8.9171,9.0017,9.0902,9.121,9.121,7.6678,7.7773,7.8828,7.9648,8.0701,8.1481,8.1481,8.1952,8.2304,8.2304,8.332,8.4179,8.4453,8.3945,8.4179,0.0,8.4179,8.3281,0.0,8.2773,8.2304,8.2304,8.2304,8.2187,8.1875,8.0781,7.8672,7.5547,0.0,0.0,0.0,6.2623,6.1238,6.0514,6.22,6.3798,6.539,6.8008,7.0039,7.1797,7.414,7.5234,7.5544,7.5984,7.6259,7.6367,7.6211,7.5859,7.5508,7.5508,7.4963,7.4072,7.2832,7.2245,7.198,7.1912,7.1533,7.107,7.0892,7.1197,7.1197,6.9982,6.9869,6.9648,6.7969,6.6603,6.5449,6.4648,6.3705,6.2781,6.1897,6.187,6.191,6.1772,6.0453,0.0,0.0,0.0,0.0,0.0,5.297,5.1725,0.0,5.2691,0.0,0.0,0.0,0.0,0.0,0.0,0.0,0.0,6.3436,0.0,7.0928,7.3665,7.6156,7.8515,7.9092,7.9977,8.1093,8.1093,8.1554,8.2285,8.2016,8.3054,8.4901,8.4593,8.5978,8.8286,8.8594,8.9556,9.0825,9.1095,9.121,9.1364,7.8827,8.0078,8.1015,8.1015,8.1719,8.2304,8.2304,8.2304,8.2304,8.2304,8.3242,8.4179,8.4844,8.4414,0.0,8.6523,8.5078,8.4101,8.4101,8.3281,8.2656,8.2304,8.2304,8.2304,8.2304,0.0,0.0,7.8633,7.6953,7.3264,6.7735,6.5297,6.414,6.414,6.4726,6.6406,6.8906,7.0508,7.207,7.3632,7.5521,7.6454,7.6819,7.7465,7.766,7.7521,7.7413,7.6953,7.6406,7.6406,7.5824,7.5026,7.4445,7.386,7.3273,7.2311,7.1657,7.1245,7.1129,7.1168,7.1052,7.014,7.0098,6.983,6.8156,6.6633,6.546,6.4902,6.432,6.3551,6.2397,6.2236,6.2162,6.1751,6.0304,5.9281,5.9427,0.0,0.0,0.0,0.0,0.0,0.0,5.3454,5.4027,0.0,0.0,0.0,0.0,0.0,0.0,5.8487,6.4337,0.0,7.0683,7.4306,7.6938,7.8515,7.9708,8.0554,8.1093,8.1093,8.1708,8.2747,8.2439,8.3478,8.5324,8.5016,8.6401,8.8709,8.8709,8.971,9.121,9.121,9.121,9.1402,7.9883,8.0547,0.0,0.0,8.1758,0.0,8.2304,8.2304,8.2304,8.2304,8.2422,8.3086,8.4726,8.5,8.5742,8.7344,0.0,0.0,0.0,8.4062,8.3203,8.2344,8.2304,8.2304,8.2304,8.2304,8.1875,8.1015,7.6875,7.3164,6.9844,6.8945,6.8555,6.8555,6.8555,6.9922,7.2265,7.2265,7.375,7.6128,7.6753,7.747,7.8246,7.8863,7.8701,7.8166,7.8082,7.7733,7.7265,7.7226,7.6933,7.6621,7.6533,7.5668,7.4245,7.186,7.1091,7.0975,7.0975,7.0937,7.0744,7.014,6.9948,6.9514,6.8093,6.7113,6.6167,6.5196,6.4936,6.4372,6.2704,6.2358,6.205,6.105,5.9396,5.8434,5.9127,0.0,0.0,0.0,0.0,0.0,0.0,5.44,5.5519,0.0,0.0,0.0,0.0,0.0,5.9457,6.1021,6.6736,7.0628,7.2392,7.4896,7.7025,7.8707,8.0323,8.1093,8.1093,8.1093,8.2016,8.3555,8.2747,8.3785,8.6055,8.5286,8.6401,8.8632,8.8671,8.9671,9.1133,9.1171,9.121,9.1325,0.0,0.0,8.1992,8.1992,8.2148,8.2304,8.2304,8.2304,8.2304,8.2304,8.3476,8.4453,8.4844,8.6094,8.7031,8.7461,8.6523,8.5625,8.4922,8.4062,8.3203,8.2344,8.2304,8.2304,8.2304,8.2304,8.1875,8.1015,7.8711,7.6484,7.4336,7.2812,7.2109,7.2109,7.2109,7.3164,7.4961,7.4961,7.6094,7.7886,7.7821,7.8308,7.91,7.8921,7.8893,7.8758,7.8092,7.7876,7.7812,7.7344,7.7011,7.6699,7.5851,7.5293,7.4755,7.4014,7.2899,7.1898,7.1898,7.1398,7.086,7.0706,7.0256,6.9861,6.9632,6.8315,6.7093,6.6846,6.6167,6.5128,6.3397,6.3051,6.2358,6.0204,5.8434,5.7165,5.6729,5.4728,0.0,0.0,5.4188,5.44,5.3974,5.4475,5.5555,0.0,0.0,0.0,0.0,6.1113,6.1427,6.1813,6.6357,7.0182,7.3196,7.5736,7.8199,8.0477,8.09,8.1093,8.1093,8.1093,8.2016,8.3593,8.3362,8.4362,8.6094,8.5901,8.6555,8.7786,8.844,8.9325,9.0287,9.0941,9.121,9.1402,8.2226,8.2304,8.2304,8.2304,8.2304,8.2304,8.2304,8.2304,8.2304,8.2304,8.3476,8.4453,8.4844,8.6094,8.707,8.7461,8.707,8.6406,8.5547,8.4687,8.3828,8.2929,8.25,8.2304,8.2304,8.2304,8.1875,8.1015,8.0078,7.8789,7.707,7.5703,7.4883,7.4453,7.4062,7.4844,7.6484,7.6484,7.7461,7.9059,7.9131,7.9428,7.9869,7.9831,7.9715,7.9477,7.9028,7.8474,7.7908,7.7596,7.7105,7.6505,7.5936,7.563,7.5408,7.5322,7.413,7.2706,7.2322,7.2129,7.1975,7.1591,7.0679,6.99,6.998,6.8645,6.7359,6.7282,6.6551,6.5359,6.3628,6.332,6.2358,5.9435,5.7901,5.675,5.5943,5.4381,0.0,5.44,5.4843,5.5265,5.5588,5.6319,5.7071,5.7734,5.8329,0.0,6.0439,6.2651,6.3877,6.3877,6.7192,7.0437,7.3476,7.6784,7.9323,8.1093,8.1093,8.1093,8.1093,8.1093,8.2016,8.3593,8.3593,8.4555,8.6094,8.6094,8.6594,8.7478,8.8363,8.9171,9.0017,9.0902,9.1441,9.1979,8.2304,8.2304,8.2304,8.2304,8.2304,8.2304,8.2304,8.2422,8.25,8.25,8.3359,8.4258,8.5039,8.5859,8.6679,8.7422,8.75,8.707,8.6054,8.5312,8.4453,8.3437,8.2695,8.2304,8.2304,8.2304,8.1953,8.1211,8.1054,8.0273,7.8867,7.8008,7.7187,7.6445,7.5703,7.625,7.7773,7.7617,7.8555,8.0116,8.0296,8.0467,8.0631,8.0977,8.0746,8.0254,8.0138,7.9249,7.812,7.8004,7.7318,7.6515,7.6476,7.6284,7.6053,7.6015,7.4976,7.3707,7.2822,7.2937,7.3129,7.236,7.1245,7.0179,6.9937,6.8859,6.7859,6.7552,6.6744,6.5551,6.382,6.3281,6.2166,5.9165,5.7811,5.6908,5.6329,0.0,5.4477,5.6059,5.6382,5.6819,5.7665,5.9165,5.9473,5.805,6.0817,6.1704,5.9788,6.4055,6.6684,6.6939,6.913,7.1629,7.4437,7.813,8.0362,8.1093,8.1093,8.1093,8.1093,8.1246,8.2131,8.3593,8.3747,8.467,8.6094,8.6094,8.6594,8.7478,8.8363,8.9171,9.0017,9.0902,9.1748,9.2633,8.2304,8.2304,8.2304,8.2304,8.2304,8.2304,8.2304,8.2929,8.3398,8.3398,8.4804,8.5859,8.5976,8.6797,8.7344,8.75,8.75,8.6836,8.5195,8.4961,8.4179,8.2578,8.2383,8.2304,8.2304,8.2304,8.2226,8.2109,8.1367,8.0859,8.0586,7.9726,7.9258,7.9101,7.8984,7.9453,8.0351,7.9609,8.0312,8.1796,8.0814,8.0838,8.1477,8.1208,8.1054,8.0862,8.0292,7.9961,7.9664,7.9103,7.8315,7.7545,7.7438,7.6861,7.6207,7.6053,7.5822,7.5438,7.4553,7.3399,7.236,7.2206,7.2014,7.1629,7.0898,7.0514,7.0167,6.9436,6.8013,6.6397,6.4705,6.3243,6.1882,6.0718,5.8603,5.7294,5.7911,0.0,5.6849,5.7811,5.9172,6.0358,6.1204,6.2166,6.2589,6.2358,6.3537,6.474,6.5836,6.7936,6.9823,7.1376,7.2404,7.4822,7.8784,8.0208,8.0977,8.1093,8.1093,8.1093,8.1131,8.1785,8.267,8.3632,8.4362,8.5247,8.6094,8.6094,8.6594,8.7478,8.8363,8.9171,9.0017,9.0902,9.1748,9.2633,8.2304,8.2304,8.2304,8.2304,8.2304,8.2461,8.2929,8.3359,8.3789,8.4258,8.539,8.6211,8.6211,8.6992,8.75,8.75,8.75,8.6953,8.5664,8.5156,8.4336,8.3047,8.2539,8.2304,8.2304,8.2304,8.2304,8.2304,8.1914,8.1719,8.1679,8.082,8.039,8.039,7.9922,8.0195,8.0976,8.0586,8.1133,8.2226,8.1438,8.1342,8.1662,8.1246,8.1093,8.1054,8.0746,8.0362,7.99,7.9592,7.893,7.816,7.8092,7.7823,7.7476,7.7361,7.6361,7.5322,7.5399,7.4168,7.3014,7.3437,7.3206,7.2668,7.1783,7.1245,7.0667,6.986,6.8706,6.7282,6.559,6.4282,6.3036,6.1751,5.943,0.0,0.0,5.8335,5.8276,5.9567,6.1135,6.2474,6.3358,6.4205,6.4705,6.4705,6.5051,6.6038,6.7807,6.904,7.0925,7.3559,7.4889,7.6938,7.9785,8.0669,8.1093,8.1093,8.1093,8.1093,8.1131,8.1939,8.2785,8.3632,8.4516,8.5363,8.6094,8.6094,8.6594,8.7478,8.8363,8.9171,9.0017,9.0902,9.2018,9.321,8.2304,8.2304,8.2304,8.2304,8.2461,8.2812,8.3515,8.3945,8.4453,8.5117,8.5976,8.6484,8.6484,8.7109,8.75,8.75,8.75,8.7148,8.625,8.539,8.4492,8.3633,8.2773,8.2304,8.2304,8.2304,8.2304,8.2304,8.2304,8.2304,8.2304,8.1601,8.1289,8.1289,8.0586,8.0664,8.1289,8.1289,8.167,8.2187,8.1844,8.1652,8.1593,8.1246,8.1093,8.1093,8.1093,8.0669,8.0092,8.0092,7.9515,7.8784,7.8784,7.8669,7.8477,7.8477,7.713,7.5707,7.6169,7.5207,7.4168,7.4591,7.4245,7.3514,7.2437,7.1822,7.1206,7.0206,6.9321,6.8244,6.6744,6.5436,6.4166,6.2921,0.0,0.0,0.0,5.9878,6.0128,6.161,6.3176,6.4628,6.5667,6.6551,6.7051,6.7051,6.7436,6.8129,6.9244,7.0475,7.2629,7.5784,7.7169,7.8592,8.0092,8.0785,8.1093,8.1093,8.1093,8.1208,8.14,8.2247,8.3093,8.3939,8.4824,8.5517,8.6132,8.6324,8.6901,8.7786,8.8632,8.9479,9.0287,9.0941,9.2249,9.371,8.2304,8.2304,8.2304,8.2304,8.2969,8.3515,8.3594,8.4961,8.6015,8.6094,8.6875,8.7383,8.7383,8.7461,8.75,8.75,8.75,8.7148,8.625,8.539,8.4492,8.3633,8.2773,8.2304,8.2304,8.2304,8.2304,8.2304,8.2304,8.2304,8.2304,8.2226,8.2187,8.2187,8.2148,8.2148,8.2187,8.2187,8.214,8.2014,8.1796,8.1575,8.14,8.117,8.1093,8.1093,8.1093,8.1054,8.1016,8.1016,8.0439,7.9708,7.9708,7.9131,7.8477,7.8477,7.8361,7.8054,7.74,7.6515,7.563,7.4899,7.4668,7.4207,7.2552,7.2783,7.2822,7.1168,7.0167,6.9321,6.8398,6.6244,6.4576,6.4508,0.0,0.0,6.1896,6.2651,6.3422,6.4229,6.5782,6.7475,6.9167,7.0052,7.0514,7.0514,7.2014,7.2629,7.1937,7.4207,7.6746,7.9361,7.9554,8.0054,8.1016,8.1054,8.1093,8.1093,8.1093,8.1477,8.2247,8.3093,8.3978,8.4863,8.567,8.6055,8.617,8.6978,8.7825,8.8671,8.9517,9.0364,9.1133,9.1171,9.2249,9.371,8.2304,8.2304,8.2461,8.3008,8.3398,8.3945,8.5039,8.6211,8.6992,8.6992,8.8203,8.8633,8.7617,8.7969,8.8047,8.7539,8.75,8.7344,8.7031,8.6172,8.4844,8.289,8.2461,8.2304,8.2304,8.2304,8.2304,8.2304,8.2304,8.2304,8.2304,8.2304,8.2304,8.2304,8.2304,8.2304,8.2304,8.2304,8.2194,8.2001,8.1787,8.1551,8.1362,8.117,8.1093,8.1093,8.1093,8.1093,8.1093,8.1093,8.09,8.0592,8.0592,8.0362,8.0092,8.0092,8.0092,7.9939,7.9092,7.7861,7.6746,7.6399,7.5899,7.5207,7.4014,7.4014,7.3899,7.2745,7.2283,7.1822,7.1079,6.9206,6.7808,6.7961,0.0,6.3484,6.4369,6.4754,6.51,6.5359,6.7782,6.9706,7.0398,7.1706,7.2514,7.2514,7.3129,7.3591,7.3745,7.6169,7.8246,7.9746,8.0323,8.0785,8.1093,8.1093,8.1093,8.1093,8.1093,8.1516,8.2324,8.3208,8.3785,8.417,8.5517,8.5824,8.544,8.6247,8.744,8.8709,8.9017,8.9979,9.121,9.121,9.1941,9.3018,8.2304,8.2539,8.289,8.3515,8.4062,8.4804,8.6015,8.6953,8.75,8.75,8.8711,8.9062,8.7656,8.8203,8.8398,8.7578,8.75,8.75,8.75,8.6679,8.5273,8.3203,8.3125,8.3008,8.2695,8.2695,8.2578,8.2304,8.2304,8.2304,8.2304,8.2304,8.2304,8.2304,8.2304,8.2304,8.2304,8.2241,8.2092,8.1864,8.1677,8.1477,8.1285,8.1131,8.1093,8.1093,8.1093,8.1093,8.1093,8.1093,8.1093,8.1093,8.1093,8.1093,8.1093,8.1093,8.1093,8.0977,8.0362,7.9169,7.7938,7.7438,7.6861,7.6092,7.4976,7.4707,7.4476,7.3668,7.3553,7.3437,7.2965,7.1684,7.0599,7.0427,6.8078,6.6397,6.6667,6.7128,6.7475,6.7475,6.9975,7.1822,7.2091,7.3168,7.4014,7.4245,7.4284,7.4745,7.5822,7.7823,7.9323,8.0169,8.0785,8.1093,8.1093,8.1093,8.1246,8.1477,8.1477,8.2054,8.3131,8.3747,8.4132,8.4439,8.5593,8.5786,8.5363,8.6478,8.744,8.8363,8.9171,9.0017,9.0825,9.1095,9.1748,9.2633,8.2304,8.3008,8.3594,8.3633,8.5039,8.6211,8.6211,8.6953,8.75,8.75,8.8203,8.8398,8.7578,8.8203,8.8398,8.7578,8.75,8.75,8.75,8.6679,8.582,8.4961,8.4922,8.4492,8.3633,8.3594,8.3164,8.2304,8.2304,8.2304,8.2304,8.2304,8.2304,8.2304,8.2304,8.2304,8.2303,8.2095,8.189,8.1687,8.149,8.1285,8.1093,8.1093,8.1093,8.1093,8.1093,8.1093,8.1093,8.1093,8.1093,8.1093,8.1093,8.1093,8.1093,8.1093,8.1093,8.1093,8.1093,8.0477,7.94,7.7746,7.7323,7.6861,7.513,7.4745,7.4514,7.3707,7.3696,7.385,7.3812,7.3297,7.2474,7.1402,7.0552,6.9655,6.859,6.986,7.0937,7.0937,7.2437,7.3822,7.463,7.4707,7.5091,7.5938,7.6015,7.6746,7.84,7.9323,8.0208,8.1054,8.1093,8.1093,8.1093,8.1093,8.1516,8.2285,8.2285,8.3208,8.4901,8.4901,8.5363,8.6094,8.6094,8.6094,8.6247,8.794,8.8171,8.7671,9.021,9.0671,9.0017,9.0902,9.1748,9.2633,8.3086,8.3437,8.3984,8.5195,8.5859,8.6406,8.7031,8.7812,8.8125,8.7578,8.8711,8.9062,8.7656,8.8203,8.8398,8.7578,8.75,8.75,8.75,8.7265,8.6992,8.6758,8.5547,8.4765,8.4531,8.4492,8.4101,8.3203,8.3203,8.289,8.2304,8.2304,8.2304,8.2304,8.2304,8.2304,8.2303,8.2095,8.186,8.171,8.1484,8.1285,8.1093,8.1093,8.1093,8.1093,8.1093,8.1093,8.1093,8.1093,8.1093,8.1093,8.1093,8.1093,8.1093,8.1093,8.1093,8.1093,8.1093,8.09,8.0439,7.9323,7.8592,7.7861,7.6784,7.6938,7.7169,7.6506,7.6852,7.7391,7.768,7.6475,7.5137,7.4225,7.3287,7.2283,7.1206,7.2014,7.2706,7.2706,7.3668,7.4437,7.4668,7.5245,7.5707,7.5976,7.6553,7.763,7.9323,7.9669,8.0208,8.1054,8.1093,8.1093,8.1093,8.1093,8.1516,8.2285,8.2285,8.3208,8.4901,8.4901,8.5016,8.5286,8.5863,8.5786,8.5363,8.644,8.744,8.8402,8.9133,9.0017,9.0864,9.1095,9.1748,9.2633,8.3437,8.3867,8.457,8.5976,8.6484,8.6875,8.7422,8.789,8.8047,8.7578,8.8672,8.8984,8.7656,8.8203,8.8515,8.8008,8.7969,8.7851,8.7539,8.75,8.75,8.75,8.6484,8.5781,8.5429,8.539,8.4804,8.3594,8.3594,8.3164,8.2304,8.2304,8.2304,8.2304,8.2304,8.2276,8.2169,8.1945,8.1771,8.1554,8.1362,8.1208,8.1093,8.1093,8.1093,8.1093,8.1093,8.1093,8.1093,8.1093,8.1093,8.1093,8.1093,8.1093,8.1093,8.1093,8.1093,8.1093,8.1093,8.1093,8.0977,8.0439,7.9669,7.8784,7.7938,7.813,7.84,7.8122,7.8528,7.9017,7.9355,7.8552,7.7628,7.7004,7.6341,7.5515,7.4476,7.4707,7.4899,7.4514,7.4938,7.5207,7.5207,7.6015,7.663,7.6938,7.7784,7.8746,7.9746,8.0131,8.0554,8.1093,8.1093,8.1093,8.1093,8.14,8.1977,8.2824,8.2824,8.3708,8.5363,8.5363,8.5363,8.5401,8.5901,8.5824,8.544,8.6286,8.7248,8.8248,8.8902,8.9787,9.0748,9.1056,9.1518,9.2133,8.3554,8.4414,8.5312,8.625,8.707,8.7617,8.7617,8.7617,8.7578,8.75,8.8203,8.8437,8.7695,8.832,8.8828,8.8828,8.8828,8.8437,8.7578,8.7578,8.7578,8.75,8.75,8.7148,8.6328,8.6328,8.5508,8.3828,8.375,8.3281,8.2422,8.2344,8.2304,8.2304,8.2304,8.2167,8.1963,8.1773,8.1591,8.1362,8.117,8.1093,8.1093,8.1093,8.1093,8.1093,8.1093,8.1093,8.1093,8.1093,8.1093,8.1093,8.1093,8.1093,8.1093,8.1093,8.1093,8.1093,8.1093,8.1093,8.1093,8.1093,8.0516,7.9708,7.8823,7.8669,7.8746,7.8892,7.9128,7.942,7.9636,7.9727,7.9765,7.9531,7.9259,7.8758,7.7823,7.7515,7.7092,7.6322,7.6169,7.613,7.6207,7.6938,7.7746,7.8554,7.9361,7.9823,7.99,8.0669,8.1093,8.1093,8.1093,8.1131,8.1208,8.1939,8.2747,8.3593,8.367,8.4555,8.6094,8.6094,8.6094,8.6094,8.6094,8.6094,8.617,8.6978,8.7363,8.7671,8.921,8.9902,9.0133,9.0902,9.1248,9.1556,8.4453,8.5312,8.6406,8.789,8.832,8.8437,8.8437,8.8437,8.8203,8.7578,8.8203,8.8633,8.8476,8.9219,8.9726,8.9726,8.9726,8.9101,8.7617,8.8086,8.8164,8.7539,8.75,8.7422,8.7226,8.7226,8.6719,8.5625,8.4961,8.4179,8.3281,8.2617,8.2304,8.2304,8.2304,8.2167,8.197,8.1803,8.1581,8.1362,8.117,8.1093,8.1093,8.1093,8.1093,8.1093,8.1093,8.1093,8.1093,8.1093,8.1093,8.1093,8.1093,8.1093,8.1093,8.1093,8.1093,8.1093,8.1093,8.1093,8.1093,8.1093,8.0977,8.0592,7.9708,8.0054,8.0439,8.0115,8.06,8.1247,8.1609,8.1162,8.0664,8.0469,7.9695,7.8956,7.8575,7.8361,7.8169,7.7977,7.74,7.7284,7.79,7.813,7.8592,7.9438,7.9708,8.0092,8.0785,8.1016,8.1093,8.1093,8.1093,8.14,8.2016,8.2208,8.2747,8.3593,8.4286,8.5132,8.6094,8.6094,8.6094,8.6094,8.6094,8.6094,8.6094,8.6286,8.7171,8.844,8.8825,8.9748,9.0941,9.1133,9.1633,9.2441,8.4726,8.5586,8.6719,8.8398,8.8711,8.8828,8.9258,8.9336,8.9023,8.8164,8.8789,8.914,8.875,8.9492,8.9844,8.9414,8.9765,8.9453,8.8164,8.8476,8.8711,8.8672,8.8281,8.8086,8.8086,8.7695,8.6875,8.5586,8.5117,8.4258,8.2969,8.25,8.2266,8.2178,8.2178,8.1988,8.1739,8.1593,8.1439,8.1246,8.1131,8.1093,8.1093,8.1093,8.1093,8.1093,8.1093,8.1093,8.1093,8.1093,8.1093,8.1093,8.1093,8.1093,8.1093,8.1093,8.1093,8.1093,8.1093,8.1093,8.1093,8.1093,8.1093,8.0977,8.0516,8.0785,8.1054,8.1008,8.1375,8.1831,8.2221,8.1914,8.1601,8.1484,8.0835,8.0301,8.0213,7.9554,7.9131,7.9131,7.8361,7.8207,7.9054,7.9131,7.9477,8.0362,8.0439,8.0631,8.1093,8.1093,8.1093,8.1093,8.1093,8.1477,8.2285,8.2708,8.3362,8.4209,8.467,8.5324,8.6094,8.6094,8.6094,8.6094,8.6094,8.6094,8.6094,8.6094,8.6863,8.8132,8.8517,8.9479,9.0633,9.1056,9.1979,9.321,8.4765,8.5703,8.6914,8.8437,8.8828,8.9179,8.9883,9.0117,8.9922,8.9023,8.9687,8.9961,8.9219,8.9922,9.0078,8.914,8.9765,8.9726,8.8554,8.8633,8.8945,8.9531,8.8867,8.8476,8.8476,8.7851,8.6797,8.5351,8.5039,8.414,8.2734,8.2406,8.2153,8.2009,8.197,8.1739,8.14,8.14,8.1285,8.1093,8.1093,8.1093,8.1093,8.1093,8.1093,8.1093,8.1093,8.1093,8.1093,8.1093,8.1093,8.1093,8.1093,8.1093,8.1093,8.1093,8.1093,8.1093,8.1093,8.1093,8.1093,8.1093,8.1093,8.1093,8.1093,8.1093,8.1208,8.1624,8.1724,8.1831,8.2221,8.2304,8.2304,8.2304,8.2,8.1731,8.1706,8.0746,8.0054,8.0015,7.9361,7.9169,7.9746,7.9939,8.0323,8.1054,8.1093,8.1093,8.1093,8.1093,8.1093,8.1093,8.1246,8.1708,8.2516,8.3401,8.4247,8.5132,8.5132,8.544,8.6094,8.6094,8.6094,8.6094,8.6094,8.6094,8.6094,8.6247,8.6824,8.7709,8.8556,8.9402,9.021,9.0941,9.2172,9.3518,8.4883,8.6211,8.7617,8.8554,8.9336,8.9844,8.9961,9.0625,9.082,8.9922,9.0586,9.1094,9.0976,9.1719,9.1797,9.0703,9.0937,9.0156,8.7812,8.832,8.8437,8.7851,8.7734,8.7656,8.7656,8.7578,8.7383,8.7148,8.5625,8.4765,8.4492,8.2844,8.2024,8.2009,8.1816,8.1593,8.14,8.14,8.1285,8.1093,8.1093,8.1093,8.1093,8.1093,8.1093,8.1093,8.1093,8.1093,8.1093,8.1093,8.1093,8.1093,8.1093,8.1093,8.1093,8.1093,8.1093,8.1093,8.1093,8.1093,8.1093,8.1093,8.1093,8.1093,8.1093,8.1093,8.1208,8.1624,8.1724,8.1831,8.2221,8.2304,8.2304,8.2304,8.2107,8.1889,8.1687,8.14,8.1131,8.0939,8.0823,8.0516,7.9862,8.0477,8.0977,8.1093,8.1093,8.1093,8.1093,8.1093,8.1093,8.1093,8.1785,8.2554,8.3401,8.4286,8.5132,8.594,8.594,8.5978,8.6094,8.6094,8.6094,8.6094,8.6094,8.6094,8.617,8.6901,8.7748,8.8594,8.944,9.0248,9.1056,9.1171,9.1825,9.2749,8.4883,8.6289,8.7734,8.8554,8.9023,8.9453,8.9922,9.0312,9.0273,8.9375,9.0469,9.0937,8.9961,9.0937,9.1133,8.9804,8.9961,8.957,8.8242,8.8515,8.875,8.8906,8.8437,8.8164,8.8164,8.7265,8.6758,8.6758,8.5508,8.4414,8.3437,8.2582,8.2106,8.2009,8.1816,8.1593,8.1362,8.1285,8.117,8.1093,8.1093,8.1093,8.1093,8.1093,8.1093,8.1093,8.1093,8.1093,8.1093,8.1093,8.1093,8.1093,8.1093,8.1093,8.1093,8.1093,8.117,8.1246,8.1131,8.117,8.1246,8.1131,8.1093,8.1131,8.1246,8.1246,8.1323,8.1662,8.181,8.1951,8.2253,8.2304,8.2304,8.2304,8.2148,8.1961,8.187,8.1593,8.1323,8.1131,8.1093,8.0939,8.0554,8.0862,8.1093,8.1093,8.1093,8.1093,8.1093,8.1093,8.1093,8.1093,8.1862,8.2708,8.3593,8.4478,8.5286,8.6094,8.6094,8.6094,8.6094,8.6094,8.6363,8.6786,8.6324,8.6363,8.6863,8.7248,8.7632,8.8094,8.9402,9.0441,9.121,9.121,9.1748,9.2556]},{"header":{"parameterUnit":"m.s-1","parameterCategory":1,"la1":30.6,"la2":28.766,"lo1":-90.7593,"lo2":-88.6598,"dy":0.0162,"dx":0.0183,"nx":116,"ny":114,"refTime":"2024-03-27T06:00:00:Z","depth":0,"parameterNumber":3,"parameterNumberName":"V-component_of_WINDS"},"data":[0.0,0.0,0.0,0.0,0.0,0.0,0.0,0.0,0.0,0.0,0.0,0.0,0.0,0.0,0.0,0.0,0.0,0.0,0.0,0.0,0.0,0.0,0.0,0.0,0.0,0.0,0.0,0.0,0.0,0.0,0.0,0.0,0.0,0.0,0.0,0.0,0.0,0.0,0.0,0.0,0.0,0.0,0.0,0.0,0.0,0.0,0.0,0.0,0.0,0.0,0.0,0.0,0.0,0.0,0.0,0.0,0.0,0.0,0.0,0.0,0.0,0.0,0.0,0.0,0.0,0.0,0.0,0.0,0.0,0.0,0.0,0.0,0.0,0.0,0.0,0.0,0.0,0.0,0.0,0.0,0.0,0.0,0.0,0.0,0.0,0.0,0.0,0.0,0.0,0.0,0.0,0.0,0.0,0.0,0.0,0.0,0.0,0.0,0.0,0.0,0.0,0.0,0.0,0.0,0.0,0.0,0.0,0.0,0.0,0.0,0.0,0.0,0.0,0.0,0.0,0.0,0.0,0.0,0.0,0.0,0.0,0.0,0.0,0.0,0.0,0.0,0.0,0.0,0.0,0.0,0.0,0.0,0.0,0.0,0.0,0.0,0.0,0.0,0.0,0.0,0.0,0.0,0.0,0.0,0.0,0.0,0.0,0.0,0.0,0.0,0.0,0.0,0.0,0.0,0.0,0.0,0.0,0.0,0.0,0.0,0.0,0.0,0.0,0.0,0.0,0.0,0.0,0.0,0.0,0.0,0.0,0.0,0.0,0.0,0.0,0.0,0.0,0.0,0.0,0.0,0.0,0.0,0.0,0.0,0.0,0.0,0.0,0.0,0.0,0.0,0.0,0.0,0.0,0.0,0.0,0.0,0.0,0.0,0.0,0.0,0.0,0.0,0.0,0.0,0.0,0.0,0.0,0.0,0.0,0.0,0.0,0.0,0.0,0.0,0.0,0.0,0.0,0.0,0.0,0.0,0.0,0.0,0.0,0.0,0.0,0.0,0.0,0.0,0.0,0.0,0.0,0.0,0.0,0.0,0.0,0.0,0.0,0.0,0.0,0.0,0.0,0.0,0.0,0.0,0.0,0.0,0.0,0.0,0.0,0.0,0.0,0.0,0.0,0.0,0.0,0.0,0.0,0.0,0.0,0.0,0.0,0.0,0.0,0.0,0.0,0.0,0.0,0.0,0.0,0.0,0.0,0.0,0.0,0.0,0.0,0.0,0.0,0.0,0.0,0.0,0.0,0.0,0.0,0.0,0.0,0.0,0.0,0.0,0.0,0.0,0.0,0.0,0.0,0.0,0.0,0.0,0.0,0.0,0.0,0.0,0.0,0.0,0.0,0.0,0.0,0.0,0.0,0.0,0.0,0.0,0.0,0.0,0.0,0.0,0.0,0.0,0.0,0.0,0.0,0.0,0.0,0.0,0.0,0.0,0.0,0.0,0.0,0.0,0.0,0.0,0.0,0.0,0.0,0.0,0.0,0.0,0.0,0.0,0.0,0.0,0.0,0.0,0.0,0.0,0.0,0.0,0.0,0.0,0.0,0.0,0.0,0.0,0.0,0.0,0.0,0.0,0.0,0.0,0.0,0.0,0.0,0.0,0.0,0.0,0.0,0.0,0.0,0.0,0.0,0.0,0.0,0.0,0.0,0.0,0.0,0.0,0.0,0.0,0.0,0.0,0.0,0.0,0.0,0.0,0.0,0.0,0.0,0.0,0.0,0.0,0.0,0.0,0.0,0.0,0.0,0.0,0.0,0.0,0.0,0.0,0.0,0.0,0.0,0.0,0.0,0.0,0.0,0.0,0.0,0.0,0.0,0.0,0.0,0.0,0.0,0.0,0.0,0.0,0.0,0.0,0.0,0.0,0.0,0.0,0.0,0.0,0.0,0.0,0.0,0.0,0.0,0.0,0.0,0.0,0.0,0.0,0.0,0.0,0.0,0.0,0.0,0.0,0.0,0.0,0.0,0.0,0.0,0.0,0.0,0.0,0.0,0.0,0.0,0.0,0.0,0.0,0.0,0.0,0.0,0.0,0.0,0.0,0.0,0.0,0.0,0.0,0.0,0.0,0.0,0.0,0.0,0.0,0.0,0.0,0.0,0.0,0.0,0.0,0.0,0.0,0.0,0.0,0.0,0.0,0.0,0.0,0.0,0.0,0.0,0.0,0.0,0.0,0.0,0.0,0.0,0.0,0.0,0.0,0.0,0.0,0.0,0.0,0.0,0.0,0.0,0.0,0.0,0.0,0.0,0.0,0.0,0.0,0.0,0.0,0.0,0.0,0.0,0.0,0.0,0.0,0.0,0.0,0.0,0.0,0.0,0.0,0.0,0.0,0.0,0.0,0.0,0.0,0.0,0.0,0.0,0.0,0.0,0.0,0.0,0.0,0.0,0.0,0.0,0.0,0.0,0.0,0.0,0.0,0.0,0.0,0.0,0.0,0.0,0.0,0.0,0.0,0.0,0.0,0.0,0.0,0.0,0.0,0.0,0.0,0.0,0.0,0.0,0.0,0.0,0.0,0.0,0.0,0.0,0.0,0.0,0.0,0.0,0.0,0.0,0.0,0.0,0.0,0.0,0.0,0.0,0.0,0.0,0.0,0.0,0.0,0.0,0.0,0.0,0.0,0.0,0.0,0.0,0.0,0.0,0.0,0.0,0.0,0.0,0.0,0.0,0.0,0.0,0.0,0.0,0.0,0.0,0.0,0.0,0.0,0.0,0.0,0.0,0.0,0.0,0.0,0.0,0.0,0.0,0.0,0.0,0.0,0.0,0.0,0.0,0.0,0.0,0.0,0.0,0.0,0.0,0.0,0.0,0.0,0.0,0.0,0.0,0.0,0.0,0.0,0.0,0.0,0.0,0.0,0.0,0.0,0.0,0.0,0.0,0.0,0.0,0.0,0.0,0.0,0.0,0.0,0.0,0.0,0.0,0.0,0.0,0.0,0.0,0.0,0.0,0.0,0.0,0.0,0.0,0.0,0.0,0.0,0.0,0.0,0.0,0.0,0.0,0.0,0.0,0.0,0.0,0.0,0.0,0.0,0.0,0.0,0.0,0.0,0.0,0.0,0.0,0.0,0.0,0.0,0.0,0.0,0.0,0.0,0.0,0.0,0.0,0.0,0.0,0.0,0.0,0.0,0.0,0.0,0.0,0.0,0.0,0.0,0.0,0.0,0.0,0.0,0.0,0.0,0.0,0.0,0.0,0.0,0.0,0.0,0.0,0.0,0.0,0.0,0.0,0.0,0.0,0.0,0.0,0.0,0.0,0.0,0.0,0.0,0.0,0.0,0.0,0.0,0.0,0.0,0.0,0.0,0.0,0.0,0.0,0.0,0.0,0.0,0.0,0.0,0.0,0.0,0.0,0.0,0.0,0.0,0.0,0.0,0.0,0.0,0.0,0.0,0.0,0.0,0.0,0.0,0.0,0.0,0.0,0.0,0.0,0.0,0.0,0.0,0.0,0.0,0.0,0.0,0.0,0.0,0.0,0.0,0.0,0.0,0.0,0.0,0.0,0.0,0.0,0.0,0.0,0.0,0.0,0.0,0.0,0.0,0.0,0.0,0.0,0.0,0.0,0.0,0.0,0.0,0.0,0.0,0.0,0.0,0.0,0.0,0.0,0.0,0.0,0.0,0.0,0.0,0.0,0.0,0.0,0.0,0.0,0.0,0.0,0.0,0.0,0.0,0.0,0.0,0.0,0.0,0.0,0.0,0.0,0.0,0.0,0.0,0.0,0.0,0.0,0.0,0.0,0.0,0.0,0.0,0.0,0.0,0.0,0.0,0.0,0.0,0.0,0.0,0.0,0.0,0.0,0.0,0.0,0.0,0.0,0.0,0.0,0.0,0.0,0.0,0.0,0.0,0.0,0.0,0.0,0.0,0.0,0.0,0.0,0.0,0.0,0.0,0.0,0.0,0.0,0.0,0.0,0.0,0.0,0.0,0.0,0.0,0.0,0.0,0.0,0.0,0.0,0.0,0.0,0.0,0.0,0.0,0.0,0.0,0.0,0.0,0.0,0.0,0.0,0.0,0.0,0.0,0.0,0.0,0.0,0.0,0.0,0.0,0.0,0.0,0.0,0.0,0.0,0.0,0.0,0.0,0.0,0.0,0.0,0.0,0.0,0.0,0.0,0.0,0.0,0.0,0.0,0.0,0.0,0.0,0.0,0.0,0.0,0.0,0.0,0.0,0.0,0.0,0.0,0.0,0.0,0.0,0.0,0.0,0.0,0.0,0.0,0.0,0.0,0.0,0.0,0.0,0.0,0.0,0.0,0.0,0.0,0.0,0.0,0.0,0.0,0.0,0.0,0.0,0.0,0.0,0.0,0.0,0.0,0.0,0.0,0.0,0.0,0.0,0.0,0.0,0.0,0.0,0.0,0.0,0.0,0.0,0.0,0.0,0.0,0.0,0.0,0.0,0.0,0.0,0.0,0.0,0.0,0.0,0.0,0.0,0.0,0.0,0.0,0.0,0.0,0.0,0.0,0.0,0.0,0.0,0.0,0.0,0.0,0.0,0.0,0.0,0.0,0.0,0.0,0.0,0.0,0.0,0.0,0.0,0.0,0.0,0.0,0.0,0.0,0.0,0.0,0.0,0.0,0.0,0.0,0.0,0.0,0.0,0.0,0.0,0.0,0.0,0.0,0.0,0.0,0.0,0.0,0.0,0.0,0.0,0.0,0.0,0.0,0.0,0.0,0.0,0.0,0.0,0.0,0.0,0.0,0.0,0.0,0.0,0.0,0.0,0.0,0.0,0.0,0.0,0.0,0.0,0.0,0.0,0.0,0.0,0.0,0.0,0.0,0.0,0.0,0.0,0.0,0.0,0.0,0.0,0.0,0.0,0.0,0.0,0.0,0.0,0.0,0.0,0.0,0.0,0.0,0.0,0.0,0.0,0.0,0.0,0.0,0.0,0.0,0.0,0.0,0.0,0.0,0.0,0.0,0.0,0.0,0.0,0.0,0.0,0.0,0.0,0.0,0.0,0.0,0.0,0.0,0.0,0.0,0.0,0.0,0.0,0.0,0.0,0.0,0.0,0.0,0.0,0.0,0.0,0.0,0.0,0.0,0.0,0.0,0.0,0.0,0.0,0.0,0.0,0.0,0.0,0.0,0.0,0.0,0.0,0.0,0.0,0.0,0.0,0.0,0.0,0.0,0.0,0.0,0.0,0.0,0.0,0.0,0.0,0.0,0.0,0.0,0.0,0.0,0.0,0.0,0.0,0.0,0.0,0.0,0.0,0.0,0.0,0.0,0.0,0.0,0.0,0.0,0.0,0.0,0.0,0.0,0.0,0.0,0.0,0.0,0.0,0.0,0.0,0.0,0.0,0.0,0.0,0.0,0.0,0.0,0.0,0.0,0.0,0.0,0.0,0.0,0.0,0.0,0.0,0.0,0.0,0.0,0.0,0.0,0.0,0.0,0.0,0.0,0.0,0.0,0.0,0.0,0.0,0.0,0.0,0.0,0.0,0.0,0.0,0.0,0.0,0.0,0.0,0.0,0.0,0.0,0.0,0.0,0.0,0.0,0.0,0.0,0.0,0.0,0.0,0.0,0.0,0.0,0.0,0.0,0.0,0.0,0.0,0.0,0.0,0.0,0.0,0.0,0.0,0.0,0.0,0.0,0.0,0.0,0.0,0.0,0.0,0.0,0.0,0.0,0.0,0.0,0.0,0.0,0.0,0.0,0.0,0.0,0.0,0.0,0.0,0.0,0.0,0.0,0.0,0.0,0.0,0.0,0.0,0.0,0.0,0.0,0.0,0.0,0.0,0.0,0.0,0.0,0.0,0.0,0.0,0.0,0.0,0.0,0.0,0.0,0.0,0.0,0.0,0.0,0.0,0.0,0.0,0.0,0.0,0.0,0.0,0.0,0.0,0.0,0.0,0.0,0.0,0.0,0.0,0.0,0.0,0.0,0.0,0.0,0.0,0.0,0.0,0.0,0.0,0.0,0.0,0.0,0.0,0.0,0.0,0.0,0.0,0.0,0.0,0.0,0.0,0.0,0.0,0.0,0.0,0.0,0.0,0.0,0.0,0.0,0.0,0.0,0.0,0.0,0.0,0.0,0.0,0.0,0.0,0.0,0.0,0.0,0.0,-0.7171,0.0,0.0,0.0,0.0,0.0,0.0,0.0,0.0,0.0,0.0,0.0,0.0,0.0,0.0,0.0,0.0,0.0,0.0,0.0,0.0,0.0,0.0,0.0,0.0,-0.1734,-0.2079,-0.2443,-0.277,-0.3082,-0.33,0.0,0.0,0.0,0.0,0.0,-0.3411,-0.3298,-0.306,-0.2813,-0.2741,-0.348,-0.4847,-0.4207,-0.3426,-0.2455,0.0,0.0,0.0,0.0,0.0,0.0,0.0,0.0,0.0,0.0,0.0,0.0,0.0,0.0,0.0,0.0,0.0,0.0,0.0,0.0,0.0,0.0,0.0,0.0,0.0,0.0,0.0,0.0,0.0,0.0,0.0,0.0,0.0,0.0,0.0,0.0,0.0,0.0,0.0,0.0,0.0,0.0,0.0,0.0,0.0,0.0,0.0,0.0,0.0,0.0,0.0,0.0,0.0,0.0,0.0,0.0,0.0,0.0,0.0,0.0,0.0,0.0,0.0,0.0,0.0,0.0,0.0,0.0,0.0,0.0,0.0,-0.8157,0.0,0.0,0.0,0.0,0.0,0.0,0.0,0.0,0.0,0.0,0.0,0.0,0.0,0.0,0.0,0.0,0.0,0.0,0.0,0.0,0.0,-0.0991,-0.1266,-0.1786,-0.2283,-0.2672,-0.2806,-0.3061,-0.3463,-0.334,0.0,0.0,-0.3387,-0.3273,-0.3273,-0.2975,-0.2907,-0.3022,-0.317,-0.4361,-0.6512,-0.59,-0.5028,-0.3854,-0.2774,0.0,0.0,0.0,0.0,0.0,0.0,0.0,0.0,0.0,0.0,0.0,0.0,0.0,0.0,0.0,0.0,0.0,0.0,0.0,0.0,0.0,0.0,0.0,0.0,0.0,0.0,0.0,0.0,0.0,0.0,0.0,0.0,0.0,0.0,0.0,0.0,0.0,0.0,0.0,0.0,0.0,0.0,0.0,0.0,0.0,0.0,0.0,0.0,0.0,0.0,0.0,0.0,0.0,0.0,0.0,0.0,0.0,0.0,0.0,0.0,0.0,0.0,0.0,-1.12,-1.1354,-1.1769,-1.1543,-1.1348,-1.1158,-1.0344,-0.9598,-0.8933,0.0,0.0,0.0,0.0,0.0,0.0,0.0,0.0,0.0,0.0,0.0,0.0,0.0,0.0,0.0,0.0,0.0,0.0,0.0,0.0,-0.0364,-0.0894,-0.1759,-0.2339,-0.2618,-0.3051,-0.3191,-0.2935,-0.3155,-0.3065,-0.2445,-0.2828,-0.2941,-0.2689,-0.2839,-0.3126,-0.3577,-0.5444,-0.6661,-0.7406,-0.7565,-0.7374,-0.6948,-0.5155,-0.3914,-0.3049,0.0,0.0,0.0,0.0,0.0,0.0,0.0,0.0,0.0,0.0,0.0,0.0,0.0,0.0,0.0,0.0,0.0,0.0,0.0,0.0,0.0,0.0,0.0,0.0,0.0,0.0,0.0,0.0,0.0,0.0,0.0,0.0,0.0,0.0,0.0,0.0,0.0,0.0,0.0,0.0,0.0,-0.7388,-0.7662,0.0,0.0,0.0,0.0,0.0,0.0,0.0,0.0,0.0,0.0,0.0,0.0,0.0,0.0,-1.0855,-1.1483,-1.1596,-1.0767,-1.1468,-1.1491,-1.1337,-1.147,-1.1504,-1.1369,-1.1484,0.0,-0.9815,-0.8575,0.0,0.0,0.0,0.0,0.0,0.0,0.0,0.0,0.0,0.0,0.0,0.0,0.0,0.0,0.0,0.0,0.0,0.0,0.0,0.0,0.0,-0.2744,-0.368,-0.3697,-0.464,-0.4624,-0.3107,-0.3002,-0.2823,-0.261,-0.2613,-0.2625,-0.2598,-0.2546,-0.3556,-0.5486,-0.6976,-0.8189,-0.9367,-0.9091,-0.8978,-0.8904,-0.7725,-0.6139,-0.412,-0.2785,0.0,0.0,0.0,0.0,0.0,0.0,0.0,0.0,0.0,0.0,0.0,0.0,0.0,0.0,0.0,0.0,0.0,0.0,0.0,0.0,0.0,0.0,0.0,0.0,0.0,0.0,0.0,0.0,0.0,0.0,0.0,0.0,0.0,0.0,0.0,0.0,0.0,0.0,0.0,-0.737,-0.8033,-0.7436,-0.8044,-0.8448,0.0,0.0,0.0,0.0,0.0,0.0,0.0,0.0,0.0,-1.1154,-1.1843,-1.188,-1.1233,-1.1851,-1.2093,-1.1857,-1.2271,-1.2406,-1.2298,-1.2433,-1.2413,-1.2277,-1.2413,-1.2026,-1.124,-1.0075,-0.9092,-0.861,0.0,0.0,0.0,0.0,-0.8598,-0.8495,0.0,0.0,0.0,0.0,0.0,0.0,0.0,0.0,0.0,0.0,0.0,0.0,-0.196,-0.4006,-0.537,-0.5123,-0.6097,-0.5942,-0.3966,-0.3299,-0.2885,-0.258,-0.2318,-0.2253,-0.2362,-0.2878,-0.4559,-0.7386,-0.8382,-0.9539,-1.0876,-1.0397,-1.021,-1.031,-0.9895,-0.8318,-0.5732,-0.4121,-0.2637,-0.1064,0.0,0.0,0.0,0.0,0.0,0.0,0.0,0.0,0.0,0.0,0.0,0.0,0.0,0.0,0.0,0.0,0.0,0.0,0.0,0.0,0.0,0.0,0.0,0.0,0.0,0.0,0.0,0.0,0.0,0.0,0.0,0.0,0.0,0.0,0.0,0.0,0.0,-0.7845,-0.8621,-0.7448,-0.8467,-0.9187,0.0,0.0,0.0,0.0,0.0,0.0,-1.155,-1.1834,-1.1858,-1.1895,-1.2251,-1.2289,-1.185,-1.2372,-1.2745,-1.2963,-1.3152,-1.3281,-1.3342,-1.3383,-1.3322,-1.3186,-1.3186,-1.2956,-1.2501,-1.1415,-1.0155,-0.8846,-0.96,-0.9919,-0.9947,-0.968,-1.0062,-1.055,0.0,0.0,0.0,0.0,0.0,0.0,0.0,0.0,0.0,0.0,0.0,-0.299,-0.2819,-0.5456,-0.7098,-0.681,-0.6923,-0.6603,-0.5773,-0.4478,-0.3167,-0.1738,-0.1909,-0.1932,-0.1672,-0.4276,-0.6654,-0.8579,-0.9888,-1.0873,-1.1314,-1.1315,-1.1239,-1.1233,-1.1121,-1.0247,-0.8424,-0.526,-0.248,-0.0102,-0.0742,0.0,0.0,0.0,0.0,0.0,0.0,0.0,0.0,0.0,0.0,0.0,0.0,0.0,0.0,0.0,0.0,0.0,0.0,0.0,0.0,0.0,0.0,0.0,0.0,0.0,0.0,0.0,0.0,0.0,0.0,0.0,0.0,0.0,0.0,0.0,0.0,0.0,0.0,-0.8052,-0.9171,0.0,0.0,0.0,0.0,-0.9727,-1.0404,-1.0932,-1.1406,-1.1866,-1.2189,-1.2196,-1.2515,-1.2813,-1.3078,-1.3403,-1.3566,-1.3587,-1.3878,-1.3939,-1.381,-1.396,-1.3939,-1.3797,-1.3797,-1.3627,-1.3261,-1.2216,-1.1368,-1.0822,-1.1063,-1.0968,-1.0699,-1.0677,-1.1003,-1.1368,0.0,0.0,0.0,0.0,0.0,0.1478,0.1254,0.1068,0.0874,0.0713,-0.237,-0.4511,-0.4188,-0.649,-0.8201,-0.8481,-0.9086,-0.8979,-0.7847,-0.6303,-0.4953,-0.3992,-0.2526,-0.246,-0.3749,-0.6087,-0.8433,-1.0746,-1.1101,-1.1451,-1.1702,-1.1868,-1.1789,-1.1782,-1.156,-1.111,-1.0448,-0.854,-0.4722,-0.0,-0.0308,-0.0093,0.0,0.0,0.0,0.0,0.0,0.0,0.0,0.0,0.0,0.0,0.0,0.0,0.0,0.0,0.0,0.0,0.0,0.0,0.0,0.0,0.0,0.0,0.0,0.0,0.0,0.0,0.0,0.0,0.0,0.0,0.0,0.0,0.0,0.0,0.0,0.0,0.0,-0.9388,-1.0432,0.0,-1.0412,-1.0378,-1.0588,-1.1077,-1.1233,-1.1579,-1.2216,-1.2501,-1.28,-1.3139,-1.3342,-1.3593,-1.3892,-1.4095,-1.4197,-1.4197,-1.4306,-1.4278,-1.4136,-1.419,-1.419,-1.4136,-1.4136,-1.4021,-1.3804,-1.3431,-1.2889,-1.2171,-1.1969,-1.1796,-1.1664,-1.1321,-1.1396,-1.1626,0.0,0.0,0.0,0.0,0.1529,0.1302,0.1146,0.0815,0.0409,-0.0166,-0.2806,-0.5052,-0.5957,-0.8036,-0.951,-1.009,-1.0806,-1.0665,-0.9568,-0.7332,-0.5381,-0.3992,-0.32,-0.3886,-0.6448,-0.7846,-0.9575,-1.1712,-1.1782,-1.125,-0.9992,-1.1549,-1.225,-1.225,-1.1745,-1.1609,-1.133,-0.7969,-0.3947,0.0,0.0,-0.0104,-0.0095,0.0,0.0,0.0,0.0,0.0,0.0,0.0,0.0,0.0,0.0,0.0,0.0,0.0,0.0,0.0,0.0,0.0,0.0,0.0,0.0,0.0,0.0,0.0,0.0,0.0,0.0,0.0,0.0,0.0,0.0,0.0,0.0,0.0,0.0,0.0,-1.0946,-1.0466,-1.1525,-1.2088,-1.1586,-1.1497,-1.1653,-1.2101,-1.2142,-1.2427,-1.3071,-1.3254,-1.3519,-1.3912,-1.4014,-1.419,-1.4448,-1.4543,-1.4563,-1.4516,-1.4516,-1.4462,-1.4373,-1.4319,-1.4326,-1.4367,-1.4319,-1.4245,-1.4143,-1.4095,-1.3782,-1.3193,-1.2873,-1.2602,-1.238,-1.2223,-1.2094,-1.1978,0.0,0.0,0.0,0.1515,0.1378,0.1246,0.1007,0.0661,-0.0276,-0.2131,-0.2986,-0.468,-0.7979,-0.9869,-1.1214,-1.1815,-1.1789,-1.1276,-1.046,-0.7364,-0.4271,-0.1493,-0.3662,-0.6271,-0.9189,-0.9538,-1.015,-1.1262,-1.2159,-1.052,-0.6536,-1.0268,-1.2148,-1.2142,-1.1529,-1.1247,-1.0779,-0.3181,0.0,0.0,0.0,0.0,-0.0107,0.0,0.0,0.0,0.0,0.0,0.0,0.0,0.0,0.0,0.0,0.0,0.0,0.0,0.0,0.0,0.0,0.0,0.0,0.0,0.0,0.0,0.0,0.0,0.0,0.0,0.0,0.0,0.0,0.0,0.0,0.0,0.0,0.0,-0.893,-1.0405,-1.1389,-1.1246,-1.24,-1.2854,-1.1979,-1.2291,-1.261,-1.2759,-1.3044,-1.3403,-1.3844,-1.4014,-1.4224,-1.4516,-1.4523,-1.4597,-1.4564,-1.4753,-1.4679,-1.4709,-1.4709,-1.4529,-1.4516,-1.4373,-1.4387,-1.4502,-1.4367,-1.4306,-1.4285,-1.4318,-1.4256,-1.4048,-1.3749,-1.337,-1.299,-1.2983,-1.2881,-1.2766,0.0,0.0,0.1927,0.1621,0.1505,0.1307,0.0896,0.0724,-0.0056,-0.1867,-0.5764,-0.8285,-0.829,-1.0354,-1.204,-1.2443,-1.212,-0.9864,-0.5192,-0.4085,-0.268,-0.0787,-0.5189,-0.7608,-0.7345,-1.0205,-1.1821,-1.2211,-1.2326,-1.1891,-1.0758,-0.5662,-0.3442,-0.3442,-0.3262,-0.3241,-0.3038,-0.0839,0.0,0.0,0.0,0.0,-0.0,0.0,0.0,0.0,0.0,0.0,0.0,0.0,0.0,0.0,0.0,0.0,0.0,0.0,0.0,0.0,0.0,0.0,0.0,0.0,0.0,0.0,0.0,0.0,0.0,0.0,0.0,0.0,0.0,0.0,0.0,0.0,-0.9285,-0.9976,-0.9582,-1.1332,-1.2589,-1.2601,-1.3231,-1.3682,-1.3157,-1.3505,-1.3654,-1.318,-1.38,-1.4068,-1.4117,-1.435,-1.4645,-1.4835,-1.4841,-1.4916,-1.5059,-1.5059,-1.4991,-1.4848,-1.4848,-1.4787,-1.4672,-1.4638,-1.4577,-1.4509,-1.4468,-1.4394,-1.4299,-1.4258,-1.4238,-1.4204,-1.3905,-1.3709,-1.3587,-1.3485,-1.3275,-1.3057,0.0,0.1912,0.1842,0.1479,0.1307,0.1156,0.0879,0.0798,-0.0117,-0.2735,-0.7278,-1.0028,-0.928,-1.1005,-1.2427,-1.2972,-1.0779,-0.6561,-0.0133,-0.0575,-0.1169,-0.1427,-0.6966,-0.9217,-0.7478,-0.8903,-0.887,-0.7187,-1.1003,-1.0993,-0.7167,-0.2284,0.0,0.0,0.0,0.0,0.0,0.0,0.0,0.0,0.0,0.0,0.0,0.0,0.036,0.0572,-0.0542,-0.0968,-0.0966,-0.0957,0.0,0.0,0.0,0.0,0.0,0.0,0.0,0.0,0.0,0.0,0.0,0.0,0.0,0.0,0.0,0.0,0.0,0.0,0.0,0.0,0.0,0.0,0.0,0.0,-0.9653,-1.0367,-1.0145,-1.1937,-1.3376,-1.3559,-1.3941,-1.4162,-1.4135,-1.434,-1.4401,-1.4157,-1.445,-1.4577,-1.454,-1.4731,-1.4805,-1.4765,-1.4966,-1.5033,-1.5174,-1.5371,-1.5269,-1.5059,-1.5059,-1.4984,-1.4835,-1.4774,-1.4726,0.0,-1.4638,-1.4563,-1.4482,-1.4414,-1.4387,0.0,0.0,0.0,0.0,0.0,-1.3607,-1.3451,0.0,0.1692,0.1531,0.1166,0.0934,0.0833,0.0915,0.0824,-0.0429,-0.3806,-0.7731,-1.0366,-1.0603,-1.1742,-1.2515,-1.2603,-0.8416,-0.2855,0.371,0.2625,0.0455,-0.2371,-0.75,-0.954,-0.7929,-0.606,-0.3399,-0.0,-0.7926,-0.7836,0.0,0.0,0.0,0.0,0.0,0.0,0.0,0.0,0.0,0.0,0.0,0.0,0.0,0.0,0.0,0.0,0.0,0.0,-0.0122,-0.1009,0.0,0.0,0.0,0.0,0.0,0.0,0.0,0.0,0.0,0.0,0.0,0.0,0.0,0.0,0.0,0.0,0.0,0.0,0.0,0.0,0.0,0.0,0.0,0.0,-0.987,-1.0702,-1.1121,-1.2709,-1.3946,-1.4333,-1.4624,-1.4658,-1.46,-1.4698,-1.493,-1.5187,-1.4912,-1.4719,-1.5033,0.0,0.0,0.0,0.0,-1.5334,-1.5288,-1.5468,-1.5527,-1.5255,-1.5242,-1.5167,-1.5231,-1.5073,-1.508,-1.5011,-1.4855,-1.478,-1.4753,-1.4604,-1.4516,-1.4475,-1.4346,-1.4217,-1.4082,-1.3926,-1.3865,-1.3865,0.0,0.1579,0.1428,0.0992,0.0502,0.0335,0.0833,0.0502,-0.0551,-0.2509,-0.6982,-0.9976,-1.0156,-1.142,-1.1089,-0.8279,-0.5841,-0.2326,0.2986,0.3793,0.3089,0.0692,-0.1185,-0.2042,-0.1649,-0.136,-0.0695,-0.0,-0.178,-0.1791,0.0,0.0,0.0,0.0,0.0,0.0,0.0,0.0,0.0,0.0,0.0,0.0,0.0,0.0,0.0,0.0,0.0,0.0,-0.1,-0.7255,-0.9764,-0.9876,-0.8124,-0.6463,0.0,0.0,0.0,0.0,0.0,0.0,0.0,0.0,0.0,0.0,0.0,0.0,0.0,0.0,0.0,0.0,0.0,0.0,0.0,-1.0253,-1.1708,-1.2979,-1.3526,-1.4397,-1.5059,-1.5222,-1.5183,-1.5106,-1.5133,-1.5416,-1.5506,-1.5554,-1.5459,-1.552,-1.5945,-1.5554,0.0,-1.5764,-1.5771,-1.5839,-1.5995,-1.5872,-1.5784,-1.5723,0.0,0.0,-1.5705,-1.535,-1.5296,-1.5316,-1.516,-1.5031,-1.4916,-1.476,-1.4557,-1.434,-1.4312,-1.4285,-1.4238,-1.4082,-1.4027,-1.4007,0.0,0.1561,0.1346,0.0836,0.0561,0.0449,0.0449,0.0449,0.0121,-0.0808,-0.4299,-0.6836,-0.722,-0.8466,-0.8081,-0.5008,-0.1775,0.0606,0.1928,0.3596,0.3465,0.0753,0.032,0.0,0.0,0.0,0.0,0.0,0.0,0.0,0.0,0.0,0.0,0.0,0.0,0.0,0.0,0.0,0.0,0.0,0.0,0.0,0.0,0.0,0.0,0.0,0.0,0.0,-0.1217,-0.9627,-1.1956,-1.1073,-1.027,-0.848,-0.6125,0.0,0.0,0.0,0.0,0.0,0.0,0.0,0.0,0.0,0.0,0.0,0.0,0.0,0.0,-0.9511,-1.0292,0.0,-1.1286,-1.2004,-1.3186,-1.4242,-1.4826,-1.5259,-1.5688,-1.5695,-1.5622,-1.5574,-1.573,-1.575,-1.6007,-1.6158,-1.5974,-1.6008,-1.6282,-1.6083,-1.6117,-1.6392,-1.6117,-1.6151,-1.63,-1.6083,-1.5967,-1.5967,-1.5818,-1.571,-1.5642,-1.556,-1.5527,-1.552,-1.5445,-1.533,-1.5167,-1.4869,-1.4563,-1.4299,-1.4299,-1.4299,-1.4292,-1.4211,-1.4183,-1.4177,0.0,0.1569,0.1304,0.0781,0.0785,0.0729,0.0168,0.0561,0.0837,0.063,-0.1664,-0.3558,-0.4267,-0.5064,-0.4373,-0.1672,0.2041,0.3413,0.1369,0.2569,0.2367,0.0163,0.0,0.0,0.0,0.0,0.0,0.0,0.0,0.0,0.0,0.0,0.0,0.0,0.0,0.0,0.0,0.0,0.0,0.0,0.0,0.0,0.0,0.0,0.0,0.0,0.0,0.0,-0.1397,-1.0298,-1.2729,-1.1671,-1.0241,-0.8717,-0.6887,-0.3487,-0.2021,0.0,0.0,0.0,0.0,0.0,0.0,0.0,0.0,-0.8377,-0.9251,-1.0089,-1.0278,-1.0663,-1.1545,-1.2012,-1.2476,-1.3217,-1.4105,-1.4935,-1.5528,-1.5799,-1.598,-1.5757,-1.5872,-1.6049,-1.6118,-1.6239,-1.6266,-1.6714,-1.6415,-1.6192,-1.6306,-1.6517,-1.6524,-1.6524,-1.6205,-1.6212,-1.6564,-1.63,-1.6171,-1.6164,-1.6015,-1.5866,-1.5723,-1.5696,-1.5696,-1.5723,-1.5662,-1.5533,-1.5337,-1.4916,-1.4584,-1.434,-1.4312,-1.4299,-1.4299,-1.4299,-1.4299,-1.4299,0.0,0.1549,0.1397,0.1121,0.0953,0.0785,0.0393,0.0673,0.0883,0.0866,-0.1189,-0.3036,-0.386,-0.3033,-0.1018,0.2702,0.3799,0.3668,0.2348,0.1167,0.0322,0.0,0.0,0.0,0.0,0.0,0.0,0.0,0.0,0.0,0.0,0.0,0.0,0.0,0.0,0.0,0.0,0.0,0.0,0.0,0.0,0.0,0.0,0.0,0.0,0.0,0.0,0.0,-0.1388,-1.0336,-1.3327,-1.2401,-0.7833,-0.6108,-0.557,-0.5178,-0.3448,-0.1637,-0.1263,-0.1822,-0.303,-0.4375,-0.7485,-1.0246,0.0,-1.0479,-1.0695,-1.0747,-1.1212,-1.1708,-1.1965,-1.2813,-1.3392,-1.3133,-1.4009,-1.4993,-1.5261,-1.5535,-1.5797,-1.6045,-1.6266,-1.6327,-1.6483,-1.6483,-1.6483,-1.6517,-1.651,-1.6503,-1.6524,-1.6524,-1.6524,-1.6524,-1.6503,-1.6571,-1.672,-1.6558,-1.6469,-1.6469,-1.6327,-1.6178,-1.6029,-1.5893,-1.5906,-1.6015,-1.5757,-1.5479,-1.5181,-1.4869,-1.4638,-1.4475,-1.4346,-1.4299,-1.4299,-1.4299,-1.4299,-1.4299,0.0,0.0,0.1628,0.1347,0.1067,0.0785,0.0449,0.0505,0.0691,0.0865,0.02,-0.043,-0.0606,0.0332,0.1755,0.353,0.4014,0.3733,0.2331,0.0894,0.0,0.0,0.0,0.0,0.0,0.0,0.0,0.0,0.0,0.0,0.0,0.0,0.0,0.0,0.0,0.0,0.0,0.0,0.0,0.0,0.0,0.0,0.0,0.0,0.0,0.0,0.0,0.0,0.0,-0.4276,-0.5645,-0.608,-0.9302,-0.7077,-0.3186,-0.2778,-0.2001,-0.1287,-0.1295,-0.2324,-0.3095,-0.2205,-0.392,-0.6701,-0.9954,-1.117,-1.1532,-1.1674,-1.221,-1.2712,-1.3037,-1.36,-1.3988,0.0,-1.462,-1.4007,-1.1158,-1.0963,-1.0997,-1.1328,-1.4144,-1.6137,-1.6612,-1.6653,-1.6693,-1.6781,-1.6788,-1.6788,-1.6788,-1.6788,-1.6788,-1.6788,-1.67,-1.6727,-1.6883,-1.6646,-1.6564,-1.6653,-1.6422,-1.6279,-1.6212,-1.6056,-1.5974,-1.594,-1.573,-1.5466,-1.516,-1.4862,-1.4652,-1.4496,-1.4353,-1.4299,-1.4299,-1.4299,-1.4299,-1.4299,0.0,0.0,0.0,0.1515,0.1179,0.0841,0.0561,0.0445,0.0504,0.0869,0.1157,0.1467,0.1789,0.2587,0.3217,0.3414,0.4014,0.3698,0.229,0.0885,0.0,0.0,0.0,0.0,0.0,0.0,0.0,0.0,0.0,0.0,0.0,0.0,0.0,0.0,0.0,0.0,0.0,0.0,0.0,0.0,0.0,0.0,0.0,0.0,0.0,0.0,0.0,0.0,-0.0,-0.0439,-0.0429,-0.1545,-0.8017,-0.606,-0.1503,-0.1191,-0.1117,-0.1266,-0.1535,-0.231,-0.2709,-0.0822,-0.113,-0.2818,-0.6774,-0.9323,-1.125,-1.2377,-1.3119,-1.3532,-1.3899,-1.4217,-1.459,-1.4732,-1.3755,-1.12,-0.6106,-0.6644,-0.7559,-0.7559,-1.2411,-1.5959,-1.6327,-1.6564,-1.6748,-1.6904,-1.6958,-1.6978,-1.6978,-1.6978,-1.6978,-1.6978,-1.687,-1.687,-1.6978,-1.6761,-1.668,-1.6748,-1.649,-1.6368,-1.6361,-1.6212,-1.6015,-1.5791,-1.5683,-1.5466,-1.516,-1.4909,-1.4713,-1.4563,-1.4414,-1.4333,-1.4299,-1.4299,-1.4299,-1.4299,0.0,0.0,0.0,0.0,0.1179,0.0897,0.0897,0.06,0.054,0.0838,0.1217,0.1572,0.2052,0.2652,0.307,0.3092,0.3871,0.3754,0.2248,0.0843,0.0,0.0,0.0,0.0,0.0,0.0,0.0,0.0,0.0,0.0,0.0,0.0,0.0,0.0,0.0,0.0,0.0,0.0,0.0,0.0,0.0,0.0,0.0,0.0,0.0,0.0,0.0,0.0,-0.0136,-0.1372,-0.1728,-0.1666,-0.1354,-0.1101,-0.1091,-0.1571,-0.194,-0.2135,-0.1681,-0.1262,-0.0955,-0.1269,-0.0677,-0.0145,-0.0307,-0.4474,-0.9433,-1.2879,-1.3953,-1.4095,-1.4258,-1.4529,-1.4618,-1.4659,-1.0764,-0.6061,-0.0981,-0.4518,-0.7411,-0.6856,-1.2129,-1.5619,0.0,-1.6103,-1.6592,-1.6748,-1.6897,-1.6978,-1.6978,-1.6978,-1.6978,-1.6978,-1.6978,-1.6978,-1.6978,-1.6971,-1.6897,-1.6748,-1.6592,-1.6517,-1.651,-1.6368,-1.6062,-1.5649,-1.5642,-1.5466,-1.5174,-1.5025,-1.4875,-1.4719,-1.4563,-1.4421,-1.4299,-1.4299,-1.4299,-1.4299,0.0,0.0,0.0,0.0,0.0,0.0874,0.0894,0.0611,0.0499,0.084,0.1469,0.0,0.0,0.0,0.0,0.0,0.3641,0.371,0.3141,0.1207,0.0,0.0,0.0,0.0,0.0,0.0,0.0,0.0,0.0,0.0,0.0,0.0,0.0,0.0,0.0,0.0,0.0,0.0,0.0,0.0,0.0,0.0,0.0,0.0,-0.0506,-0.14,0.0,-0.0708,-0.0134,-0.141,-0.1745,-0.1723,-0.1506,-0.1505,-0.148,-0.1647,-0.2104,-0.2356,-0.1768,-0.2003,-0.2148,-0.0844,-0.03,0.0,0.0,-0.1522,-0.5006,-1.2475,-1.3607,-1.2962,-1.2828,-1.2582,-1.3108,-1.4821,-1.0944,-0.5771,-0.0797,-0.1393,-0.3518,-0.6389,-1.1091,0.0,0.0,0.0,0.0,-1.6564,-1.6741,-1.687,-1.6978,-1.6978,-1.6978,-1.6978,-1.6978,-1.6978,-1.6978,-1.6978,-1.6951,-1.6904,-1.6646,-1.6469,-1.6374,-1.6225,-1.5967,-1.5642,-1.5642,-1.5466,-1.516,-1.4916,-1.4787,-1.4713,-1.4468,-1.434,-1.4299,-1.4299,-1.4299,-1.4299,0.0,0.0,0.0,0.0,0.0,0.0,0.0,0.0,0.0,0.0,0.0,0.0,0.0,0.0,0.0,0.0,0.0,0.3393,0.3386,0.206,0.11,0.0451,0.0665,0.0529,0.0,0.0558,0.1141,0.1354,0.0397,0.0,0.0,0.0,0.0,0.0,0.0,0.0,0.0,0.0,0.0418,0.0813,0.0199,-0.0191,-0.0538,-0.0683,-0.1116,0.0,-0.1927,-0.1464,-0.0783,-0.1601,-0.1803,-0.1913,-0.1783,-0.1768,-0.1862,-0.1711,-0.2138,-0.238,-0.1792,-0.2472,-0.2807,-0.0614,0.0,0.0,0.0,0.0,-0.1939,-0.8887,-1.0641,-1.097,-1.147,-1.1236,-1.1467,-1.3324,-1.0297,-0.5855,-0.0794,0.0,-0.1153,-0.3923,-0.9697,-1.3162,0.0,0.0,0.0,-1.6259,-1.653,-1.6734,-1.689,-1.6951,-1.6978,-1.6978,-1.6978,-1.6978,-1.6978,-1.6978,-1.6951,-1.6897,-1.6754,-1.6551,-1.6307,-1.6259,-1.6022,-1.5642,-1.5642,-1.5466,-1.5167,-1.4977,-1.4835,-1.4719,-1.4529,-1.4394,-1.4299,-1.4299,-1.4299,-1.4299,0.0,0.0,0.0,0.0,0.0,0.0,0.0,0.0,0.0,0.0,0.0,0.0,0.0,0.0,0.0,0.0,0.0,0.0,0.2978,0.35,0.3088,0.1589,0.2114,0.1763,0.0301,0.1875,0.3203,0.389,0.1383,0.018,0.0184,0.0193,0.0,0.0,0.0,0.0,0.0,0.0,0.0799,0.2134,0.0747,-0.0357,-0.1179,-0.1868,-0.1633,-0.1145,-0.1673,-0.1992,-0.2003,-0.1948,-0.2031,-0.2,-0.185,-0.1843,-0.1859,-0.1802,-0.2151,-0.2414,-0.1843,-0.2562,-0.2866,-0.0495,0.0,0.0,0.0,-0.0178,-0.0882,-0.3043,-0.5674,-0.8216,-1.0386,-1.0269,-1.0133,-1.0194,-0.8753,-0.5569,-0.0782,0.0,0.0,0.0,0.0,0.0,0.0,0.0,0.0,-1.548,0.0,-1.6578,-1.6754,-1.6904,-1.6978,-1.6978,-1.6978,-1.6978,-1.6978,-1.6978,-1.6904,-1.6761,-1.6904,-1.6741,-1.6327,-1.6449,-1.6191,-1.5642,-1.5642,-1.5466,-1.5181,-1.5167,-1.4991,-1.474,-1.4726,-1.4543,-1.4299,-1.4299,-1.4299,-1.4299,0.0,0.0,0.0,0.0,0.0,0.0,0.0,0.0,0.0,0.0,0.0,0.0,0.0,0.0,0.0,0.0,0.0,0.0,0.3068,0.3052,0.2962,0.2836,0.3095,0.3188,0.2963,0.3403,0.3812,0.4169,0.352,0.2623,0.1331,0.1856,0.1368,0.0,0.053,0.1067,0.1416,0.0894,0.1058,0.1368,0.1677,0.0964,-0.0455,-0.1746,-0.2073,-0.1828,-0.238,-0.2313,-0.2032,-0.2614,-0.2743,-0.2508,-0.1509,-0.1179,-0.1224,-0.1657,-0.1881,-0.1707,-0.0755,-0.0642,-0.0845,-0.0175,0.0,0.0,0.0,-0.2638,-0.533,-0.5855,-0.6901,-0.7723,-0.7862,-0.8639,-0.8613,-0.6616,-0.5357,-0.3388,-0.0402,0.0,0.0,0.0,0.0,-0.4299,-0.6499,-0.7304,0.0,0.0,-1.557,-1.6408,-1.6897,-1.6958,-1.6978,-1.6978,-1.6978,-1.6978,-1.6978,-1.6978,-1.6958,-1.6917,-1.6842,-1.6686,-1.6463,-1.6395,-1.6096,-1.5642,-1.5642,-1.5466,-1.5167,-1.4943,-1.4808,-1.4719,-1.4496,-1.4367,-1.4299,-1.4299,-1.4299,-1.4299,0.0,0.0,0.0,0.0,0.0,0.0,0.0,0.0,0.0,0.0,0.0,0.0,0.0,0.0,0.0,0.0,0.0,0.0,0.0,0.2627,0.2665,0.2897,0.3361,0.3588,0.3651,0.3854,0.3732,0.3134,0.3854,0.356,0.2613,0.2821,0.2727,0.2313,0.22,0.19,0.1741,0.1443,0.1422,0.0,0.0,0.146,0.0,-0.175,-0.2602,-0.2639,-0.2669,-0.2614,-0.2598,-0.3162,-0.2582,-0.1726,-0.2116,-0.1416,-0.0538,-0.098,-0.1476,-0.1558,-0.0325,0.0,0.0,0.0,0.0,-0.0362,-0.1591,-0.4511,-0.6926,-0.6564,-0.708,-0.7412,-0.7252,-0.7504,-0.7686,-0.7613,-0.5031,-0.2418,-0.02,0.0,0.0,0.0,0.0,0.0,-0.3536,-0.6505,-1.0193,0.0,-1.587,-1.6395,-1.6883,-1.6958,-1.6978,-1.6978,-1.6978,-1.6978,-1.6978,-1.6978,-1.6978,-1.6978,-1.6822,-1.6666,-1.6517,-1.6374,-1.6062,-1.5642,0.0,-1.5466,-1.5167,-1.5004,-1.4855,-1.4726,-1.4557,-1.4414,-1.4299,-1.4299,-1.4299,-1.4299,0.0,0.0,0.0,0.0,0.0,0.0,0.0,0.0,0.0,0.0,0.2132,0.0,0.0,0.0,0.0,0.0,0.0,0.0,0.0,0.0,0.2415,0.2327,0.3042,0.3409,0.3197,0.3671,0.3302,0.1826,0.3019,0.3561,0.3424,0.3479,0.4021,0.5103,0.3906,0.2825,0.1714,0.1862,0.1828,0.1905,0.2021,0.1321,0.0257,0.0,-0.3069,-0.3325,-0.2915,-0.2994,-0.3176,-0.3286,-0.206,-0.0904,-0.2728,-0.1855,0.0,0.0,-0.0812,-0.1531,-0.0349,0.0,0.0,0.0,0.0,-0.0728,-0.363,-0.5614,-0.6618,-0.6043,-0.6658,-0.7369,-0.7626,-0.6839,-0.7105,-1.0031,-0.653,-0.2917,-0.1383,-0.0397,0.0,0.0,0.0,0.0,0.0,-0.5242,-1.0617,-1.5905,-1.6319,-1.6517,-1.6829,-1.6937,-1.6985,-1.6978,-1.6978,-1.6978,-1.6978,-1.6978,-1.6978,-1.6978,-1.6842,-1.6693,-1.6517,-1.6395,-1.609,-1.5669,0.0,0.0,-1.5208,-1.5167,-1.5004,-1.4767,-1.4746,-1.4584,-1.4353,-1.4333,-1.4326,-1.4326,0.0,0.0,0.0,0.0,0.0,0.0,0.0,0.0,0.0,0.0,0.1719,0.1642,0.0,0.0,0.0,0.0,0.0,0.0,0.0,0.0,0.0,0.2458,0.2742,0.2813,0.2824,0.3042,0.2913,0.2606,0.2751,0.2855,0.2819,0.3366,0.3558,0.3577,0.3419,0.3003,0.2234,0.1952,0.185,0.1952,0.1973,0.1045,-0.0577,-0.2404,0.0,0.0,-0.3429,-0.3501,-0.3326,-0.1384,-0.1876,-0.2913,-0.1145,-0.0299,0.0,0.0,-0.0169,-0.0349,-0.0,0.0,0.0,0.0,0.0,-0.0714,-0.3411,-0.4918,-0.5808,-0.5927,-0.6524,-0.7085,-0.7296,-0.7781,-0.7959,-0.7859,-0.8142,-0.7918,-0.7224,-0.3061,0.0,0.0,0.0,0.0,0.0,-0.5221,0.0,0.0,0.0,-1.6809,-1.6985,-1.7012,-1.7012,-1.6985,-1.6978,-1.6978,-1.6978,-1.6978,-1.6978,-1.6978,-1.6951,-1.6795,-1.6524,-1.6497,-1.6239,-1.5811,-1.5689,0.0,-1.535,-1.5106,-1.4977,-1.4916,-1.4787,-1.4706,-1.4652,-1.4523,-1.4475,-1.4462,0.0,0.0,0.0,0.0,0.0,0.0,0.0,0.1531,0.1673,0.1811,0.1626,0.1614,0.1845,0.1263,0.0865,0.0,0.0,0.0,0.0,0.0,0.0,0.2113,0.2297,0.2368,0.2313,0.2502,0.2283,0.1825,0.0,0.2367,0.1876,0.2571,0.2883,0.2707,0.3025,0.284,0.2257,0.2141,0.1761,0.1245,0.0746,0.0108,-0.0873,-0.2596,0.0,0.0,-0.3471,-0.3628,-0.35,-0.1886,-0.201,-0.2537,-0.061,0.0,-0.0335,-0.2032,-0.1232,0.0,0.0,0.0,0.0,0.0,0.0,-0.0536,-0.2534,-0.4326,-0.5635,-0.5825,-0.6455,-0.7068,-0.7378,-0.7663,-0.7887,-0.7556,-0.9411,-1.1041,-1.1973,-1.011,-0.8873,-0.9379,-0.8982,-0.8765,-0.88,-1.1276,-1.4052,0.0,0.0,-1.5586,-1.2747,-1.5301,-1.6998,-1.6978,-1.6978,-1.6978,-1.6978,-1.6978,-1.6978,-1.6978,-1.6897,-1.6741,-1.6517,-1.6442,-1.6164,-1.5744,-1.575,0.0,-1.5404,-1.5343,-1.5221,-1.5072,-1.4997,-1.4875,-1.4733,-1.4658,-1.4631,-1.4611,0.0,0.0,0.0,0.0,0.0,0.0,0.0,0.1308,0.1525,0.1712,0.1676,0.1621,0.1729,0.1103,0.0496,0.0,0.0,0.0,0.0,0.0,0.0,0.0,0.0,0.0,0.2002,0.0,0.0,0.1107,0.1882,0.0,0.0,0.0,0.0,0.0,0.2633,0.2542,0.2002,0.2086,0.1638,0.0,0.0,-0.1233,-0.1351,0.0,0.0,0.0,0.0,-0.351,-0.3654,-0.3122,-0.2639,-0.223,-0.1256,-0.0668,-0.0862,-0.3095,-0.2343,-0.0946,-0.0187,0.0,0.0,0.0,0.0,-0.0535,-0.2176,-0.4088,-0.5654,-0.5733,-0.6429,-0.7102,-0.7442,-0.7376,-0.7499,-0.8136,-1.0087,-1.2332,-1.45,-1.4983,-1.5569,-1.7394,-1.7497,-1.7063,-1.6948,-1.7063,0.0,0.0,0.0,0.0,-1.0445,-1.4663,-1.6985,-1.6978,-1.6978,-1.6978,-1.6978,-1.6978,-1.6978,-1.6978,-1.6856,-1.672,-1.6564,-1.6422,-1.6144,-1.5784,-1.5832,0.0,0.0,-1.5601,-1.5479,-1.5235,-1.5269,-1.512,-1.4882,-1.4848,-1.4835,-1.4808,0.0,0.0,0.0,0.0,0.0,0.0,0.0,0.1604,0.1608,0.2064,0.1699,0.1523,0.2102,0.0885,0.0063,0.0,0.0,0.0,0.0,0.0,0.0,0.0,0.0,0.0,0.0,0.0,0.0,0.1826,0.1541,0.0,0.0,0.0,0.0,0.0,0.0,0.1951,0.1446,0.1511,0.0,0.0,0.0,0.0,0.0,0.0,0.0,0.0,0.0,-0.3297,-0.3425,-0.3648,-0.3747,-0.3775,-0.3714,-0.2956,-0.1929,-0.0683,-0.2332,-0.3561,-0.0782,0.0,0.0,0.0,0.0,-0.0524,-0.2807,-0.4629,-0.5808,-0.607,-0.6579,-0.704,-0.7465,-0.7235,-0.7632,-0.9318,-0.949,-1.0335,-1.2976,-1.0558,-1.0702,-1.6406,-1.7552,-1.7655,-1.7008,-1.7074,-1.7094,0.0,0.0,0.0,-1.5778,-1.6697,-1.7012,-1.6985,-1.6978,-1.6978,-1.6978,-1.6978,-1.6978,-1.6978,-1.6965,-1.6876,-1.672,-1.6571,-1.6408,-1.6232,-1.5967,0.0,0.0,-1.5689,-1.554,-1.5404,-1.554,-1.5493,-1.533,-1.5194,-1.514,-1.5099,0.0,0.0,0.0,0.0,0.0,0.0,0.1586,0.1474,0.149,0.1732,0.1259,0.1104,0.1482,0.0825,0.0126,-0.0237,0.0,0.0,0.0,0.0,0.0,0.0,0.0,0.0,0.0,0.0,0.1288,0.1153,0.1242,0.0,0.0,0.0,0.0,0.0,0.0,0.1897,0.1653,0.0853,0.0,0.0,0.0,0.0,0.0,0.0,0.0,0.0,0.0,0.0,-0.3524,-0.3679,-0.3751,-0.3925,-0.4057,-0.3913,-0.3605,-0.2977,-0.2236,-0.1853,-0.1495,-0.0796,0.0,0.0,0.0,-0.0519,-0.2822,-0.5049,-0.6409,-0.6241,-0.6618,-0.7102,-0.7136,-0.706,-0.7064,-0.7444,-0.754,-0.8088,-0.9525,-0.7487,-0.5951,-0.6609,-1.3355,-1.7747,0.0,0.0,-1.72,0.0,0.0,0.0,-1.6975,-1.715,-1.6936,-1.7012,-1.7012,-1.6998,-1.6978,-1.6978,-1.6978,-1.6978,-1.6978,-1.6897,-1.6748,-1.6592,-1.6395,-1.6164,-1.6042,0.0,0.0,-1.5893,-1.5764,-1.556,-1.571,-1.5567,-1.5276,-1.5309,-1.5262,-1.5153,0.0,0.0,0.0,0.0,0.0,0.1598,0.1473,0.1428,0.14,0.1446,0.0982,0.0772,0.1093,0.087,0.0431,-0.0234,-0.0117,0.0,0.0,0.0,0.0,0.0,0.0,0.0,0.0,0.0,0.0657,0.03,0.0599,0.0459,0.0,0.0,0.086,0.0964,0.0,0.0,0.0,0.0,0.0,0.0,0.0,0.0,0.0,0.0,0.0,0.0,0.0,0.0,0.0,0.0,0.0,-0.3861,-0.4147,-0.4514,-0.4945,-0.4864,-0.3275,-0.1603,-0.163,-0.0777,0.0,0.0,-0.1122,-0.2241,-0.3168,-0.5179,-0.6898,-0.6697,-0.6761,-0.6949,-0.7094,-0.7119,-0.6774,-0.6246,-0.6266,-0.6488,-0.6916,-0.5415,-0.3567,-0.1906,-0.8581,-1.3966,0.0,-1.3149,0.0,0.0,0.0,0.0,0.0,-1.4015,-1.2946,-1.5151,-1.6406,-1.7012,-1.6978,-1.6978,-1.6978,-1.6978,-1.6978,-1.6897,-1.6748,-1.6592,-1.6408,-1.6205,0.0,0.0,0.0,-1.6056,-1.5934,-1.5716,-1.5866,-1.5696,-1.5391,-1.5499,-1.5479,-1.5384,0.0,0.0,0.0,0.0,0.0,0.0,0.1562,0.1428,0.1295,0.1279,0.0809,0.0648,0.1061,0.112,0.0815,0.0056,-0.0,0.0,0.0,0.0,0.0,0.0,0.0,0.0,0.0,0.0,-0.0142,-0.051,-0.051,-0.0443,-0.0379,-0.0295,-0.015,0.0,0.0,0.0,0.0,0.0,0.0,0.0,0.0,0.0,-0.2872,0.0,0.0,0.0,0.0,0.0,0.0,0.0,0.0,0.0,0.0,-0.4784,-0.5274,-0.5736,-0.5599,-0.4593,-0.0913,-0.0,0.0,0.0,-0.3516,-0.6385,-0.3999,-0.5176,-0.6894,-0.7265,-0.714,-0.6998,-0.7287,-0.7221,-0.6759,-0.618,-0.6111,-0.6131,-0.601,-0.4712,-0.4154,-0.5213,-0.3948,-0.4637,-0.865,-0.3659,0.0,0.0,0.0,0.0,0.0,-0.6594,-0.3693,-1.1157,-1.4939,-1.7012,-1.6978,-1.6978,-1.6978,-1.6978,-1.6978,-1.6897,-1.6748,-1.6592,-1.6517,0.0,0.0,0.0,0.0,-1.6144,-1.5988,-1.5866,-1.6022,-1.5981,-1.5845,-1.5845,-1.5872,-1.5689,0.0,0.0,0.0,0.0,0.0,0.0,0.0,0.1387,0.119,0.0749,0.0726,0.0487,-0.017,0.057,0.0859,0.0348,0.0459,0.0,0.0,0.0,0.0,0.0,0.0,0.0,0.0,-0.041,-0.0628,-0.1386,-0.1094,-0.1118,-0.1242,-0.0693,-0.0383,-0.0383,-0.0152,0.0151,0.0,0.0,0.0,0.0,0.0,0.0248,-0.025,0.0,0.0,0.0,0.0,0.0,0.0,0.0,0.0,0.0,0.0,0.0,0.0,-0.5986,-0.6127,-0.6072,-0.4544,-0.3168,-0.2179,-0.2354,-0.343,-0.4834,-0.5486,-0.6201,-0.6856,-0.7096,-0.7139,-0.7327,-0.7603,-0.7407,-0.7102,-0.6392,-0.6384,-0.5874,-0.391,-0.4248,-0.5704,-0.87,-0.5457,-0.6014,0.0,0.0,0.0,0.0,0.0,0.0,0.0,-0.6627,-0.1088,-0.344,-1.2393,-1.706,-1.7019,-1.6992,-1.6978,-1.6978,-1.6876,-1.6795,-1.6741,-1.649,0.0,0.0,0.0,0.0,0.0,-1.6103,-1.5934,-1.573,-1.5981,-1.5879,-1.5415,-1.5818,-1.5663,-1.5609,0.0,0.0,0.0,0.0,0.0,0.0,0.0,0.1391,0.1146,0.0338,0.0442,0.0358,-0.0167,0.0111,0.0334,0.0404,0.0681,0.0,0.0,0.0,0.0,0.0,0.0,0.0,-0.1077,-0.0867,-0.1017,-0.1628,-0.1287,-0.1322,-0.1605,-0.0994,-0.0765,-0.0844,-0.0602,-0.0372,0.0,0.0,0.0,0.0,0.0397,0.0646,0.0652,0.0,0.0,0.0,0.0,0.0,0.0,0.0,0.0,0.0,0.0,0.0,0.0,0.0,-0.639,-0.6661,-0.6536,-0.5451,-0.4403,-0.4599,-0.4747,-0.5142,-0.6698,-0.7131,-0.7126,-0.7061,-0.6932,-0.6945,-0.7221,-0.6367,-0.5925,-0.6466,-0.5889,-0.5219,-0.4571,-0.445,-0.5569,-0.8008,0.0,0.0,0.0,0.0,0.0,0.0,0.0,0.0,0.0,-0.3972,0.0,0.0,-0.8971,-1.4909,-1.7032,-1.6998,-1.6951,-1.689,-1.6795,-1.6693,-1.6578,-1.6395,0.0,0.0,0.0,0.0,0.0,-1.6144,-1.6008,-1.5845,-1.5844,-1.5756,-1.5341,-1.3522,-1.4162,-1.575,0.0,0.0,0.0,0.0,0.0,0.0,0.0,0.1391,0.111,0.0199,0.0,0.015,0.0719,-0.0217,-0.0539,0.028,0.0673,0.0,0.0,0.0,0.0,0.0,0.0,0.0,-0.1141,-0.1245,-0.1312,-0.1353,-0.118,-0.1212,-0.1465,-0.1246,-0.1202,-0.1251,-0.127,-0.0962,0.0,0.0,0.0,0.0,0.0942,0.0716,0.0,0.0,0.0,0.0,0.0,0.0,0.0,0.0,0.0,0.0,0.0,0.0,0.0,0.0,0.0,0.0,0.0,-0.6598,-0.6285,-0.6509,-0.672,-0.7127,-0.757,-0.7684,0.0,-0.6979,-0.6493,-0.6301,-0.6714,-0.4667,-0.3921,-0.654,-0.5098,-0.4455,-0.6777,-0.5184,0.0,0.0,-0.4757,0.0,0.0,0.0,0.0,0.0,0.0,0.0,0.0,0.0,0.0,0.0,-0.5121,-1.0826,-1.7032,-1.6998,-1.691,-1.6768,-1.6748,-1.6592,-1.6327,-1.6307,-1.63,0.0,0.0,0.0,0.0,-1.6031,-1.5957,-1.5512,-1.5564,-1.5764,-1.5512,-1.0458,-1.1301,-1.5019,0.0,0.0,0.0,0.0,0.0,0.0,0.0,0.0,0.0,0.0,0.0144,-0.0444,-0.0107,-0.0575,-0.0681,0.0,0.0,0.0,0.0,0.0,0.0,0.0,0.0,0.0,-0.1279,-0.1115,-0.1271,-0.1648,-0.1368,-0.1405,-0.1777,-0.1468,-0.1231,-0.1221,-0.1283,-0.0819,0.0,0.0,0.0,0.0,0.0468,0.0158,0.0,0.0,0.0,0.0,-0.2703,-0.3213,0.0,0.0,0.0,0.0,0.0,0.0,0.0,0.0,-0.6398,-0.6553,-0.6721,0.0,-0.7106,-0.731,-0.7556,-0.7711,0.0,-0.7767,-0.7788,-0.7762,-0.7709,-0.7718,-0.8209,-0.6317,-0.5584,-0.7736,-0.6658,-0.5495,-0.5758,-0.4836,0.0,-0.6511,0.0,0.0,0.0,0.0,0.0,0.0,0.0,0.0,0.0,0.0,0.0,0.0,-0.1281,-0.6796,-1.6869,-1.7039,-1.6992,-1.6924,-1.6686,-1.6558,-1.6517,-1.6252,-1.6171,0.0,0.0,0.0,-1.0288,-1.4325,-1.3643,-1.0352,-1.4307,-1.5738,-1.526,-1.455,-0.9702,-0.3836,0.0,0.0,0.0,0.0,0.0,0.0,0.0,0.0,0.0,0.0,0.0481,0.0049,-0.0486,-0.074,0.0,0.0,0.0,0.0,0.0,0.0,0.0,0.0,0.0,-0.075,-0.1144,-0.1114,-0.1329,-0.1689,-0.1514,-0.1553,-0.1826,-0.1494,-0.1262,-0.1231,-0.1279,-0.0813,0.0,0.0,0.0,0.0683,0.0156,0.0,0.0,0.0,0.0,0.0,-0.29,-0.3503,0.0,-0.4358,-0.4729,-0.5021,0.0,0.0,0.0,0.0,-0.6419,-0.6689,-0.6834,-0.6906,-0.71,-0.7341,-0.7608,-0.7831,-0.7917,-0.8178,-0.8143,-0.7747,-0.7684,-0.7684,-0.8063,-0.6159,-0.514,-0.6892,-0.6176,-0.5471,-0.5707,0.0,-0.688,-0.6733,-0.6938,0.0,0.0,0.0,0.0,0.0,0.0,0.0,0.0,0.0,0.0,0.0,0.0,-0.2976,-0.9144,-1.4423,-1.6917,-1.7037,-1.6804,-1.6666,-1.6402,-1.3547,-1.3701,0.0,0.0,0.0,-1.1502,-0.9616,-0.6985,-0.4589,-0.7608,-1.1449,-1.5125,-1.0502,-0.5049,0.0,0.0,0.0,0.0,0.0,0.0,0.0,0.0,0.0,0.0,0.0,0.0,0.0,0.0,0.0,0.0,0.0,0.0,0.0,0.0,0.0,0.0,0.0,0.0061,-0.0441,-0.1003,-0.1175,-0.1376,-0.1558,-0.1567,-0.1608,-0.1689,-0.142,-0.1288,-0.1182,-0.1211,-0.0813,-0.0147,0.0074,0.0149,0.0,0.0,0.0,0.0,0.0,0.0,0.0,0.0,0.0,0.0,-0.4594,-0.4839,-0.503,-0.5377,0.0,0.0,0.0,0.0,0.0,-0.6934,-0.6901,-0.6851,-0.7026,-0.731,-0.7717,-0.7981,-0.825,-0.8371,-0.7514,-0.7319,-0.7291,-0.7477,-0.559,-0.444,-0.5771,-0.5179,-0.4775,-0.5721,-0.7582,-0.7938,-0.5609,0.0,0.0,0.0,0.0,0.0,0.0,0.0,0.0,0.0,0.0,0.0,0.0,0.0,0.0,0.0,-0.9488,-1.4892,-1.5621,-1.5673,-1.5949,-1.6038,-1.048,-1.0062,-1.3719,0.0,0.0,-1.5364,-0.6172,-0.1395,0.0,0.0,-0.5609,-1.2558,-0.3433,0.0,0.0,0.0,0.0,0.0,0.0,0.0,0.0,0.0,0.0,0.0,0.0,0.0,0.0,0.0,0.0,0.0,0.0,0.0,0.0,0.0,0.0,0.0,0.0432,-0.012,-0.0611,-0.1104,-0.1227,-0.1322,-0.1462,-0.1508,-0.1549,-0.1508,-0.1351,-0.1056,-0.0729,-0.0723,-0.0783,-0.083,0.0539,0.0693,0.0,0.0,0.0,0.0,0.0,0.0,0.0,0.0,0.0,0.0,-0.4369,-0.4685,-0.5126,-0.5634,0.0,0.0,0.0,0.0,0.0,-0.6949,-0.7337,-0.7747,-0.7034,-0.7093,-0.749,-0.7404,-0.7386,-0.7612,-0.8252,-0.8412,-0.8553,-0.8629,-0.6545,-0.5767,-0.8198,0.0,-0.4799,0.0,0.0,-0.3713,0.0,0.0,0.0,0.0,0.0,0.0,0.0,0.0,0.0,0.0,0.0,0.0,0.0,0.0,0.0,0.0,-0.1686,-0.5023,-0.9824,-0.9873,-1.2272,-1.6646,-1.0721,-0.6011,-0.2791,0.0,-1.1931,-1.5927,-1.4256,-0.8317,0.0,0.0,-0.1001,-0.2221,-0.0606,0.0,0.0,0.0,0.0,0.0,0.0,0.0,0.0,0.0,0.0,0.0,0.0,0.0,0.0,0.0,0.0,0.0,0.0,0.0,0.0,0.0,0.0,0.0652,0.018,-0.0245,-0.0829,-0.1484,-0.1349,-0.1377,-0.1648,-0.147,-0.1423,-0.1516,-0.1414,-0.1207,-0.0975,-0.0476,-0.0619,-0.1137,-0.0306,0.0306,0.0684,0.0,0.0,0.0,0.0,0.0,0.0,0.0,0.0,0.0,0.0,-0.4851,-0.5179,-0.5678,0.0,0.0,0.0,0.0,0.0,-0.7498,-0.7928,-0.8092,-0.6881,-0.6949,-0.7126,-0.6856,-0.6577,-0.6549,-0.7301,-0.7221,-0.7105,-0.765,-0.6757,-0.6661,-0.8837,0.0,-0.0175,0.0,0.0,0.0,0.0,0.0,0.0,0.0,0.0,0.0,0.0,0.0,0.0,0.0,0.0,0.0,0.0,0.0,0.0,0.0,0.0,-0.1245,-0.3956,-0.3867,-0.5237,-0.7669,-0.4985,-0.2376,-0.0198,0.0,-0.5113,-0.7871,-1.362,-0.9694,0.0,0.0,0.0,0.0,0.0,0.0,0.0,0.0,0.0,0.0,0.0,0.0,0.0,0.0,0.0,0.0,0.0,0.0,0.0,0.0,0.0,0.0,0.0,0.0,0.0,0.0,0.0574,0.0176,-0.0536,-0.0624,-0.0982,-0.1718,-0.1392,-0.1416,-0.1808,-0.1418,-0.1371,-0.1696,-0.1492,-0.136,-0.1219,-0.0627,-0.0689,-0.1288,-0.1219,-0.0382,0.069,0.0,0.0,0.0,0.0,0.0,0.0,0.0,0.0,0.0,0.0,0.0,0.0,0.0,0.0,0.0,-0.6794,-0.735,-0.7764,-0.8187,-0.8274,-0.8056,-0.7013,-0.6757,-0.6664,-0.5691,-0.5005,-0.4866,-0.6038,-0.5817,-0.5686,-0.6295,-0.6917,0.0,-0.7059,-0.0881,0.0,0.0,0.0,0.0,0.0,0.0,0.0,0.0,0.0,0.0,0.0,0.0,0.0,0.0,0.0,0.0,0.0,0.0,0.0,0.0,0.0,0.0,0.0,0.0,0.0,0.0,0.0,0.0,0.0,0.0,0.0,-0.0587,-0.9013,-0.7495,0.0,0.0,0.0,0.0,0.0,0.0,0.0,0.0,0.0,0.0,0.0,0.0,0.0,0.0,0.0,0.0,0.0,0.0,0.0,0.0,0.0,0.0,0.0,0.0,0.0,0.0,-0.045,-0.1159,-0.2029,-0.1422,-0.1196,-0.143,-0.1367,-0.1402,-0.1406,-0.1183,-0.1396,-0.1863,-0.1705,-0.1382,-0.0732,-0.1136,-0.1265,-0.1289,-0.132,-0.1176,-0.0786,0.0644,0.0,0.0,0.0,0.0,0.0,0.0,0.0,0.0,0.0,0.0,0.0,0.0,0.0,-0.645,-0.6684,-0.7413,-0.8164,-0.827,-0.7883,-0.7402,-0.75,-0.7057,-0.5893,-0.3271,-0.2041,-0.2316,-0.4952,-0.5567,-0.5527,-0.566,-0.7417,-0.7053,-0.1539,-0.0,0.0,0.0,0.0,0.0,0.0,0.0,0.0,0.0,0.0,0.0,0.0,0.0,0.0,0.0,0.0,0.0,0.0,0.0,0.0,0.0,0.0,0.0,0.0,0.0,0.0,0.0,0.0,0.0,0.0,0.0,0.0,-0.0,-0.0775,-0.0783,0.0,0.0,0.0,0.0,0.0,0.0,0.0,0.0,0.0,0.0,0.0,0.0,0.0,0.0,0.0,0.0,0.0,0.0,0.0054,0.0769,0.0,0.0,0.0,0.0,0.0,0.0,-0.0457,-0.1063,-0.1419,-0.1195,-0.1159,-0.1324,-0.1329,-0.1387,-0.1734,-0.1075,-0.1095,-0.1752,-0.1832,-0.1593,-0.1036,-0.0728,-0.048,-0.0466,-0.0485,-0.0807,-0.1103,0.0,0.0336,0.0,0.0,0.0,0.0,0.0,0.0,0.0,0.0,-0.5487,-0.5701,-0.6153,-0.6481,-0.6733,-0.727,-0.7847,-0.8342,-0.8817,-0.8625,-0.8065,-0.6653,-0.609,-0.5149,-0.2293,-0.1445,-0.1451,-0.2584,-0.2796,-0.2974,-0.3568,-0.4393,-0.3915,-0.0531,0.0,0.0,0.0,0.0,0.0,0.0,0.0,0.0,0.0,0.0,0.0,0.0,0.0,0.0,0.0,0.0,0.0,0.0,0.0,0.0,0.0,0.0,0.0,0.0,0.0,0.0,0.0,0.0,0.0,0.0,0.0,0.0,0.0,0.0,0.0,0.0,0.0,0.0,0.0,0.0,0.0,0.0,0.0,0.0,0.0,0.0,0.0,0.0,0.0,0.0,-0.1457,0.0,0.0,0.0,0.0,0.0274,0.0,0.0,0.0,0.0,0.0561,-0.0286,-0.0824,-0.0972,-0.1003,-0.1102,-0.1277,-0.1207,-0.134,-0.1709,-0.1184,-0.1187,-0.1571,-0.173,-0.1578,-0.1035,-0.0814,-0.0815,-0.0886,-0.0249,-0.0331,-0.0806,-0.025,-0.0507,0.0,0.0,0.0,0.0,0.0,0.0,0.0,0.0,-0.5707,-0.591,-0.623,-0.6614,-0.7034,-0.7588,-0.7772,-0.8079,-0.9054,-0.846,-0.7503,-0.7,-0.5631,-0.4262,-0.3716,-0.2391,-0.1198,-0.0799,-0.0816,-0.0989,-0.1655,-0.181,0.0,0.0,0.0,0.0,0.0,0.0,0.0,0.0,0.0,0.0,0.0,0.0,0.0,0.0,0.0,0.0,0.0,0.0,0.0,0.0,0.0,0.0,0.0,0.0,0.0,0.0,0.0,0.0,0.0,0.0,-0.1739,-0.4779,-0.4787,-0.2885,0.0,0.0,0.0,0.0,0.0,0.0,0.0,0.0,0.0,0.0,0.0,0.0,0.0,0.0,0.0,0.0,0.0,0.0,-0.1459,-0.1235,-0.0729,0.0,0.0,0.0,0.0,0.0,0.0,0.0,0.0897,0.0056,-0.0569,-0.0883,-0.0972,-0.1079,-0.1276,-0.1136,-0.1108,-0.1212,-0.1512,-0.1528,-0.1335,-0.1571,-0.1273,-0.0652,-0.1833,-0.2611,-0.2782,-0.0841,-0.0,0.0,0.0,-0.1706,-0.4189,0.0,0.0,0.0,0.0,0.0,0.0,0.0,-0.58,-0.6105,-0.623,-0.6715,-0.7246,-0.7373,-0.7198,-0.735,-0.8927,-0.7079,-0.5686,-0.8863,-0.6062,-0.3477,-0.754,-0.4758,-0.1033,-0.0163,-0.0,0.0,0.0,0.0,0.0,0.0,0.0,0.0,0.0,0.0,0.0,0.0,0.0,0.0,0.0,0.0,0.0,0.0,0.0,0.0,0.0,0.0,0.0,0.0,0.0,0.0,0.0,0.0,0.0,0.0,0.0,0.0,-0.0,-0.0195,-0.5643,-1.5234,-1.5142,-0.9499,-0.0194,-0.0,0.0,0.0,0.0,0.0,0.0,0.0,0.0,0.0,0.0,0.0,0.0,0.0,0.0,0.0,0.0,0.0,-0.1793,-0.1347,-0.1347,0.0,0.0,0.0,0.0,0.0,0.0,0.0,-0.0112,-0.0336,-0.0626,-0.1177,-0.1215,-0.1195,-0.1111,-0.1125,-0.1191,-0.1243,-0.1341,-0.1346,-0.1335,-0.1414,-0.142,-0.1432,-0.2102,-0.2877,-0.3549,-0.2507,-0.1287,0.0,0.0,-0.169,-0.427,0.0,0.0,0.0,0.0,0.0,0.0,0.0,0.0,0.0,-0.6127,-0.6242,-0.6489,-0.7375,-0.7298,-0.722,-0.8863,-0.8775,-0.8509,-0.9588,-0.829,-0.6163,-0.39,-0.2881,-0.2014,-0.1181,-0.0344,0.0,0.0,0.0,0.0,0.0,0.0,0.0,0.0,0.0,0.0,0.0,0.0,0.0,0.0,0.0,0.0,0.0,0.0,0.0,0.0,0.0,0.0,0.0,0.0,0.0,0.0,0.0,0.0,0.0,0.0,0.0,-0.0192,-0.7372,-1.2422,-1.5187,-1.5214,-1.3525,-1.0095,-0.2952,0.0,0.0,0.0,0.0,0.0,0.0,0.0,0.0,0.0,0.0,0.0,0.0,0.0,0.0,-0.1961,-0.1961,-0.1905,-0.1459,-0.1572,-0.1572,0.0,0.0,0.0,-0.0785,-0.0561,0.0,-0.0841,-0.0841,-0.1024,-0.1413,-0.1397,-0.1331,-0.1134,-0.1191,-0.1178,-0.1239,-0.1251,-0.1251,-0.1239,-0.1251,-0.1509,-0.1944,-0.2297,-0.293,-0.374,-0.3449,-0.2447,-0.1171,-0.1527,-0.2645,-0.4108,0.0,0.0,0.0,0.0,0.0,0.0,0.0,0.0,0.0,-0.6072,-0.6251,-0.6562,-0.7345,-0.7231,-0.7,-0.8615,-0.7957,-0.7275,-0.9287,-0.7507,-0.4459,-0.1876,-0.1956,-0.254,-0.1965,-0.1447,-0.0901,-0.0177,0.0,0.0,0.0,0.0,0.0,0.0,0.0,0.0,0.0,0.0,0.0,0.0,0.0,0.0,0.0,0.0,0.0,0.0,0.0,0.0,0.0,0.0,0.0,0.0,0.0,0.0,0.0,0.0,0.0,-0.0189,-0.6347,-1.1412,-1.5187,-1.5187,-1.5261,-1.4417,-0.4133,0.0,0.0,0.0,0.0,0.0,0.0,0.0,-0.0619,0.0,0.0,-0.2408,-0.2073,0.0,0.0,-0.1796,-0.1796,-0.174,-0.1628,-0.1628,-0.1572,0.0,0.0,0.0,-0.1291,-0.1235,-0.1235,-0.1235,-0.1403,-0.1538,-0.1589,-0.1525,-0.1483,-0.1394,-0.1186,-0.1144,-0.12,-0.1235,-0.132,-0.1296,-0.1327,-0.1696,-0.2363,-0.2591,-0.2999,-0.3595,-0.3685,-0.3462,-0.2959,-0.3834,-0.409,-0.3834,-0.4186,0.0,0.0,0.0,0.0,0.0,0.0,0.0,0.0,-0.6045,-0.6634,-0.7266,-0.7508,-0.699,-0.6769,-0.814,-0.533,-0.3065,-0.7801,-0.4417,-0.0148,-0.0841,-0.1615,-0.2239,-0.2462,-0.2464,-0.2077,-0.0564,-0.0185,0.0,0.0,0.0,0.0,0.0,0.0,0.0,0.0,0.0,0.0,0.0,0.0,0.0,0.0,0.0,0.0,0.0,0.0,0.0,0.0,0.0,0.0,0.0,0.0,0.0,0.0,0.0,0.0,0.0,0.0,-0.5003,-1.3853,-1.4819,-1.5274,-1.441,-0.4106,0.0,0.0,0.0,0.0,0.0,0.0,-0.0622,-0.2911,0.0,0.0,-0.2408,-0.2184,0.0,0.0,-0.1852,-0.1908,-0.1849,-0.1628,-0.1793,-0.1849,-0.1684,-0.1572,0.0,-0.1515,-0.1403,-0.1347,-0.1515,-0.1403,-0.1425,-0.1648,-0.1614,-0.1562,-0.156,-0.1356,-0.1228,-0.1104,-0.1183,-0.1397,-0.1842,-0.1852,-0.2231,-0.3022,-0.3087,-0.3215,-0.3409,-0.3048,-0.2925,-0.2959,-0.3483,-0.374,-0.3834,-0.4186,-0.4304,0.0,0.0,0.0,0.0,0.0,0.0,0.0,-0.6327,-0.6343,-0.6464,-0.7502,-0.7176,-0.6353,-0.5638,-0.3056,-0.0712,-0.1882,-0.1068,-0.0,-0.0182,-0.0374,-0.0754,-0.1479,-0.1145,-0.0973,-0.1872,-0.0944,0.0,0.0,0.0,0.0,0.0,0.0,0.0,0.0,0.0,0.0,0.0,0.0,0.0,0.0,0.0,0.0,0.0,0.0,0.0,0.0,0.0,0.0,0.0,0.0,0.0,0.0,0.0,0.0,0.0,0.0,-0.1138,-0.3805,-1.1768,-1.5147,-1.441,-0.4106,0.0,0.0,0.0,0.0,0.0,0.0,-0.5342,-1.3005,0.0,0.0,0.0,0.0,0.0,0.0,0.0,0.0,-0.1928,-0.1782,-0.1919,-0.1974,-0.1804,-0.1763,0.0,0.0,-0.1628,-0.1628,-0.1793,-0.1628,-0.1665,-0.1924,-0.1786,-0.1789,-0.1884,-0.1682,-0.1558,-0.1509,-0.1665,-0.1917,-0.2275,-0.2383,-0.2892,-0.3667,-0.3314,-0.3227,-0.3317,-0.2598,-0.2497,-0.2914,-0.3266,-0.3442,-0.353,-0.3842,-0.4036,-0.4121,-0.4567,0.0,0.0,0.0,0.0,0.0,0.0,0.0,-0.6491,-0.7304,-0.7359,-0.7065,-0.6423,-0.3205,0.0,0.0,0.0,0.0,0.0,0.0,-0.0191,-0.0562,-0.0385,-0.0196,-0.1142,0.0,0.0,0.0,0.0,0.0,0.0,0.0,0.0,0.0,0.0,0.0,0.0,0.0,0.0,0.0,0.0,0.0,0.0,0.0,0.0,0.0,0.0,0.0,0.0,0.0,0.0,0.0,0.0,0.0,0.0,0.0,0.0,-0.0378,-0.5649,-0.7971,-0.7509,-0.2136,0.0,0.0,0.0,0.0,-0.0607,-0.5714,-1.1288,-1.6095,0.0,0.0,0.0,0.0,0.0,0.0,0.0,0.0,0.0,-0.1905,-0.194,-0.1995,-0.1894,-0.1916,-0.1977,0.0,0.0,0.0,-0.2014,-0.1871,-0.193,-0.2151,-0.2087,-0.2085,-0.222,-0.2085,-0.2041,-0.2018,-0.2294,-0.2591,-0.2896,-0.2953,-0.3442,-0.4313,-0.3595,-0.3282,-0.3261,-0.254,-0.244,-0.2964,-0.3141,-0.3227,-0.3227,-0.3496,-0.3767,-0.3946,-0.43,-0.4656,-0.5008,-0.528,0.0,0.0,0.0,0.0,-0.6963,-0.7093,-0.7557,-0.8018,-0.8094,-0.4148,0.0,0.0,0.0,0.0,0.0,0.0,0.0,0.0,0.0,0.0,0.0,0.0,0.0,0.0,0.0,0.0,0.0,0.0,0.0,0.0,0.0,0.0,0.0,0.0,0.0,0.0,0.0,0.0,0.0,0.0,0.0,0.0,0.0,0.0,0.0,0.0,0.0,0.0,0.0,0.0,0.0,0.0,0.0,0.0,0.0,0.0,0.0,0.0,0.0,0.0,0.0,0.0,-0.1009,-0.999,-1.4566,-1.6055,0.0,0.0,0.0,0.0,0.0,0.0,0.0,0.0,0.0,0.0,-0.1967,-0.2029,-0.2134,-0.2089,-0.2115,-0.2222,-0.2164,-0.2128,-0.2014,0.0,0.0,-0.2034,-0.2413,-0.2552,-0.2351,-0.2485,-0.2626,-0.2568,-0.2772,-0.3363,-0.4246,-0.3816,-0.3988,-0.4682,-0.4476,-0.4002,-0.3499,-0.3311,-0.3152,-0.2875,-0.3138,-0.3227,-0.3227,-0.3678,-0.3857,-0.3946,-0.4482,-0.4835,-0.5008,-0.528,-0.5552,0.0,0.0,0.0,-0.6963,-0.7292,-0.7713,-0.8046,-0.8221,-0.4254,0.0,0.0,0.0,0.0,0.0,0.0,0.0,0.0,0.0,0.0,0.0,0.0,0.0,0.0,0.0,0.0,0.0,0.0,0.0,0.0,0.0,0.0,0.0,0.0,0.0,0.0,0.0,0.0,0.0,0.0,0.0,0.0,0.0,0.0,0.0,0.0,0.0,0.0,0.0,0.0,0.0,0.0,0.0,0.0,0.0,0.0,0.0,0.0,0.0,0.0,0.0,0.0,-0.02,-0.1613,-0.8089,-1.6058,0.0,0.0,0.0,0.0,0.0,0.0,0.0,0.0,0.0,0.0,0.0,-0.2113,-0.2166,-0.2255,-0.228,-0.2356,-0.2322,-0.2206,-0.2009,-0.2029,-0.2194,-0.2523,-0.2652,-0.2843,-0.3021,-0.3092,-0.3092,-0.2958,-0.3405,-0.39,-0.4314,-0.425,-0.4399,-0.4986,-0.4321,-0.3814,-0.3491,-0.3332,-0.3158,-0.2924,-0.3049,-0.3203,-0.3227,-0.332,-0.3499,-0.3785,-0.4193,-0.4551,-0.494,-0.5209,-0.5571,-0.5942,-0.5996,0.0,0.0,0.0,-0.7628,-0.8024,-0.842,-0.4274,0.0,0.0,0.0,0.0,0.0,0.0,0.0,0.0,0.0,0.0,0.0,0.0,0.0,0.0,0.0,0.0,0.0,0.0,0.0,0.0,0.0,0.0,0.0,0.0,0.0,0.0,0.0,0.0,0.0,0.0,0.0,0.0,0.0,-0.2527,-0.7926,-0.8094,-0.5383,0.0,0.0,0.0,0.0,0.0,0.0,0.0,0.0,0.0,0.0,0.0,0.0,0.0,0.0,0.0,0.0,0.0,-0.481,-1.1909,0.0,0.0,0.0,0.0,0.0,0.0,0.0,0.0,0.0,0.0,0.0,-0.2252,-0.2283,0.0,0.0,0.0,-0.2287,-0.2232,-0.2044,-0.2151,-0.2421,-0.2829,-0.2959,-0.3209,-0.3524,-0.3551,-0.356,-0.3493,-0.3763,-0.4101,-0.4308,-0.4382,-0.4495,-0.4865,-0.4269,-0.3757,-0.3589,-0.3488,-0.3199,-0.292,-0.312,-0.3158,-0.3015,-0.3113,-0.329,-0.3612,-0.4044,-0.4426,-0.4879,-0.5075,-0.5635,-0.6069,-0.5826,-0.6362,0.0,0.0,0.0,-0.809,-0.8413,-0.5412,-0.1924,-0.0303,0.0,0.0,0.0,0.0,0.0,0.0,0.0,0.0,0.0,0.0,0.0,0.0,0.0,0.0,0.0,0.0,0.0,0.0,0.0,0.0,0.0,0.0,0.0,0.0,0.0,0.0,0.0,0.0,0.0,0.0,0.0,-0.3414,-1.065,-1.3016,-0.9532,0.0,0.0,0.0,0.0,0.0,0.0,0.0,0.0,0.0,0.0,0.0,0.0,0.0,0.0,0.0,0.0,0.0,-0.3399,-0.8854,0.0,0.0,0.0,0.0,0.0,0.0,0.0,0.0,0.0,0.0,0.0,-0.2421,-0.2415,-0.2299,-0.2219,-0.2216,-0.2213,-0.2191,-0.2194,-0.2498,-0.2669,-0.2606,-0.3334,0.0,-0.3608,-0.3704,-0.3961,-0.4233,-0.3763,-0.3917,-0.455,-0.4226,-0.406,-0.4167,-0.4521,-0.425,-0.3733,-0.3932,-0.3507,-0.2754,-0.3273,-0.3091,-0.2692,-0.3526,-0.3692,-0.3651,-0.4344,-0.4778,-0.4932,-0.5166,-0.5536,-0.5991,-0.5777,-0.6362,-0.713,0.0,0.0,0.0,-0.831,-0.8355,-0.7103,-0.1406,0.0,0.0,0.0,0.0,0.0,0.0,0.0,0.0,0.0,0.0,0.0,0.0,0.0,0.0,0.0,0.0,0.0,0.0,0.0,0.0,0.0,0.0,0.0,0.0,0.0,0.0,0.0,0.0,0.0,0.0,0.0,-0.018,-0.0718,-0.9738,-0.9554,0.0,0.0,0.0,0.0,0.0,0.0,0.0,0.0,0.0,0.0,0.0,0.0,0.0,0.0,0.0,0.0,0.0,-0.3423,-0.8847,0.0,0.0,0.0,0.0,0.0,0.0,0.0,0.0,0.0,0.0,0.0,0.0,0.0,-0.2274,-0.2201,-0.2217,-0.2109,-0.2195,-0.2708,-0.2733,-0.2927,-0.333,-0.3697,-0.3931,-0.4032,-0.4074,-0.4064,-0.4066,-0.4008,-0.4065,-0.4206,-0.4218,-0.4212,-0.4293,-0.4309,-0.4015,-0.3552,-0.374,-0.3421,-0.2862,-0.3112,-0.3176,-0.303,-0.3117,-0.3417,-0.3672,0.0,0.0,-0.4614,-0.5417,-0.5945,-0.6322,-0.5927,-0.6608,-0.7601,-0.764,-0.7839,-0.8201,-0.8342,-0.862,-0.8383,-0.6758,-0.5075,-0.3727,-0.3488,-0.1641,0.0,0.0,0.0,0.0,0.0,0.0,0.0,0.0,0.0,0.0,0.0,0.0,0.0,0.0,0.0,0.0,0.0,0.0,0.0,0.0,0.0,0.0,0.0,0.0,0.0,0.0,0.0,0.0,0.0,-0.9536,-1.2639,-0.9173,-0.2867,0.0,0.0,0.0,0.0,0.0,0.0,0.0,0.0,0.0,0.0,0.0,0.0,0.0,0.0,0.0,-0.3407,-0.8854,0.0,0.0,0.0,-0.228,0.0,-0.1951,-0.2018,-0.2153,-0.2287,-0.2354,0.0,0.0,0.0,0.0,-0.2225,-0.2277,-0.2211,-0.2451,-0.3059,-0.3113,-0.329,-0.3776,-0.3916,-0.4067,-0.424,-0.4212,-0.4152,-0.4127,-0.4166,-0.4275,-0.4242,-0.4322,-0.4394,-0.4468,-0.4249,-0.3935,-0.351,-0.3805,-0.339,-0.2762,-0.315,-0.3238,-0.3107,-0.3233,-0.3448,0.0,0.0,0.0,0.0,-0.4564,-0.535,-0.6046,-0.6082,-0.6816,-0.7688,-0.7925,-0.8038,-0.8106,-0.8397,-0.871,-0.9051,-0.9948,-0.8864,-0.7608,-0.7534,-0.5572,-0.2891,-0.0495,0.0,0.0,0.0,0.0,0.0,0.0,0.0,0.0,0.0,0.0,0.0,0.0,0.0,0.0,0.0,0.0,0.0,0.0,0.0,0.0,0.0,0.0,0.0,0.0,0.0,0.0,0.0,-0.6281,-1.1173,-1.411,-0.4662,0.0,0.0,0.0,0.0,0.0,0.0,0.0,0.0,0.0,0.0,0.0,0.0,0.0,0.0,0.0,-0.3407,-0.8854,-0.2691,-0.2422,-0.2219,-0.2342,-0.2138,-0.2018,-0.2357,-0.2357,-0.2488,-0.2686,0.0,0.0,0.0,0.0,0.0,-0.2478,-0.2653,-0.2895,-0.3272,-0.3678,-0.3814,-0.3702,-0.411,-0.4246,-0.4126,-0.4038,-0.4152,-0.4474,-0.4237,-0.4317,-0.4799,-0.4587,-0.4486,-0.4486,-0.4549,-0.412,-0.3501,-0.4029,-0.3434,-0.232,-0.3519,-0.3492,-0.2858,-0.3917,0.0,0.0,-0.3775,-0.2986,0.0,-0.2757,-0.3799,-0.4987,-0.6261,-0.6877,-0.7347,-0.7846,-0.8045,-0.8113,0.0,0.0,0.0,-1.0324,-1.0674,-1.0977,-1.1635,-1.1283,-0.8697,-0.1763,-0.0165,0.0,0.0,0.0,0.0,0.0,0.0,0.0,0.0,0.0,0.0,0.0,0.0,0.0,0.0,0.0,0.0,0.0,0.0,0.0,0.0,0.0,0.0,0.0,0.0,0.0,0.0,0.0,-0.4673,-1.3771,-0.4673,-0.0359,0.0,0.0,0.0,0.0,0.0,0.0,0.0,0.0,0.0,0.0,0.0,0.0,0.0,0.0,-0.3224,-0.8647,-0.2579,-0.2363,-0.2157,-0.2034,-0.1942,-0.1951,-0.2018,-0.2153,-0.2287,0.0,0.0,0.0,-0.2553,-0.248,-0.2509,-0.2797,-0.2797,-0.3079,-0.36,-0.3765,-0.3901,-0.4132,-0.4262,-0.4284,-0.4251,-0.4217,-0.4193,-0.4175,-0.4205,-0.4204,-0.4246,-0.4298,-0.4423,-0.4577,-0.4622,-0.4271,-0.3698,-0.3945,-0.3791,-0.3411,-0.3389,-0.3453,0.0,0.0,0.0,0.0,0.0,-0.3282,-0.28,0.0,-0.3342,-0.4076,-0.6412,-0.7248,-0.7388,-0.7795,-0.8099,-0.8371,-0.8885,0.0,0.0,0.0,0.0,0.0,-1.163,-1.1568,-1.0737,-0.8285,-0.3657,0.0,0.0,0.0,0.0,0.0,0.0,0.0,0.0,0.0,0.0,0.0,0.0,0.0,0.0,0.0,0.0,0.0,0.0,0.0,0.0,0.0,0.0,0.0,0.0,0.0,0.0,0.0,-0.1255,-0.3953,-0.8273,-0.6646,0.0,0.0,0.0,0.0,0.0,0.0,0.0,0.0,0.0,0.0,0.0,0.0,0.0,0.0,-0.1008,-0.3622,-0.2967,-0.2799,-0.2657,-0.2443,-0.2413,-0.2421,-0.2287,-0.2421,-0.2555,0.0,0.0,0.0,-0.2628,-0.2584,-0.2706,-0.3144,-0.3079,-0.33,-0.3823,-0.3823,-0.3894,-0.4095,-0.4095,-0.4095,-0.4095,-0.4214,-0.4191,-0.4075,-0.4342,-0.4414,-0.4285,-0.4448,-0.4572,-0.4763,-0.4722,-0.4453,-0.4013,-0.4246,-0.3916,-0.3162,-0.3508,0.0,0.0,-0.2825,-0.2476,0.0,0.0,0.0,-0.2008,-0.2973,-0.3901,0.0,0.0,0.0,-0.7404,-0.7928,-0.8177,-0.8448,-0.8927,-0.9518,-1.017,-1.0896,0.0,0.0,-1.2029,-1.102,-1.0196,-1.0932,-0.6504,-0.2961,-0.4606,-0.3737,-0.2201,-0.0317,0.0,0.0,0.0,0.0,0.0,0.0,0.0,0.0,0.0,0.0,0.0,0.0,0.0,0.0,0.0,0.0,0.0,0.0,0.0,0.0,0.0,0.0,0.0,-0.0,-0.5747,-0.5388,0.0,0.0,0.0,0.0,0.0,0.0,0.0,0.0,0.0,0.0,0.0,0.0,0.0,0.0,0.0,-0.1208,0.0,-0.3416,-0.3272,-0.3122,-0.3087,-0.3013,-0.2753,-0.282,-0.2887,0.0,-0.276,-0.2767,-0.2767,-0.2767,-0.2969,-0.3444,-0.3309,-0.3444,-0.3914,-0.3924,-0.3862,-0.3862,-0.3862,-0.3862,-0.3862,-0.4097,-0.4202,-0.4094,-0.4556,-0.4706,-0.462,-0.4703,-0.4752,-0.4849,-0.4664,-0.4477,-0.4448,-0.4613,-0.3871,-0.2643,-0.369,-0.3446,0.0,0.0,-0.2278,-0.1835,-0.051,0.0,-0.0383,-0.2714,-0.4916,0.0,0.0,0.0,0.0,0.0,-0.8381,0.0,0.0,0.0,0.0,0.0,-1.1815,0.0,-1.2588,-1.0193,-0.869,-1.1188,-0.8699,-0.7247,-1.1054,-0.9445,-0.6098,-0.2107,-0.1064,-0.0468,-0.0,0.0,0.0,0.0,0.0,0.0,0.0,0.0,0.0,0.0,0.0,0.0,0.0,0.0,0.0,0.0,0.0,0.0,0.0,0.0,0.0,0.0,0.0,0.0,0.0,0.0,0.0,0.0,0.0,0.0,0.0,0.0,0.0,0.0,0.0,0.0,0.0,0.0,0.0,-0.0604,-0.3442,-0.3247,-0.3049,-0.2964,-0.2804,-0.2687,-0.2676,-0.2753,-0.282,-0.2954,-0.2946,-0.3055,-0.3267,-0.3059,-0.3059,-0.3405,-0.347,-0.3539,-0.3677,-0.4036,-0.4232,-0.4232,-0.4232,-0.4232,-0.4232,-0.4252,-0.4172,-0.3905,-0.4523,-0.455,-0.4118,-0.4536,-0.4664,-0.4664,-0.4573,-0.4477,-0.4448,-0.4822,-0.4732,-0.4179,-0.2905,0.0,-0.5541,-0.4293,-0.2426,-0.0388,-0.0127,0.0,-0.0388,-0.2728,-0.5035,-0.6898,0.0,0.0,0.0,-0.7932,0.0,0.0,0.0,0.0,0.0,0.0,0.0,0.0,-1.2408,-1.1655,-1.0946,-1.0886,-0.8928,-0.8236,-1.149,-1.1538,-1.0975,-1.0639,-0.7282,-0.361,-0.0487,0.0,0.0,0.0,0.0,0.0,0.0,0.0,0.0,0.0,0.0,0.0,0.0,0.0,0.0,0.0,0.0,0.0,0.0,0.0,0.0,0.0,0.0,0.0,0.0,0.0,0.0,0.0,0.0,0.0,0.0,0.0,0.0,0.0,0.0,0.0,0.0,0.0,0.0,-0.0202,-0.3829,-0.3771,-0.3633,-0.3312,-0.3316,-0.3253,-0.3009,-0.3025,-0.3107,-0.3219,-0.3163,-0.3145,-0.3145,-0.2999,-0.307,-0.3355,-0.3589,-0.3709,-0.3717,-0.3891,-0.3938,-0.3795,-0.3743,-0.3717,-0.3717,-0.4132,-0.4105,-0.3776,-0.4568,-0.4733,-0.4202,-0.4808,-0.5027,-0.4953,-0.4905,-0.4914,-0.5104,-0.5063,-0.4986,-0.4903,-0.3796,0.0,-0.5635,-0.4677,-0.3426,-0.1998,-0.0529,0.0,-0.0131,-0.1335,-0.3812,0.0,0.0,-0.6159,-0.7668,0.0,-0.8778,-0.9231,0.0,0.0,0.0,-1.1729,0.0,0.0,0.0,-1.1855,-1.162,-1.1346,-1.0211,-0.987,-1.1671,-1.2092,-1.2308,-1.2606,-1.0733,-0.8428,-0.5886,-0.2322,0.0,0.0,0.0,0.0,0.0,0.0,0.0,0.0,0.0,0.0,0.0,0.0,0.0,0.0,0.0,0.0,0.0,0.0,0.0,0.0,0.0,0.0,0.0,0.0,0.0,0.0,0.0,0.0,0.0,0.0,0.0,0.0,0.0,0.0,0.0,0.0,0.0,0.0,-0.4225,-0.4243,-0.4154,-0.3731,-0.3766,-0.3747,-0.3276,-0.3293,-0.3398,-0.3283,-0.3182,-0.3117,-0.2996,-0.305,-0.3144,-0.3325,-0.3748,-0.3941,-0.3963,-0.3922,-0.3787,-0.3504,-0.3355,-0.3276,-0.335,-0.3949,-0.4065,-0.3679,-0.4639,-0.4884,-0.4511,-0.5112,-0.5319,-0.527,-0.5271,-0.5364,-0.5533,-0.5329,0.0,-0.4631,0.0,-0.5042,-0.4926,-0.3915,-0.3443,-0.3186,-0.0826,0.0,0.0,0.0,-0.2068,-0.4668,-0.4395,-0.5295,0.0,0.0,0.0,0.0,0.0,0.0,0.0,0.0,0.0,-1.2246,0.0,0.0,0.0,-1.18,-1.1406,0.0,0.0,0.0,0.0,0.0,0.0,0.0,0.0,-0.6111,0.0,-0.1376,-0.1237,-0.0781,-0.0,0.0,0.0,0.0,0.0,0.0,0.0,0.0,0.0,0.0,0.0,0.0,0.0,0.0,0.0,0.0,0.0,0.0,0.0,0.0,0.0,0.0,0.0,0.0,0.0,0.0,0.0,0.0,0.0,0.0,0.0,0.0,0.0,0.0,-0.4157,-0.394,-0.3732,-0.3793,-0.3527,-0.3281,-0.3201,-0.3092,-0.2988,-0.2861,-0.2834,-0.2926,-0.3134,-0.3548,-0.3626,-0.3089,-0.4253,0.0,-0.4097,-0.4262,-0.4402,-0.4374,-0.3817,-0.3611,-0.3854,-0.3863,-0.3947,-0.3867,-0.4627,-0.4874,-0.4714,-0.5181,-0.5267,-0.5178,-0.5475,-0.5351,-0.4935,-0.5521,-0.4525,0.0,-0.4605,-0.522,0.0,-0.1601,-0.0552,-0.0426,-0.0139,0.0,0.0,0.0,-0.0266,-0.141,0.0,-0.5716,-0.4823,-0.7397,0.0,0.0,0.0,0.0,0.0,0.0,-1.2179,0.0,0.0,0.0,-1.1959,-1.1727,0.0,0.0,0.0,0.0,0.0,0.0,0.0,0.0,-1.2046,-1.1256,-0.9575,-0.6352,-0.5614,-0.3873,-0.0297,0.0,0.0,0.0,0.0,0.0,0.0,0.0,0.0,0.0,0.0,0.0,0.0,0.0,0.0,0.0,0.0,0.0,0.0,0.0,0.0,0.0,0.0,0.0,0.0,0.0,0.0,0.0,0.0,0.0,0.0,0.0,0.0,0.0,-0.4098,-0.3852,-0.364,-0.369,-0.3479,-0.3334,-0.3604,-0.3591,-0.3434,-0.3057,-0.292,-0.2886,-0.2883,0.0,0.0,0.0,0.0,-0.5324,0.0,0.0,-0.5018,-0.5606,-0.4113,-0.3567,-0.4218,-0.3946,-0.3729,-0.3812,-0.4404,-0.4783,-0.4928,-0.5233,-0.5487,-0.5781,-0.5598,-0.5693,-0.5872,0.0,-0.5265,0.0,0.0,0.0,0.0,-0.3614,-0.1684,0.0,0.0,0.0,0.0,0.0,0.0,0.0,0.0,0.0,0.0,0.0,0.0,0.0,0.0,0.0,0.0,0.0,0.0,0.0,-1.127,0.0,-1.1751,0.0,0.0,0.0,0.0,0.0,0.0,0.0,-1.2345,0.0,0.0,0.0,-1.1769,0.0,0.0,0.0,-0.3554,-0.3565,-0.3912,-0.3918,-0.1514,0.0,0.0,0.0,0.0,0.0,0.0,0.0,0.0,0.0,0.0,0.0,0.0,0.0,0.0,0.0,0.0,0.0,0.0,0.0,0.0,0.0,0.0,0.0,0.0,0.0,0.0,0.0,0.0,0.0,-0.3931,-0.3827,-0.3751,-0.3639,-0.348,-0.3457,-0.3717,-0.3723,-0.3507,-0.3184,-0.3013,-0.2909,-0.2679,-0.3301,0.0,0.0,-0.6204,-0.6462,0.0,0.0,-0.5399,-0.6337,-0.4406,0.0,-0.4723,-0.4158,-0.3905,-0.3955,-0.4293,-0.47,-0.5099,-0.5349,-0.5686,-0.6126,-0.5876,-0.5607,-0.5369,0.0,-0.5589,-0.7323,-0.7794,-0.6631,-0.4627,-0.4924,-0.2864,0.0,0.0,0.0,0.0,0.0,0.0,0.0,0.0,0.0,0.0,0.0,0.0,0.0,-1.0225,0.0,0.0,0.0,0.0,0.0,0.0,0.0,0.0,0.0,0.0,0.0,0.0,0.0,0.0,0.0,0.0,-1.2424,0.0,-1.2294,0.0,0.0,0.0,0.0,0.0,-0.774,-0.8252,-0.8359,-0.5421,-0.2912,-0.1667,-0.0623,0.0,0.0,0.0,0.0,0.0,0.0,-0.1372,-0.3825,-0.1226,0.0,0.0,0.0,0.0,0.0,0.0,0.0,0.0,0.0,0.0,0.0,0.0,0.0,0.0,0.0,0.0,0.0,-0.358,-0.3763,-0.3845,-0.3776,-0.3673,-0.3484,-0.319,-0.2911,-0.2855,-0.327,-0.3101,0.0,0.0,0.0,0.0,0.0,0.0,-0.827,-0.6417,0.0,-0.5699,-0.6373,-0.4843,-0.435,0.0,-0.4836,-0.4691,-0.4687,-0.4422,-0.4567,-0.5029,-0.5511,-0.5625,-0.5641,-0.637,-0.5138,-0.2534,-0.332,-0.5076,-0.731,-0.7447,-0.4545,-0.0594,0.0,-0.2926,0.0,0.0,0.0,0.0,0.0,0.0,0.0,0.0,0.0,0.0,0.0,0.0,0.0,0.0,0.0,0.0,-0.6541,0.0,0.0,0.0,0.0,-1.2394,0.0,0.0,0.0,0.0,0.0,0.0,0.0,0.0,0.0,0.0,0.0,0.0,0.0,0.0,0.0,0.0,-1.163,-1.1689,-1.2398,-1.2437,-1.0283,-0.5897,-0.1971,0.0,0.0,0.0,0.0,0.0,0.0,-0.4599,-1.3647,-0.4348,0.0,0.0,0.0,0.0,0.0,0.0,0.0,0.0,0.0,0.0,0.0,0.0,0.0,0.0,0.0,0.0,0.0,-0.3371,-0.3619,-0.3796,-0.3638,-0.3632,-0.3557,-0.3366,-0.3463,-0.3552,0.0,0.0,0.0,0.0,-0.2752,-0.2365,0.0,0.0,-0.7625,-0.9098,-0.8248,0.0,0.0,0.0,-0.5573,0.0,0.0,-0.4353,-0.4186,-0.4065,-0.4201,-0.461,-0.5036,-0.5503,-0.5847,-0.6205,-0.5966,0.0,0.0,0.0,0.0,0.0,-0.6499,-0.4918,0.0,0.0,0.0,0.0,0.0,0.0,0.0,0.0,0.0,0.0,0.0,-0.0412,-0.227,-0.444,0.0,0.0,0.0,-1.0058,-1.0257,0.0,0.0,0.0,0.0,0.0,0.0,0.0,0.0,0.0,0.0,0.0,0.0,0.0,0.0,0.0,0.0,0.0,0.0,0.0,0.0,0.0,0.0,-1.1919,-1.2192,-1.219,-1.1508,-1.0109,-0.8524,-0.5259,-0.0154,0.0,0.0,0.0,0.0,-0.4767,-1.418,-1.0993,-0.7735,-0.4646,-0.1432,0.0,0.0,0.0,0.0,0.0,0.0,0.0,0.0,0.0,0.0,0.0,0.0,0.0,0.0,-0.3263,-0.3483,-0.3601,-0.3435,-0.3602,-0.3639,-0.3431,-0.3752,0.0,0.0,-0.2558,0.0,-0.2594,0.0,-0.1912,0.0,-0.2371,-0.6033,-1.1368,-1.0406,0.0,-1.0029,-0.7337,0.0,0.0,0.0,0.0,0.0,-0.4017,-0.414,-0.4249,-0.496,-0.5494,-0.5906,-0.6271,-0.6572,-0.6643,-0.2862,-0.4139,0.0,0.0,-0.7816,0.0,0.0,-0.1628,0.0,0.0,0.0,0.0,0.0,0.0,0.0,0.0,0.0,0.0,0.0,-0.1393,-0.3402,-0.5402,-0.6688,0.0,-0.7975,-0.6987,0.0,-1.0369,0.0,0.0,0.0,0.0,0.0,0.0,0.0,0.0,-1.1803,-1.1715,-1.1636,0.0,-1.1451,0.0,0.0,0.0,0.0,0.0,-1.1648,-1.1682,-1.1519,-1.1451,-1.1476,-1.1749,-1.1582,-0.8519,-0.223,-0.0786,0.0,0.0,0.0,-0.3913,-1.1675,-1.3461,-1.2698,-0.9477,-0.6439,-0.3219,0.0,0.0,0.0,0.0,0.0,-0.2223,-0.5389,-0.5493,-0.5373,-0.504,-0.1379,0.0,-0.0607,-0.3174,-0.3313,-0.3205,-0.3199,-0.3612,0.0,0.0,0.0,-0.3916,0.0,-0.2247,-0.1222,-0.2138,-0.3521,-0.3236,-0.0348,0.0,0.0,-1.217,-1.1603,0.0,0.0,-0.7444,-0.5638,-0.4091,0.0,0.0,0.0,0.0,-0.4246,-0.4076,-0.5146,-0.5708,-0.5813,-0.6664,-0.7075,-0.7092,-0.4842,-0.6223,-1.0131,-0.9056,-0.8351,-0.7855,-0.7615,-0.4563,-0.0296,-0.0144,0.0,0.0,0.0,0.0,0.0,0.0,0.0,0.0,0.0,0.0,0.0,0.0,0.0,0.0,0.0,0.0,0.0,0.0,0.0,-1.1565,0.0,0.0,0.0,0.0,0.0,0.0,-1.1673,-1.1245,-1.0801,0.0,0.0,0.0,0.0,0.0,0.0,-1.1043,-1.1173,-1.1133,-1.0639,-1.068,-1.0729,0.0,-1.1027,-0.9519,-0.6076,-0.2318,-0.0321,-0.0325,-0.0333,-0.2717,-0.7443,-1.2027,-1.4297,-1.4346,-1.4387,-0.9317,-0.0716,-0.0537,-0.0358,-0.036,-0.0367,-0.612,-1.4798,-1.4864,-1.5056,-1.403,-0.4109,-0.0397,-0.1819,-0.2855,-0.2749,-0.2627,0.0,-0.3367,-0.3687,0.0,0.0,0.0,0.0,-0.283,-0.2114,-0.0671,-0.1043,-0.0885,-0.0,0.0,0.0,0.0,0.0,0.0,-0.6727,-0.8539,-0.8062,-0.5159,-0.3937,0.0,-0.5529,0.0,-0.4498,-0.4634,-0.5465,-0.5889,-0.6027,-0.67,-0.7075,-0.7327,-0.6944,-0.5201,-0.3131,-0.8159,-0.9387,-0.8346,0.0,-0.6641,-0.5109,-0.1305,0.0,0.0,0.0,0.0,0.0,0.0,0.0,0.0,0.0,0.0,0.0,0.0,0.0,0.0,0.0,-0.0752,-0.18,0.0,0.0,0.0,0.0,0.0,0.0,0.0,0.0,0.0,0.0,0.0,0.0,0.0,0.0,0.0,-1.0111,0.0,-1.0386,-1.0527,-1.0382,-1.0261,-1.0071,-0.9559,-0.9503,-0.9939,0.0,-0.9561,-0.7318,-0.5809,-0.4966,-0.5024,-0.4974,-0.7458,-1.2312,-1.3561,-1.4235,-1.4312,-1.4346,-1.2912,-1.0377,-0.679,-0.5363,-0.5373,-0.5485,-0.7197,-0.9631,-0.9633,-1.1947,-1.4724,-0.8282,-0.5973,-0.6246,-0.2373,-0.2396,0.0,-0.2504,0.0,0.0,-0.339,0.0,0.0,-0.2988,-0.3582,0.0,-0.2329,-0.0873,0.0,0.0,0.0,0.0,0.0,0.0,0.0,-0.3288,-0.51,-0.5078,-0.3085,-0.1896,0.0,-0.565,0.0,-0.4947,-0.4707,-0.5472,-0.5915,-0.6032,-0.6572,-0.7124,-0.7445,-0.7859,-0.6505,-0.4396,-0.5615,-0.7433,0.0,-0.8418,-0.7799,-0.6811,-0.1765,0.0,0.0,0.0,0.0,0.0,0.0,0.0,0.0,0.0,0.0,0.0,0.0,0.0,0.0,0.0,0.0,0.0,0.0,-0.1624,-0.3197,0.0,0.0,0.0,0.0,0.0,0.0,0.0,0.0,0.0,0.0,0.0,0.0,0.0,-0.946,-0.9451,-0.946,-0.9453,-0.9461,-0.9515,-0.8962,0.0,0.0,0.0,-0.9515,-0.878,-0.9271,-0.9326,-0.8608,-0.9345,-1.0779,-1.3294,-1.3753,-1.4041,-1.4299,-1.4319,-1.434,-1.4169,-1.1455,-1.0204,-1.0228,-1.0623,-1.0712,-1.0926,-1.0993,-1.2949,-1.5314,-1.2449,-1.1604,-1.1762,-0.1711,-0.2057,0.0,0.0,0.0,0.0,0.0,-0.4303,0.0,-0.3158,0.0,-0.4626,-0.4941,-0.2082,0.0,0.0,0.0,0.0,0.0,0.0,0.0,0.0,0.0,0.0,0.0,0.0,0.0,0.0,0.0,-0.5337,-0.4892,-0.5418,-0.5818,-0.6141,-0.6559,-0.7074,-0.7584,-0.7959,-0.8788,-0.9045,-0.26,-0.3749,-0.9283,-0.8819,-0.7694,-0.5926,-0.1501,0.0,0.0,0.0,0.0,0.0,0.0,0.0,0.0,0.0,0.0,0.0,0.0,0.0,0.0,0.0,0.0,0.0,0.0,0.0,-0.0145,-0.0566,-0.319,-0.6445,0.0,0.0,0.0,0.0,0.0,0.0,0.0,0.0,0.0,0.0,0.0,0.0,-0.8284,-0.871,-0.8931,-0.8925,-0.8452,0.0,0.0,0.0,-0.9246,-1.0098,-1.1983,-1.2467,-1.1138,-1.247,-1.2949,-1.2674,-1.3601,-1.4021,-1.4272,-1.4292,-1.4319,-1.4346,-1.4346,-1.436,-1.4236,-1.4524,-1.4855,-1.5306,-1.5526,-1.5547,-1.5655,-1.5825,-1.611,-1.6395,-0.0871,0.0,0.0,0.0,0.0,-0.1812,-0.2845,-0.2619,-0.2313,-0.2407,-0.2445,-0.299,-0.4862,-0.1952,0.0,0.0,0.0,0.0,0.0,0.0,0.0,0.0,0.0,0.0,0.0,0.0,-0.1385,0.0,0.0,-0.5667,-0.6058,-0.6164,-0.621,-0.6246,-0.6816,-0.7236,-0.76,-0.8081,0.0,-0.829,-0.2424,-0.0778,-0.2366,-0.6868,-0.5519,-0.123,-0.0307,0.0,0.0,0.0,0.0,0.0,0.0,0.0,0.0,0.0,0.0,0.0,0.0,0.0,0.0,0.0,0.0,0.0,0.0,0.0,-0.0886,-0.3785,-0.4964,-0.6521,-1.0073,0.0,0.0,0.0,0.0,0.0,0.0,0.0,0.0,0.0,0.0,-0.8592,0.0,-0.8398,-0.8315,0.0,0.0,0.0,0.0,0.0,-0.8747,0.0,-1.068,0.0,0.0,0.0,-1.2589,-1.3541,-1.3693,-1.3939,-1.4116,-1.4245,-1.4306,-1.4306,-1.4306,-1.4312,-1.434,-1.4638,-1.4903,-1.516,-1.5479,-1.5622,-1.5669,-1.594,-1.6164,-1.6327,0.0,0.0,0.0,0.0,0.0,0.0,0.0,-0.2584,0.0,-0.1318,-0.0988,-0.1331,-0.2234,-0.0883,0.0,0.0,0.0,0.0,0.0,0.0,0.0,0.0,0.0,0.0,0.0,0.0,-0.0984,-0.3175,0.0,0.0,-0.5785,-0.6228,-0.6439,-0.6351,-0.7145,-0.7652,-0.8008,0.0,0.0,-0.806,-0.2386,0.0,-0.0314,-0.3006,-0.2352,0.0,0.0,0.0,0.0,0.0,0.0,0.0,0.0,0.0,0.0,0.0,0.0,0.0,0.0,0.0,0.0,0.0,0.0,0.0,0.0,0.0,-0.1038,-0.4689,-0.5421,-0.6517,-1.0084,-1.0503,0.0,0.0,0.0,0.0,0.0,0.0,0.0,0.0,0.0,0.0,0.0,0.0,0.0,0.0,0.0,0.0,0.0,0.0,-0.8207,0.0,0.0,0.0,0.0,0.0,0.0,-1.2709,-1.3462,-1.396,-1.419,-1.4265,-1.4299,-1.4299,-1.4299,-1.4299,-1.4326,-1.4618,-1.4916,-1.5215,-1.552,-1.5642,-1.5676,-1.5974,-1.6178,-1.6307,0.0,-0.0527,0.0,0.0,0.0128,0.0,-0.0607,-0.2476,-0.2762,-0.0338,0.0,0.0,0.0,0.0,0.0,0.0,0.0,0.0,0.0,0.0,0.0,0.0,0.0,0.0,0.0,0.0,-0.0713,0.0,0.0,0.0,0.0,-0.6234,-0.6395,-0.6512,0.0,0.0,0.0,0.0,-0.7493,-0.632,-0.1772,0.0,0.0,0.0,0.0,0.0,0.0,0.0,0.0,0.0,0.0,0.0,0.0,0.0,0.0,0.0,0.0,0.0,0.0,0.0,0.0,0.0,0.0,0.0,0.0,0.0,-0.1034,-0.467,-0.5973,-0.7301,-1.0154,-1.051,0.0,0.0,0.0,0.0,0.0,0.0,0.0,0.0,0.0,0.0,-0.7335,0.0,0.0,0.0,0.0,0.0,-0.7527,0.0,0.0,0.0,0.0,-1.039,-0.9864,0.0,-1.2849,-1.2149,-1.3271,-1.3987,-1.4251,-1.4285,-1.4299,-1.4299,-1.4299,-1.4333,-1.4414,-1.4645,-1.4916,-1.5215,-1.552,-1.5642,-1.5676,-1.5974,-1.6157,-1.6266,0.0,0.0,0.0,0.0,0.0,0.0,0.0,-0.0503,-0.035,-0.0,0.0,0.0,0.0,0.0,0.0,0.0,0.0,0.0,0.0,0.0,0.0,0.0,0.0,0.0,0.0,0.0,-0.0147,0.0,0.0,0.0,0.0,-0.6598,-0.6621,0.0,0.0,0.0,0.0,-0.7694,-0.5169,-0.0718,-0.0149,0.0,0.0,0.0,0.0,0.0,0.0,0.0,0.0,0.0,0.0,0.0,0.0,0.0,0.0,0.0,0.0,0.0,0.0,0.0,0.0,0.0,0.0,0.0,0.0,0.0,-0.102,-0.4608,-0.8014,-1.0213,-1.0283,-1.0493,-1.0541,0.0,0.0,0.0,0.0,0.0,0.0,0.0,0.0,0.0,0.0,-0.7011,0.0,0.0,-0.6313,0.0,0.0,0.0,0.0,-0.8008,0.0,-0.9871,-1.0645,-1.1547,-1.2527,-1.3653,-1.366,-1.3933,-1.4095,-1.4238,-1.4299,-1.4299,-1.4299,-1.4448,-1.4699,-1.4726,-1.4916,-1.5215,-1.552,-1.5642,-1.5676,-1.5974,-1.609,-1.6123,0.0,0.0,0.0,0.0,0.0,0.0,0.0,0.052,0.0,0.0,0.0,0.0,0.0,0.0,0.0,0.0,0.0,0.0,0.0,0.0,0.0,0.0,0.0,0.0,0.0,0.0,-0.0778,0.0,0.0,0.0,0.0,0.0,0.0,0.0,0.0,-0.8195,-0.8242,-0.4622,-0.193,0.0,0.0,0.0,0.0,0.0,0.0,0.0,0.0,0.0,0.0,0.0,0.0,0.0,0.0,0.0,0.0,0.0,0.0,-0.1061,-0.6121,-0.3856,0.0,0.0,0.0,-0.1206,-0.5924,-0.6901,-0.7263,-0.8409,-0.971,-1.0665,-1.0582,-1.0658,-1.0227,0.0,0.0,0.0,0.0,0.0,0.0,0.0,0.0,-0.7499,0.0,0.0,0.0,0.0,0.0,0.0,0.0,0.0,0.0,-0.8591,0.0,-1.0041,-1.1059,-1.1635,-1.2465,-1.3244,-1.3586,-1.3966,-1.4211,-1.4272,-1.4299,-1.4299,-1.4299,-1.4468,-1.474,-1.474,-1.497,-1.5343,-1.5554,-1.5689,-1.5791,-1.6001,-1.6083,-1.6117,0.1775,0.0,0.0445,0.0,0.0485,0.0168,0.2251,0.1063,0.0,0.0,0.0,0.0,0.0,0.0,0.0,0.0,0.0,0.0,0.0,0.0,0.0,0.0,0.0,0.0,0.0,0.0,-0.0813,-0.2671,-0.4204,0.0,0.0,0.0,0.0,0.0,-0.8329,-0.7821,-0.6211,-0.191,0.0,0.0,0.0,0.0,0.0,0.0,0.0,0.0,0.0,0.0,0.0,0.0,-0.1727,-0.3871,-0.3721,-0.369,-0.3501,-0.2281,-0.1824,-0.3197,-0.9096,-0.7273,-0.3086,-0.0606,0.0,-0.1503,-0.6921,-0.9983,-1.1372,-1.0773,-1.0763,-1.0812,-1.0744,-1.0733,-0.9907,-0.7704,0.0,0.0,0.0,0.0,0.0,0.0,-0.7785,-0.7326,-0.7749,-0.6826,0.0,0.0,0.0,0.0,0.0,0.0,0.0,0.0,0.0,0.0,0.0,-1.1739,-1.2319,-1.303,-1.3573,-1.4,-1.4299,-1.4299,-1.4326,-1.436,-1.4319,-1.4496,-1.4801,-1.476,-1.5004,-1.5425,-1.5581,-1.5723,-1.5872,-1.6029,-1.6083,-1.611,0.0319,0.0,0.0,0.0,0.137,0.2434,0.2435,0.1063,0.0,0.0,0.0,0.0,0.0,0.0,0.0,0.0,0.0,0.0,0.0,0.0,0.0,0.0,0.0,0.0,0.0,0.0,-0.0,-0.0,0.0,0.0,-0.7417,0.0,-0.3945,-0.6088,-0.8739,-0.6277,-0.0135,-0.0,0.0,0.0,0.0,0.0,0.0,0.0,0.0,0.0,0.0,0.0,0.0,0.0,-0.5857,-1.3198,-1.2574,-1.238,-1.1478,-0.7382,-0.6295,-0.6295,-0.6295,-0.9325,-1.0314,-0.2126,0.0,-0.0,-0.0147,-0.6148,-1.1398,-1.0747,-1.0987,-1.1104,-1.0785,-1.0645,-0.9965,-0.7493,0.0,0.0,0.0,0.0,0.0,0.0,-0.7834,-0.7595,-0.6784,-0.6759,0.0,0.0,0.0,0.0,0.0,0.0,0.0,-0.803,-0.8213,0.0,-1.116,-1.1372,-1.2293,-1.3838,-1.3838,-1.4,-1.4299,-1.4299,-1.4373,-1.4502,-1.436,-1.4557,-1.4957,-1.4801,-1.5004,-1.5425,-1.5581,-1.5723,-1.5872,-1.6029,-1.6083,-1.6083,0.0502,0.0,0.0,0.0,0.0528,0.0711,0.0711,0.0358,0.0,0.0,0.0,0.0,0.0,0.0,0.0,0.0,0.0,0.0,0.0,0.0,0.0,0.0,0.0,0.0,0.0,0.0,0.0,-0.0,0.0,0.0,0.0,-0.3008,-0.1203,-0.1981,-0.2852,-0.1949,0.0,0.0,0.0,0.0,0.0,0.0,-0.0659,-0.6815,-0.5333,0.0,0.0,0.0,0.0,0.0,-0.59,-1.3394,-1.3006,-1.2739,-1.2207,-1.0908,-1.0531,-1.0463,-1.0595,-1.1436,-1.1914,-0.9213,-0.4273,0.0,0.0,-0.3928,-0.8326,-1.0818,-1.1233,-1.107,-1.0914,-0.9385,-0.8563,-0.9508,-0.9845,0.0,0.0,0.0,0.0,0.0,-0.8153,-0.75,0.0,-0.764,0.0,0.0,0.0,0.0,0.0,0.0,0.0,0.0,-0.9481,0.0,-1.1869,-1.1832,-1.2573,-1.3844,-1.3946,-1.4102,-1.4299,-1.4299,-1.438,-1.4509,-1.4462,-1.4645,-1.497,-1.4916,-1.516,-1.5567,-1.5622,-1.5791,-1.6015,-1.6062,-1.6083,-1.611,0.0344,0.0,0.0,0.0,0.0,0.0,0.0,0.0,0.0,0.0,0.0,0.0,0.0,0.0,0.0,0.0,0.0,0.0,0.0,0.0,0.0,0.0,0.0,0.0,0.0,0.0,0.0,0.0,0.0,-0.1599,-0.4588,-0.1425,0.0,0.0,0.0,0.0,0.0,0.0,0.0,-0.0321,-0.3958,-0.5346,-0.5709,-0.9511,-0.8505,-0.4572,-0.1182,0.0,0.0,0.0,-0.4804,-1.1213,-1.2625,-1.3024,-1.2755,-1.2588,-1.2474,-1.2562,-1.2542,-1.2549,-1.2528,-1.2525,-0.8607,-0.4271,-0.2529,-0.4075,-0.688,-1.0715,-1.1341,-1.1206,-1.1002,-0.9579,-0.9013,-1.0611,-1.0498,-1.0453,-1.0746,0.0,0.0,0.0,0.0,0.0,0.0,-0.8347,-0.7954,0.0,0.0,0.0,0.0,0.0,0.0,-0.9525,-1.0046,0.0,-1.2146,-1.2268,-1.2875,-1.3844,-1.4055,-1.4204,-1.4299,-1.4299,-1.4407,-1.459,-1.4536,-1.4719,-1.5045,-1.4991,-1.5235,-1.5642,-1.5642,-1.5818,-1.6083,-1.6083,-1.6083,-1.6117,0.0,0.0,0.0,0.0,0.0,0.0,0.0,0.0,0.0,0.0,0.0,0.0,0.0,0.0,0.0,0.0,0.0,0.0,0.0,0.0,0.0,0.0,0.0,0.0,0.0,0.0,0.0,0.0,0.0,0.0,0.0,0.0,0.0,0.0,0.0,0.0,0.0,0.0,0.0,-0.083,-1.0446,-1.4358,-1.3797,-0.9334,-1.0012,-1.238,-0.358,-0.0339,0.0,0.0,-0.3023,-0.7547,-1.1951,-1.3342,-1.3091,-1.2671,-1.2535,-1.2515,-1.2515,-1.2508,-1.2474,-1.2525,-1.2491,-1.1321,-0.6857,-0.6019,-0.7246,-1.0618,-1.145,-1.1495,-1.1056,-1.0995,-1.0941,-1.0765,-1.0473,-1.0304,-1.0426,0.0,0.0,0.0,0.0,0.0,0.0,-0.8616,-0.8793,0.0,0.0,0.0,0.0,0.0,-0.8886,-0.9256,-1.0123,-1.1029,-1.2114,-1.2533,-1.3062,-1.3878,-1.4163,-1.4299,-1.4299,-1.4299,-1.4462,-1.4733,-1.459,-1.4774,-1.5174,-1.5038,-1.5235,-1.5628,-1.5635,-1.5811,-1.6069,-1.6076,-1.6083,-1.6103,0.0,0.0,0.0,0.0,0.0,0.0,0.0,0.0,0.0,0.0,0.0,0.0,0.0,0.0,0.0,0.0,0.0,0.0,0.0,0.0,0.0,0.0,0.0,0.0,0.0,0.0,0.0,0.0,0.0,0.0,0.0,0.0,0.0,0.0,0.0,0.0,0.0,0.0,0.0,-0.085,-1.0418,-1.4337,-1.4125,-1.2853,-1.3025,-1.3356,-0.7348,-0.289,0.0,0.0,-0.3026,-0.7554,-1.2014,-1.3446,-1.3349,-1.3051,-1.2854,-1.2678,-1.2678,-1.2589,-1.2494,-1.2467,-1.2546,-1.1378,-0.7165,-0.8388,-1.0627,-1.1636,-1.1667,-1.1484,-1.1179,-1.1118,-1.0995,-1.0616,-1.0304,-1.008,-0.962,-0.9036,0.0,0.0,-0.8704,-0.886,-0.9275,-0.9361,-0.9297,0.0,0.0,0.0,0.0,-0.9679,-1.0417,-1.0483,-1.1253,-1.206,-1.2742,-1.3184,-1.3613,-1.419,-1.4265,-1.4299,-1.4299,-1.4299,-1.4462,-1.474,-1.4699,-1.4875,-1.5181,-1.5147,-1.5262,-1.5479,-1.5594,-1.575,-1.592,-1.6035,-1.6083,-1.6117,0.0,0.0,0.0,0.0,0.0,0.0,0.0,0.0,0.0,0.0,0.0,0.0,0.0,0.0,0.0,0.0,0.0,0.0,0.0,0.0,0.0,0.0,0.0,0.0,0.0,0.0,0.0,0.0,0.0,0.0,0.0,0.0,0.0,0.0,0.0,0.0,0.0,0.0,0.0,-0.069,-0.7968,-1.2403,-1.4263,-1.4256,-1.4235,-1.4014,-1.1107,-0.7038,-0.3061,-0.3049,-0.6068,-1.0242,-1.2707,-1.3336,-1.3466,-1.3281,-1.3071,-1.282,-1.2752,-1.2718,-1.2691,-1.2623,-1.2622,-1.1854,-0.9524,-1.0565,-1.1877,-1.1864,-1.1735,-1.1525,-1.1219,-1.1165,-1.0995,-1.048,-0.9949,-0.9497,-0.9111,-0.8735,0.0,-0.886,-0.9055,-0.9372,-0.9802,-0.993,-0.9935,-0.9532,-0.9761,0.0,-0.9438,-1.0203,-1.0689,-1.0689,-1.1697,-1.242,-1.2956,-1.3539,-1.3987,-1.4299,-1.4299,-1.4299,-1.4299,-1.4299,-1.4462,-1.474,-1.474,-1.4909,-1.5181,-1.5181,-1.5269,-1.5425,-1.5581,-1.5723,-1.5872,-1.6029,-1.6123,-1.6218,0.0,0.0,0.0,0.0,0.0,0.0,0.0,0.0,0.0,0.0,0.0,0.0,0.0,0.0,0.0,0.0,0.0,0.0,0.0,0.0,0.0,0.0,0.0,0.0,0.0,0.0,0.0,0.0,0.0,0.0,0.0,0.0,0.0,0.0,0.0,0.0,0.0,0.0,0.0,-0.035,-0.5263,-1.0058,-1.4217,-1.4278,-1.4238,-1.4331,-1.4311,-1.1491,-0.7866,-0.7855,-1.0351,-1.3492,-1.3485,-1.3451,-1.341,-1.3403,-1.322,-1.2996,-1.284,-1.2861,-1.2895,-1.2759,-1.2562,-1.2532,-1.2332,-1.2142,-1.1965,-1.1911,-1.1769,-1.1558,-1.1253,-1.1158,-1.0962,-1.0432,-0.9545,-0.9013,-0.8922,0.0,-0.8628,-0.8879,-0.9562,-1.0019,-1.0168,-1.0432,-1.0487,-1.0236,-1.0041,-1.0187,-1.0273,-1.0575,-1.0711,-1.0602,-1.1723,-1.263,-1.3125,-1.3777,-1.417,-1.4299,-1.4299,-1.4299,-1.4299,-1.4326,-1.4482,-1.474,-1.4767,-1.493,-1.5181,-1.5181,-1.5269,-1.5425,-1.5581,-1.5723,-1.5872,-1.6029,-1.6178,-1.6334,0.0,0.0,0.0,0.0,0.0,0.0,0.0,0.0,0.0,0.0,0.0,0.0,0.0,0.0,0.0,0.0,0.0,0.0,0.0,0.0,0.0,0.0,0.0,0.0,0.0,0.0,0.0,0.0,0.0,0.0,0.0,0.0,0.0,0.0,0.0,0.0,0.0,0.0,0.0,-0.0357,-0.512,-0.9926,-1.4367,-1.4319,-1.4292,-1.4258,-1.4338,-1.374,-1.3153,-1.2706,-1.293,-1.3499,-1.3654,-1.3553,-1.3437,-1.341,-1.337,-1.3302,-1.3146,-1.2942,-1.2759,-1.2732,-1.2698,-1.263,-1.2501,-1.2433,-1.2372,-1.2244,-1.1993,-1.1708,-1.1409,-1.1151,-1.0772,-1.0161,-0.9544,-0.9074,-0.9172,0.0,-0.9131,-0.9545,-1.0168,-1.0643,-1.0792,-1.0962,-1.1036,-1.0995,-1.106,-1.0979,-1.0575,-1.1521,-1.1841,-1.1305,-1.2279,-1.3193,-1.3892,-1.4143,-1.4278,-1.4299,-1.4299,-1.4299,-1.4306,-1.4421,-1.4577,-1.4746,-1.4875,-1.5031,-1.5181,-1.5181,-1.5269,-1.5425,-1.5581,-1.5723,-1.5872,-1.6029,-1.6178,-1.6334,0.0,0.0,0.0,0.0,0.0,0.0,0.0,0.0,0.0,0.0,0.0,0.0,0.0,0.0,0.0,0.0,0.0,0.0,0.0,0.0,0.0,0.0,0.0,0.0,0.0,0.0,0.0,0.0,0.0,0.0,0.0,0.0,0.0,0.0,0.0,0.0,0.0,0.0,0.0,-0.0359,-0.5159,-0.9988,-1.4216,-1.4326,-1.4299,-1.4292,-1.4238,-1.417,-1.4089,-1.4034,-1.374,-1.3606,-1.377,-1.3722,-1.3661,-1.3641,-1.3464,-1.3281,-1.3295,-1.3078,-1.2874,-1.2949,-1.2908,-1.2813,-1.2657,-1.2562,-1.2461,-1.2318,-1.2115,-1.1864,-1.1565,-1.1335,-1.0973,-1.0611,-0.9812,0.0,0.0,-0.9239,-0.936,-0.9701,-1.0505,-1.1016,-1.1172,-1.1321,-1.1409,-1.1409,-1.147,-1.1496,-1.1347,-1.2018,-1.2347,-1.2475,-1.3037,-1.3566,-1.4068,-1.4224,-1.4299,-1.4299,-1.4299,-1.4299,-1.4306,-1.4448,-1.4597,-1.4746,-1.4903,-1.5052,-1.5181,-1.5181,-1.5269,-1.5425,-1.5581,-1.5723,-1.5872,-1.6029,-1.6225,-1.6435,0.0,0.0,0.0,0.0,0.0,0.0,0.0,0.0,0.0,0.0,0.0,0.0,0.0,0.0,0.0,0.0,0.0,0.0,0.0,0.0,0.0,0.0,0.0,0.0,0.0,0.0,0.0,0.0,0.0,0.0,0.0,0.0,0.0,0.0,0.0,0.0,0.0,0.0,-0.1247,-0.3588,-0.6082,-1.0026,-1.4387,-1.4326,-1.4299,-1.4299,-1.4299,-1.4224,-1.4122,-1.4122,-1.4021,-1.3892,-1.3892,-1.3871,-1.3838,-1.3838,-1.36,-1.3349,-1.3431,-1.3261,-1.3078,-1.3152,-1.3091,-1.2963,-1.2773,-1.2664,-1.2556,-1.2379,-1.2223,-1.2033,-1.1769,-1.1538,-1.1314,-1.0953,0.0,0.0,0.0,-0.9484,-0.9658,-1.0034,-1.0856,-1.1396,-1.1579,-1.1735,-1.1823,-1.1823,-1.1891,-1.2013,-1.221,-1.2427,-1.2807,-1.3363,-1.3607,-1.3858,-1.4122,-1.4245,-1.4299,-1.4299,-1.4299,-1.4319,-1.4353,-1.4502,-1.4652,-1.4801,-1.4957,-1.5079,-1.5187,-1.5221,-1.5323,-1.5479,-1.5628,-1.5778,-1.592,-1.6035,-1.6266,-1.6524,0.0,0.0,0.0,0.0,0.0,0.0,0.0,0.0,0.0,0.0,0.0,0.0,0.0,0.0,0.0,0.0,0.0,0.0,0.0,0.0,0.0,0.0,0.0,0.0,0.0,0.0,0.0,0.0,0.0,0.0,0.0,0.0,0.0,0.0,0.0,0.0,0.0,0.0,-0.5204,-1.2806,-0.8778,-1.0016,-1.4353,-1.4312,-1.4299,-1.4299,-1.4299,-1.4292,-1.4285,-1.4285,-1.4183,-1.4055,-1.4055,-1.3953,-1.3838,-1.3838,-1.3817,-1.3763,-1.3648,-1.3492,-1.3336,-1.3207,-1.3166,-1.3085,-1.2793,-1.2834,-1.284,-1.2549,-1.2372,-1.2223,-1.206,-1.1681,-1.1241,-1.094,0.0,0.0,-1.0219,-1.0203,-1.0329,-1.1181,-1.1599,-1.1898,-1.2196,-1.2352,-1.2433,-1.2433,-1.2698,-1.2807,-1.2684,-1.3085,-1.3532,-1.3994,-1.4027,-1.4116,-1.4285,-1.4292,-1.4299,-1.4299,-1.4299,-1.4367,-1.4502,-1.4652,-1.4808,-1.4964,-1.5106,-1.5174,-1.5194,-1.5337,-1.5486,-1.5635,-1.5784,-1.5934,-1.6069,-1.6076,-1.6266,-1.6524,0.0,0.0,0.0,0.0,0.0,0.0,0.0,0.0,0.0,0.0,0.0,0.0,0.0,0.0,0.0,0.0,0.0,0.0,0.0,0.0,0.0,0.0,0.0,0.0,0.0,0.0,0.0,0.0,0.0,0.0,0.0,0.0,0.0,0.0,0.0,0.0,0.0,0.0,-0.5567,-1.409,-1.2223,-1.2734,-1.4346,-1.4312,-1.4299,-1.4299,-1.4299,-1.4299,-1.4299,-1.4299,-1.4265,-1.4211,-1.4211,-1.417,-1.4122,-1.4122,-1.4122,-1.4095,-1.3946,-1.3729,-1.3532,-1.3471,-1.3383,-1.3261,-1.3051,-1.3051,-1.303,-1.2827,-1.2745,-1.2664,-1.2373,-1.2203,-1.1804,-1.1373,0.0,-1.0908,-1.1061,-1.1127,-1.1186,-1.1525,-1.1952,-1.2291,-1.2413,-1.2644,-1.2786,-1.2786,-1.2895,-1.2976,-1.3003,-1.3431,-1.3797,-1.4061,-1.4163,-1.4245,-1.4299,-1.4299,-1.4299,-1.4299,-1.4299,-1.4373,-1.4516,-1.4672,-1.4774,-1.4841,-1.5079,-1.5133,-1.5065,-1.5208,-1.5418,-1.5642,-1.5696,-1.5866,-1.6083,-1.6083,-1.6212,-1.6402,0.0,0.0,0.0,0.0,0.0,0.0,0.0,0.0,0.0,0.0,0.0,0.0,0.0,0.0,0.0,0.0,0.0,0.0,0.0,0.0,0.0,0.0,0.0,0.0,0.0,0.0,0.0,0.0,0.0,0.0,0.0,0.0,0.0,0.0,0.0,0.0,-0.018,-0.3231,-0.7363,-1.2235,-1.3668,-1.4367,-1.4333,-1.4306,-1.4299,-1.4299,-1.4299,-1.4299,-1.4299,-1.4299,-1.4299,-1.4299,-1.4299,-1.4299,-1.4299,-1.4299,-1.4299,-1.4278,-1.417,-1.396,-1.3743,-1.3654,-1.3553,-1.3417,-1.322,-1.3173,-1.3132,-1.299,-1.2969,-1.2949,-1.2702,-1.1354,-1.0709,-1.1785,-1.1851,-1.1708,-1.1755,-1.1837,-1.1898,-1.1898,-1.2338,-1.2664,-1.2712,-1.2901,-1.3051,-1.3091,-1.3098,-1.318,-1.337,-1.3722,-1.3987,-1.4136,-1.4245,-1.4299,-1.4299,-1.4299,-1.4326,-1.4367,-1.4367,-1.4468,-1.4658,-1.4767,-1.4835,-1.4889,-1.5092,-1.5126,-1.5052,-1.5248,-1.5418,-1.5581,-1.5723,-1.5872,-1.6015,-1.6062,-1.6178,-1.6334,0.0,0.0,0.0,0.0,0.0,0.0,0.0,0.0,0.0,0.0,0.0,0.0,0.0,0.0,0.0,0.0,0.0,0.0,0.0,0.0,0.0,0.0,0.0,0.0,0.0,0.0,0.0,0.0,0.0,0.0,0.0,0.0,0.0,0.0,0.0,0.0,-0.0539,-1.0262,-1.1509,-0.7506,-1.2361,-1.4333,-1.4299,-1.4299,-1.4299,-1.4299,-1.4299,-1.4299,-1.4299,-1.4299,-1.4299,-1.4299,-1.4299,-1.4299,-1.4299,-1.4299,-1.4299,-1.4299,-1.4299,-1.419,-1.4,-1.3709,-1.3634,-1.3553,-1.3247,-1.318,-1.3139,-1.2996,-1.2829,-1.2856,-1.2849,-0.9162,-0.7777,-1.2109,-1.244,-1.2126,-1.2094,-1.2318,-1.2508,-1.2508,-1.2773,-1.3017,-1.3159,-1.3173,-1.3241,-1.339,-1.3403,-1.3532,-1.3824,-1.3987,-1.4143,-1.4292,-1.4299,-1.4299,-1.4299,-1.4299,-1.4373,-1.4509,-1.4509,-1.4672,-1.497,-1.497,-1.5052,-1.5181,-1.5181,-1.5181,-1.5208,-1.5506,-1.5547,-1.5459,-1.5906,-1.5988,-1.5872,-1.6029,-1.6178,-1.6334,0.0,0.0,0.0,0.0,0.0,0.0,0.0,0.0,0.0,0.0,0.0,0.0,0.0,0.0,0.0,0.0,0.0,0.0,0.0,0.0,0.0,0.0,0.0,0.0,0.0,0.0,0.0,0.0,0.0,0.0,0.0,0.0,0.0,0.0,0.0,0.0,-0.0539,-1.0262,-1.3515,-1.2212,-1.3636,-1.4333,-1.4299,-1.4299,-1.4299,-1.4299,-1.4299,-1.4299,-1.4299,-1.4299,-1.4299,-1.4299,-1.4299,-1.4299,-1.4299,-1.4299,-1.4299,-1.4299,-1.4299,-1.4265,-1.4183,-1.3987,-1.3858,-1.3729,-1.3539,-1.3566,-1.3607,-1.3318,-1.3378,-1.3472,-1.3173,-0.9559,-0.7069,-0.8293,-1.0953,-1.2745,-1.2556,-1.2698,-1.282,-1.282,-1.299,-1.3125,-1.3166,-1.3268,-1.3349,-1.3397,-1.3498,-1.3688,-1.3987,-1.4048,-1.4143,-1.4292,-1.4299,-1.4299,-1.4299,-1.4299,-1.4373,-1.4509,-1.4509,-1.4672,-1.497,-1.497,-1.4991,-1.5038,-1.514,-1.5126,-1.5052,-1.5242,-1.5418,-1.5588,-1.5716,-1.5872,-1.6022,-1.6062,-1.6178,-1.6334,0.0,0.0,0.0,0.0,0.0,0.0,0.0,0.0,0.0,0.0,0.0,0.0,0.0,0.0,0.0,0.0,0.0,0.0,0.0,0.0,0.0,0.0,0.0,0.0,0.0,0.0,0.0,0.0,0.0,0.0,0.0,0.0,0.0,0.0,0.0,-0.2154,-0.5926,-0.988,-1.2586,-1.438,-1.4346,-1.4319,-1.4299,-1.4299,-1.4299,-1.4299,-1.4299,-1.4299,-1.4299,-1.4299,-1.4299,-1.4299,-1.4299,-1.4299,-1.4299,-1.4299,-1.4299,-1.4299,-1.4299,-1.4299,-1.4278,-1.4183,-1.4048,-1.3892,-1.3743,-1.3777,-1.3824,-1.3599,-1.2087,-1.1457,-1.3102,-0.8256,-0.4068,-0.4036,-0.9373,-1.3315,-1.3132,-1.3173,-1.3207,-1.3139,-1.3214,-1.3261,-1.3261,-1.3403,-1.3512,-1.3566,-1.3715,-1.3885,-1.4061,-1.4129,-1.4204,-1.4299,-1.4299,-1.4299,-1.4299,-1.4353,-1.4455,-1.4604,-1.4604,-1.476,-1.5052,-1.5052,-1.5052,-1.5059,-1.5147,-1.5133,-1.5065,-1.5215,-1.5384,-1.556,-1.5676,-1.5832,-1.6001,-1.6056,-1.6137,-1.6246,0.0,0.0,0.0,0.0,0.0,0.0,0.0,0.0,0.0,0.0,0.0,0.0,0.0,0.0,0.0,0.0,0.0,0.0,0.0,0.0,0.0,0.0,0.0,0.0,0.0,0.0,0.0,0.0,0.0,0.0,0.0,0.0,0.0,0.0,0.0,-0.5386,-1.4084,-0.9678,-1.0199,-1.4346,-1.4312,-1.4299,-1.4299,-1.4299,-1.4299,-1.4299,-1.4299,-1.4299,-1.4299,-1.4299,-1.4299,-1.4299,-1.4299,-1.4299,-1.4299,-1.4299,-1.4299,-1.4299,-1.4299,-1.4299,-1.4299,-1.4299,-1.4197,-1.4055,-1.3899,-1.3871,-1.3885,-1.3733,-1.0066,-0.7822,-1.1547,-0.5575,0.0,0.0,-0.7457,-1.3356,-1.3722,-1.3668,-1.3593,-1.3458,-1.3431,-1.3424,-1.3437,-1.3566,-1.3709,-1.3851,-1.3994,-1.4075,-1.4089,-1.4224,-1.4299,-1.4299,-1.4299,-1.4306,-1.4319,-1.4448,-1.459,-1.474,-1.4753,-1.4909,-1.5181,-1.5181,-1.5181,-1.5181,-1.5181,-1.5181,-1.5194,-1.5337,-1.5404,-1.5459,-1.573,-1.5852,-1.5893,-1.6029,-1.609,-1.6144,0.0,0.0,0.0,0.0,0.0,0.0,0.0,0.0,0.0,0.0,0.0,0.0,0.0,0.0,0.0,0.0,0.0,0.0,0.0,0.0,0.0,0.0,0.0,0.0,0.0,0.0,0.0,0.0,0.0,0.0,0.0,0.0,0.0,0.0,0.0,-0.5386,-1.4269,-1.3139,-1.3286,-1.4346,-1.4312,-1.4299,-1.4299,-1.4299,-1.4299,-1.4299,-1.4299,-1.4299,-1.4299,-1.4299,-1.4299,-1.4299,-1.4299,-1.4299,-1.4299,-1.4299,-1.4299,-1.4299,-1.4299,-1.4299,-1.4299,-1.4299,-1.4278,-1.4211,-1.4055,-1.4116,-1.4183,-1.3766,-1.0254,-0.6216,-0.3385,-0.124,0.0,0.0,-0.4874,-0.9869,-1.3502,-1.3817,-1.3783,-1.3749,-1.3648,-1.3627,-1.3736,-1.3777,-1.3858,-1.4007,-1.4055,-1.4122,-1.4245,-1.4285,-1.4299,-1.4299,-1.4299,-1.4353,-1.4462,-1.4496,-1.459,-1.474,-1.4862,-1.5011,-1.5181,-1.5181,-1.5181,-1.5181,-1.5181,-1.5181,-1.5181,-1.5215,-1.5371,-1.5594,-1.5662,-1.5825,-1.6035,-1.6069,-1.6157,-1.63,0.0,0.0,0.0,0.0,0.0,0.0,0.0,0.0,0.0,0.0,0.0,0.0,0.0,0.0,0.0,0.0,0.0,0.0,0.0,0.0,0.0,0.0,0.0,0.0,0.0,0.0,0.0,0.0,0.0,0.0,0.0,0.0,-0.2513,-0.6828,-0.6828,-0.9523,-1.4229,-1.4387,-1.436,-1.4326,-1.4306,-1.4299,-1.4299,-1.4299,-1.4299,-1.4299,-1.4299,-1.4299,-1.4299,-1.4299,-1.4299,-1.4299,-1.4299,-1.4299,-1.4299,-1.4299,-1.4299,-1.4299,-1.4299,-1.4299,-1.4299,-1.4299,-1.4299,-1.4278,-1.4197,-1.4245,-1.4292,-1.4102,-1.0352,-0.5722,-0.0897,0.0,0.0,0.0,-0.406,-0.8794,-1.3423,-1.4027,-1.3953,-1.3953,-1.3817,-1.379,-1.3939,-1.3953,-1.4014,-1.417,-1.4183,-1.4217,-1.4299,-1.4299,-1.4299,-1.4299,-1.4299,-1.4367,-1.4509,-1.4584,-1.4699,-1.4848,-1.493,-1.5045,-1.5181,-1.5181,-1.5181,-1.5181,-1.5181,-1.5181,-1.5181,-1.5181,-1.5316,-1.554,-1.5608,-1.5778,-1.5981,-1.6056,-1.6218,-1.6435,0.0,0.0,0.0,0.0,0.0,0.0,0.0,0.0,0.0,0.0,0.0,0.0,0.0,0.0,0.0,0.0,0.0,0.0,0.0,0.0,0.0,0.0,0.0,0.0,0.0,0.0,0.0,0.0,0.0,0.0,-0.0,-0.1618,-0.6646,-1.4276,-1.4269,-1.4229,-1.4353,-1.4353,-1.4333,-1.4299,-1.4299,-1.4299,-1.4299,-1.4299,-1.4299,-1.4299,-1.4299,-1.4299,-1.4299,-1.4299,-1.4299,-1.4299,-1.4299,-1.4299,-1.4299,-1.4299,-1.4299,-1.4299,-1.4299,-1.4299,-1.4299,-1.4299,-1.4299,-1.4299,-1.4299,-1.4299,-1.4319,-1.4209,-1.0397,-0.5722,-0.0897,0.0,0.0,0.0,-0.3401,-0.787,-1.349,-1.4238,-1.4116,-1.4109,-1.3994,-1.396,-1.4061,-1.4095,-1.4163,-1.4292,-1.4299,-1.4299,-1.4299,-1.4299,-1.4299,-1.4299,-1.4326,-1.4407,-1.455,-1.4706,-1.4855,-1.5011,-1.5011,-1.5065,-1.5181,-1.5181,-1.5181,-1.5181,-1.5181,-1.5181,-1.5181,-1.5208,-1.5309,-1.5466,-1.5615,-1.5764,-1.5906,-1.6035,-1.6252,-1.649,0.0,0.0,0.0,0.0,0.0,0.0,0.0,0.0,0.0,0.0,0.0,0.0,0.0,0.0,0.0,0.0,0.0,0.0,0.0,0.0,0.0,0.0,0.0,0.0,0.0,0.0,0.0,0.0,0.0,0.0,-0.0184,-0.8525,-1.2991,-1.4276,-1.4242,-1.4387,-1.4353,-1.4353,-1.4333,-1.4299,-1.4299,-1.4299,-1.4299,-1.4299,-1.4299,-1.4299,-1.4299,-1.4299,-1.4299,-1.4299,-1.4299,-1.4299,-1.4299,-1.4299,-1.4299,-1.4299,-1.4299,-1.4299,-1.4299,-1.4299,-1.4299,-1.4299,-1.4299,-1.4299,-1.4299,-1.4299,-1.4319,-1.4209,-1.0397,-0.5722,-0.0897,0.0,0.0,0.0,-0.0537,-0.4112,-1.3121,-1.4353,-1.4306,-1.4272,-1.4251,-1.4197,-1.4082,-1.419,-1.4278,-1.4299,-1.4299,-1.4299,-1.4299,-1.4299,-1.4299,-1.4299,-1.4421,-1.4557,-1.4706,-1.4862,-1.5011,-1.5153,-1.5153,-1.516,-1.5181,-1.5181,-1.5181,-1.5181,-1.5181,-1.5181,-1.5194,-1.5323,-1.5472,-1.5622,-1.5771,-1.5913,-1.6056,-1.6076,-1.6191,-1.6354,0.0,0.0,0.0,0.0,0.0,0.0,0.0,0.0,0.0,0.0,0.0,0.0,0.0,0.0,0.0,0.0,0.0,0.0,0.0,0.0,0.0,0.0,0.0,0.0,0.0,0.0,0.0,0.0,0.0,0.0,-0.0182,-0.4328,-0.9173,-1.4276,-1.4242,-1.4387,-1.4346,-1.4333,-1.4312,-1.4299,-1.4299,-1.4299,-1.4299,-1.4299,-1.4299,-1.4299,-1.4299,-1.4299,-1.4299,-1.4299,-1.4299,-1.4299,-1.4299,-1.4299,-1.4299,-1.4299,-1.4312,-1.4326,-1.4306,-1.4312,-1.4326,-1.4306,-1.4299,-1.4306,-1.4326,-1.4326,-1.434,-1.4216,-1.2592,-0.8794,-0.1436,0.0,0.0,0.0,0.0,-0.3399,-1.2967,-1.4387,-1.434,-1.4306,-1.4299,-1.4272,-1.4204,-1.4258,-1.4299,-1.4299,-1.4299,-1.4299,-1.4299,-1.4299,-1.4299,-1.4299,-1.4434,-1.4584,-1.474,-1.4896,-1.5038,-1.5181,-1.5181,-1.5181,-1.5181,-1.5181,-1.5228,-1.5303,-1.5221,-1.5228,-1.5316,-1.5384,-1.5452,-1.5533,-1.5764,-1.5947,-1.6083,-1.6083,-1.6178,-1.632]}]]